[[{"header":{"parameterUnit":"m.s-1","parameterCategory":1,"la1":30.6,"la2":29.2853,"lo1":-89.7004,"lo2":-87.6739,"dy":0.0162,"dx":0.0183,"nx":112,"ny":82,"refTime":"2023-09-15T00:00:00:Z","depth":0,"parameterNumber":2,"parameterNumberName":"U-component_of_WINDS"},"data":[0.0,0.0,0.0,0.0,0.0,0.0,0.0,0.0,0.0,0.0,0.0,0.0,0.0,0.0,0.0,0.0,0.0,0.0,0.0,0.0,0.0,0.0,0.0,0.0,0.0,0.0,0.0,0.0,0.0,0.0,0.0,0.0,0.0,0.0,0.0,0.0,0.0,0.0,0.0,0.0,0.0,0.0,0.0,0.0,0.0,0.0,0.0,0.0,0.0,0.0,0.0,0.0,0.0,0.0,0.0,0.0,0.0,0.0,0.0,0.0,0.0,0.0,0.0,0.0,0.0,0.0,0.0,0.0,0.0,0.0,0.0,0.0,0.0,0.0,0.0,0.0,0.0,0.0,0.0,0.0,0.0,0.0,0.0,0.0,0.0,0.0,0.0,0.0,0.0,0.0,-1.393,-1.6208,-1.6281,-1.614,-1.614,-1.5296,-1.3887,-1.1917,0.0,0.0,0.0,0.0,0.0,0.0,0.0,0.0,0.0,0.0,0.0,0.0,0.0,0.0,0.0,0.0,0.0,0.0,0.0,0.0,0.0,0.0,0.0,0.0,0.0,0.0,0.0,0.0,0.0,0.0,0.0,0.0,0.0,0.0,0.0,0.0,0.0,0.0,0.0,0.0,0.0,0.0,0.0,0.0,0.0,0.0,0.0,0.0,0.0,0.0,0.0,0.0,0.0,0.0,0.0,0.0,0.0,0.0,0.0,0.0,0.0,0.0,0.0,0.0,0.0,0.0,0.0,0.0,0.0,0.0,0.0,0.0,0.0,0.0,0.0,0.0,0.0,0.0,0.0,0.0,0.0,0.0,0.0,0.0,0.0,0.0,0.0,0.0,0.0,0.0,0.0,0.0,0.0,0.0,0.0,0.0,0.0,0.0,0.0,0.0,0.0,0.0,0.0,0.0,-1.4228,-1.5317,-1.4672,-1.4135,-1.4135,-1.3273,-1.2185,-1.0876,0.0,0.0,0.0,0.0,0.0,0.0,0.0,0.0,0.0,0.0,0.0,0.0,0.0,0.0,0.0,0.0,0.0,0.0,0.0,0.0,0.0,0.0,0.0,0.0,0.0,0.0,0.0,0.0,0.0,0.0,0.0,0.0,0.0,0.0,0.0,0.0,0.0,0.0,0.0,0.0,0.0,0.0,0.0,0.0,0.0,0.0,0.0,0.0,0.0,0.0,0.0,0.0,0.0,0.0,0.0,0.0,0.0,0.0,0.0,0.0,0.0,0.0,0.0,0.0,0.0,0.0,0.0,0.0,0.0,0.0,0.0,0.0,0.0,0.0,0.0,0.0,0.0,0.0,0.0,0.0,0.0,0.0,0.0,0.0,0.0,0.0,0.0,0.0,0.0,0.0,0.0,0.0,0.0,0.0,0.0,0.0,0.0,0.0,0.0,0.0,0.0,0.0,0.0,-1.4357,-1.5367,-1.5195,-1.4314,-1.3709,-1.3709,-1.2842,-1.1804,-1.0667,-1.0982,0.0,0.0,0.0,0.0,0.0,0.0,0.0,0.0,0.0,0.0,0.0,0.0,0.0,0.0,0.0,0.0,0.0,0.0,0.0,0.0,0.0,0.0,0.0,0.0,0.0,0.0,0.0,0.0,0.0,0.0,0.0,0.0,0.0,0.0,0.0,0.0,0.0,0.0,0.0,0.0,0.0,0.0,0.0,0.0,0.0,0.0,0.0,0.0,0.0,0.0,0.0,0.0,0.0,0.0,0.0,0.0,0.0,0.0,0.0,0.0,0.0,0.0,0.0,0.0,0.0,0.0,0.0,0.0,0.0,0.0,0.0,0.0,0.0,0.0,0.0,0.0,0.0,0.0,0.0,0.0,0.0,0.0,0.0,0.0,0.0,0.0,0.0,0.0,0.0,0.0,0.0,0.0,0.0,0.0,0.0,0.0,0.0,0.0,0.0,0.0,0.0,0.0,-1.4652,-1.5497,-1.4717,-1.3967,-1.3499,-1.3499,-1.2843,-1.185,-1.0566,-1.0486,0.0,0.0,0.0,0.0,0.0,0.0,0.0,0.0,0.0,0.0,0.0,0.0,0.0,0.0,0.0,0.0,0.0,0.0,0.0,0.0,0.0,0.0,0.0,0.0,0.0,0.0,0.0,0.0,0.0,0.0,0.0,0.0,0.0,0.0,0.0,0.0,0.0,0.0,0.0,0.0,0.0,0.0,0.0,0.0,0.0,0.0,0.0,0.0,0.0,0.0,0.0,0.0,0.0,0.0,0.0,0.0,0.0,0.0,0.0,0.0,0.0,0.0,0.0,0.0,0.0,0.0,0.0,0.0,0.0,0.0,0.0,0.0,0.0,0.0,0.0,0.0,0.0,0.0,0.0,0.0,0.0,0.0,0.0,0.0,0.0,0.0,0.0,0.0,0.0,0.0,0.0,0.0,0.0,0.0,0.0,0.0,0.0,0.0,0.0,0.0,0.0,0.0,-1.2841,-1.3305,-1.2999,-1.2902,-1.2864,-1.2864,-1.2788,-1.2013,-1.0254,-1.0147,0.0,0.0,0.0,0.0,0.0,0.0,0.0,0.0,0.0,0.0,0.0,0.0,0.0,0.0,0.0,0.0,0.0,0.0,0.0,0.0,0.0,0.0,0.0,0.0,0.0,0.0,0.0,0.0,0.0,0.0,0.0,0.0,0.0,0.0,0.0,0.0,0.0,0.0,0.0,0.0,0.0,0.0,0.0,0.0,0.0,0.0,0.0,0.0,0.0,0.0,0.0,0.0,0.0,0.0,0.0,0.0,0.0,0.0,0.0,0.0,0.0,0.0,0.0,0.0,0.0,0.0,0.0,0.0,0.0,0.0,0.0,0.0,0.0,0.0,0.0,0.0,0.0,0.0,0.0,0.0,0.0,0.0,0.0,0.0,0.0,0.0,0.0,0.0,0.0,0.0,0.0,0.0,0.0,0.0,0.0,0.0,0.0,0.0,0.0,0.0,0.0,0.0,-1.3449,-1.3807,-1.3142,-1.3033,-1.3033,-1.3033,-1.3033,-1.2358,-1.0762,0.0,0.0,0.0,0.0,0.0,0.0,0.0,0.0,0.0,0.0,0.0,0.0,0.0,0.0,0.0,0.0,0.0,0.0,0.0,0.0,0.0,0.0,0.0,0.0,0.0,0.0,0.0,0.0,0.0,0.0,0.0,0.0,0.0,0.0,0.0,0.0,0.0,0.0,0.0,0.0,0.0,0.0,0.0,0.0,0.0,0.0,0.0,0.0,0.0,0.0,0.0,0.0,0.0,0.0,0.0,0.0,0.0,0.0,0.0,0.0,0.0,0.0,0.0,0.0,0.0,0.0,0.0,0.0,0.0,0.0,0.0,0.0,0.0,0.0,0.0,0.0,0.0,0.0,0.0,0.0,0.0,0.0,0.0,0.0,0.0,0.0,0.0,0.0,0.0,0.0,0.0,0.0,0.0,0.0,0.0,0.0,0.0,0.0,0.0,0.0,0.0,0.0,-1.2972,-1.3856,-1.4269,-1.3413,-1.3347,-1.3347,-1.3347,-1.3347,-1.2632,-1.0995,0.0,0.0,0.0,0.0,0.0,0.0,0.0,0.0,0.0,0.0,0.0,0.0,0.0,0.0,0.0,0.0,0.0,0.0,0.0,0.0,0.0,0.0,0.0,0.0,0.0,0.0,0.0,0.0,0.0,0.0,0.0,0.0,0.0,0.0,0.0,0.0,0.0,0.0,0.0,0.0,0.0,0.0,0.0,0.0,0.0,0.0,0.0,0.0,0.0,0.0,0.0,0.0,0.0,0.0,0.0,0.0,0.0,0.0,0.0,0.0,0.0,0.0,0.0,0.0,0.0,0.0,0.0,0.0,0.0,0.0,0.0,0.0,0.0,0.0,0.0,0.0,0.0,0.0,0.0,0.0,0.0,0.0,0.0,0.0,0.0,0.0,0.0,0.0,0.0,0.0,0.0,0.0,0.0,0.0,0.0,0.0,0.0,0.0,0.0,0.0,0.0,0.0,-1.2582,-1.3684,-1.4324,-1.3696,-1.3606,-1.3606,-1.3606,-1.3606,-1.2734,0.0,0.0,0.0,0.0,0.0,0.0,0.0,0.0,0.0,0.0,0.0,0.0,0.0,0.0,0.0,0.0,0.0,0.0,0.0,0.0,0.0,0.0,0.0,0.0,0.0,0.0,0.0,0.0,0.0,0.0,0.0,0.0,0.0,0.0,0.0,0.0,0.0,0.0,0.0,0.0,0.0,0.0,0.0,0.0,0.0,0.0,0.0,0.0,0.0,0.0,0.0,0.0,0.0,0.0,0.0,0.0,0.0,0.0,0.0,0.0,0.0,0.0,0.0,0.0,0.0,0.0,0.0,0.0,0.0,0.0,0.0,0.0,0.0,0.0,0.0,0.0,0.0,0.0,0.0,0.0,0.0,0.0,0.0,0.0,0.0,0.0,0.0,0.0,0.0,0.0,0.0,0.0,0.0,0.0,0.0,0.0,0.0,0.0,0.0,0.0,0.0,0.0,0.0,-1.3226,-1.3796,-1.4179,-1.399,-1.3955,-1.3955,-1.3955,-1.3955,-1.316,-1.1289,0.0,0.0,0.0,0.0,0.0,0.0,0.0,0.0,0.0,0.0,0.0,0.0,0.0,0.0,0.0,0.0,0.0,0.0,0.0,0.0,0.0,0.0,0.0,0.0,0.0,0.0,0.0,0.0,0.0,0.0,0.0,0.0,0.0,0.0,0.0,0.0,0.0,0.0,0.0,0.0,0.0,0.0,0.0,0.0,0.0,0.0,0.0,0.0,0.0,0.0,0.0,0.0,0.0,0.0,0.0,0.0,0.0,0.0,0.0,0.0,0.0,0.0,0.0,0.0,0.0,0.0,0.0,0.0,0.0,0.0,0.0,0.0,0.0,0.0,0.0,0.0,0.0,0.0,0.0,0.0,0.0,0.0,0.0,0.0,0.0,0.0,0.0,0.0,0.0,0.0,0.0,0.0,0.0,0.0,0.0,0.0,0.0,0.0,0.0,0.0,0.0,0.0,-1.3127,-1.3709,-1.4088,-1.4088,-1.4088,-1.4088,-1.4088,-1.4088,-1.3474,-1.2044,0.0,0.0,0.0,0.0,0.0,0.0,0.0,0.0,0.0,0.0,0.0,0.0,0.0,0.0,0.0,0.0,0.0,0.0,0.0,0.0,0.0,0.0,0.0,0.0,0.0,0.0,0.0,0.0,0.0,0.0,0.0,0.0,0.0,0.0,0.0,0.0,0.0,0.0,0.0,0.0,0.0,0.0,0.0,0.0,0.0,0.0,0.0,0.0,0.0,0.0,0.0,0.0,0.0,0.0,0.0,0.0,0.0,0.0,0.0,0.0,0.0,0.0,0.0,0.0,0.0,0.0,0.0,0.0,0.0,0.0,0.0,0.0,0.0,0.0,0.0,0.0,0.0,0.0,0.0,0.0,0.0,0.0,0.0,0.0,0.0,0.0,0.0,0.0,0.0,0.0,0.0,0.0,0.0,0.0,0.0,0.0,0.0,0.0,0.0,0.0,0.0,0.0,-1.2679,-1.3521,-1.4168,-1.4168,-1.4168,-1.4168,-1.4168,-1.4168,-1.3816,-1.2884,0.0,0.0,0.0,0.0,0.0,0.0,0.0,0.0,0.0,0.0,0.0,0.0,0.0,0.0,0.0,0.0,0.0,0.0,0.0,0.0,0.0,0.0,0.0,0.0,0.0,0.0,0.0,0.0,0.0,0.0,0.0,0.0,0.0,0.0,0.0,0.0,0.0,0.0,0.0,0.0,0.0,0.0,0.0,0.0,0.0,0.0,0.0,0.0,0.0,0.0,0.0,0.0,0.0,0.0,0.0,0.0,0.0,0.0,0.0,0.0,-1.9647,-1.8417,0.0,0.0,0.0,0.0,0.0,0.0,0.0,0.0,0.0,0.0,0.0,0.0,0.0,0.0,0.0,0.0,0.0,0.0,0.0,0.0,0.0,0.0,0.0,0.0,0.0,0.0,0.0,0.0,0.0,0.0,0.0,0.0,0.0,0.0,0.0,0.0,0.0,0.0,0.0,0.0,-1.3185,-1.4117,-1.4821,-1.4821,-1.4821,-1.4821,-1.4821,-1.4821,-1.4302,-1.3186,-1.2933,0.0,0.0,0.0,0.0,0.0,0.0,0.0,0.0,0.0,0.0,0.0,0.0,0.0,0.0,0.0,0.0,0.0,0.0,0.0,0.0,0.0,0.0,0.0,0.0,0.0,0.0,0.0,0.0,0.0,0.0,0.0,0.0,0.0,0.0,0.0,0.0,0.0,0.0,0.0,0.0,0.0,0.0,0.0,0.0,0.0,0.0,0.0,0.0,0.0,0.0,0.0,0.0,0.0,0.0,0.0,0.0,0.0,0.0,0.0,-2.0526,-1.9786,0.0,0.0,0.0,0.0,0.0,0.0,0.0,0.0,0.0,0.0,0.0,0.0,0.0,0.0,0.0,0.0,0.0,0.0,0.0,0.0,0.0,0.0,0.0,0.0,0.0,0.0,0.0,0.0,0.0,0.0,0.0,0.0,0.0,0.0,0.0,0.0,0.0,0.0,0.0,0.0,-1.2931,-1.411,-1.5008,-1.5008,-1.5008,-1.5008,-1.5008,-1.5008,-1.4747,-1.4088,-1.3654,0.0,0.0,0.0,0.0,0.0,0.0,0.0,0.0,0.0,0.0,0.0,0.0,0.0,0.0,0.0,0.0,0.0,0.0,0.0,0.0,0.0,0.0,0.0,0.0,0.0,0.0,0.0,0.0,0.0,0.0,0.0,0.0,0.0,0.0,0.0,0.0,0.0,0.0,0.0,0.0,0.0,0.0,0.0,0.0,0.0,0.0,0.0,0.0,0.0,0.0,0.0,0.0,0.0,-2.1983,-2.2071,-2.2071,-2.2071,-2.2071,-2.2058,-2.1857,-2.1782,-2.1707,-2.0765,0.0,0.0,0.0,0.0,0.0,0.0,0.0,0.0,0.0,0.0,0.0,0.0,0.0,0.0,0.0,0.0,0.0,0.0,0.0,0.0,0.0,0.0,-1.5967,-1.7129,-1.7002,-1.6819,-1.735,0.0,0.0,0.0,0.0,0.0,0.0,0.0,0.0,0.0,0.0,0.0,-1.2563,-1.3981,-1.5162,-1.5162,-1.5162,-1.5162,-1.5162,-1.5162,-1.5142,-1.5089,-1.4355,-1.3175,0.0,0.0,0.0,0.0,0.0,0.0,0.0,0.0,0.0,0.0,0.0,0.0,0.0,0.0,0.0,0.0,0.0,0.0,0.0,0.0,0.0,0.0,0.0,0.0,0.0,0.0,0.0,0.0,0.0,0.0,0.0,0.0,-2.0087,-2.1142,0.0,0.0,0.0,0.0,0.0,0.0,0.0,0.0,0.0,0.0,0.0,0.0,0.0,-2.1305,-2.138,-2.2397,-2.2895,-2.2895,-2.3885,-2.4349,-2.4349,-2.4349,-2.4349,-2.4299,-2.3308,0.0,-2.2882,-2.2732,0.0,0.0,0.0,0.0,0.0,0.0,0.0,0.0,0.0,0.0,0.0,0.0,0.0,0.0,0.0,0.0,0.0,0.0,0.0,0.0,0.0,0.0,-1.9375,-1.9969,-1.948,-1.9189,-2.0342,-1.7808,-1.5918,-1.7876,-1.6137,-1.4582,0.0,0.0,0.0,0.0,0.0,0.0,-1.2837,-1.4456,-1.5712,-1.5712,-1.5712,-1.5712,-1.5712,-1.5712,-1.5611,-1.5357,-1.5231,-1.3844,-1.0862,-1.0989,0.0,0.0,0.0,0.0,0.0,0.0,0.0,0.0,0.0,0.0,0.0,0.0,0.0,0.0,0.0,0.0,0.0,0.0,0.0,0.0,0.0,0.0,0.0,0.0,0.0,0.0,0.0,0.0,0.0,-2.0526,-2.1506,-2.2293,-2.187,-2.1207,0.0,0.0,0.0,0.0,0.0,0.0,0.0,0.0,0.0,-2.2368,-2.3627,-2.4312,-2.4312,-2.5372,-2.5891,-2.5937,-2.6427,-2.6666,-2.6666,-2.6666,-2.6666,-2.664,-2.6138,-2.5891,-2.5741,-2.3885,-2.3108,-2.2947,0.0,0.0,0.0,0.0,-1.8041,-1.7841,-1.712,-1.7264,-1.773,-1.7496,0.0,0.0,0.0,0.0,0.0,0.0,0.0,-1.7363,-1.8281,-1.9394,-2.0459,-2.1182,-2.1025,-2.0898,-2.1475,-1.9668,-1.8291,-1.9482,-1.7894,-1.622,-1.5893,-1.5441,0.0,0.0,0.0,-1.4581,-1.3864,-1.4963,-1.5784,-1.5784,-1.5784,-1.5784,-1.5784,-1.5784,-1.5724,-1.5651,-1.5638,-1.4319,-1.1461,-1.1472,-1.0025,0.0,0.0,0.0,0.0,0.0,0.0,0.0,0.0,0.0,0.0,0.0,0.0,0.0,0.0,0.0,0.0,0.0,0.0,0.0,0.0,0.0,0.0,0.0,0.0,0.0,0.0,0.0,0.0,-2.1493,-2.241,-2.3233,-2.2874,-2.2272,0.0,0.0,0.0,0.0,0.0,0.0,-2.2778,-2.354,-2.4086,-2.4362,-2.6013,-2.6914,-2.6914,-2.7695,-2.8109,-2.8109,-2.8109,-2.8109,-2.8109,-2.8109,-2.8109,-2.8109,-2.8109,-2.8109,-2.7908,-2.539,-2.4374,-2.4241,-2.2995,-2.1973,-2.1093,-1.9916,-1.9347,-1.9091,-1.8539,-1.8808,-1.9377,-1.9102,-1.8769,-1.8496,-1.8442,0.0,0.0,0.0,0.0,-1.8711,-1.9668,-2.04,-2.1114,-2.1728,-2.1963,-2.2041,-2.2041,-2.1103,-2.0333,-2.058,-1.9052,-1.7377,-1.6331,-1.6195,0.0,-1.3353,-1.4377,-1.5161,-1.4502,-1.5237,-1.5784,-1.5784,-1.5784,-1.5784,-1.5784,-1.5784,-1.5683,-1.5337,-1.5289,-1.4124,-1.1507,-1.1308,-1.0012,-0.7377,0.0,0.0,0.0,0.0,0.0,0.0,0.0,0.0,0.0,0.0,0.0,0.0,0.0,0.0,0.0,0.0,0.0,0.0,0.0,0.0,0.0,0.0,0.0,0.0,0.0,0.0,0.0,0.0,0.0,-2.3766,-2.4808,0.0,0.0,0.0,0.0,-2.3866,-2.4318,-2.5109,-2.6185,-2.6298,-2.6813,-2.7821,-2.7959,-2.8021,-2.8021,-2.8084,-2.8109,-2.8109,-2.8109,-2.8109,-2.8109,-2.8109,-2.8109,-2.8109,-2.8109,-2.8109,-2.8097,-2.7934,-2.7858,-2.7637,-2.5481,-2.4614,-2.4179,-2.0969,-2.0508,-2.135,-2.0202,-2.0654,-2.1719,-2.1699,-2.084,-1.96,-1.8398,-1.7998,0.0,0.0,-1.8867,-1.9834,-1.9893,-2.0859,-2.1826,-2.1875,-2.2197,-2.248,-2.248,-2.1787,-2.1032,-2.0738,-1.8672,-1.6814,-1.6392,0.0,-1.4203,-1.2988,-1.3823,-1.4459,-1.4148,-1.5117,-1.5784,-1.5784,-1.5784,-1.5784,-1.5784,-1.5784,-1.5289,-1.407,-1.4022,-1.2813,-1.019,-1.0087,-0.9432,-0.7994,-0.7378,0.0,0.0,0.0,0.0,0.0,0.0,0.0,0.0,0.0,0.0,0.0,0.0,0.0,0.0,0.0,0.0,0.0,0.0,0.0,0.0,0.0,0.0,0.0,0.0,0.0,0.0,0.0,0.0,-2.5418,-2.5959,0.0,-2.5657,-2.5959,-2.6034,-2.5644,-2.6427,-2.7105,-2.7494,-2.7858,-2.8235,-2.8587,-2.9001,-2.9189,-2.9189,-2.9189,-2.9189,-2.9189,-2.9189,-2.9189,-2.9189,-2.9189,-2.9189,-2.9189,-2.9189,-2.8771,-2.8106,-2.8106,-2.7668,-2.6926,-2.5498,-2.4493,-2.3623,-2.1788,-2.1441,-2.1789,-2.1351,-2.1494,-2.1885,-2.1885,-2.1572,-2.1094,-2.0644,-2.0508,-2.0557,-2.083,-2.124,-2.165,-2.1873,-2.2301,-2.2652,-2.2652,-2.2769,-2.2684,-2.1914,-2.1497,-2.0761,-1.9077,-1.8639,-1.8292,-1.7637,-1.6991,-1.5951,-1.4161,-1.473,-1.5278,-1.5224,-1.5571,-1.5784,-1.5784,-1.5784,-1.5784,-1.5784,-1.5784,-1.5242,-1.3974,-1.3926,-1.2711,-1.0096,-0.9998,-0.9361,-0.8038,-0.7779,-0.7297,0.0,0.0,0.0,0.0,0.0,0.0,0.0,0.0,0.0,0.0,0.0,0.0,0.0,0.0,0.0,0.0,0.0,0.0,0.0,0.0,0.0,0.0,0.0,0.0,0.0,-2.3809,-2.533,-2.6625,-2.6939,-2.7052,-2.7052,-2.718,-2.7329,-2.7329,-2.8147,-2.8674,-2.8674,-2.9026,-2.9176,-2.9176,-2.9591,-2.9792,-2.9792,-2.998,-3.0068,-3.0068,-3.0244,-3.0331,-3.0331,-3.0331,-3.0131,-2.9804,-2.9603,-2.8879,-2.7806,-2.7613,-2.6926,-2.5853,-2.5167,-2.4484,-2.3669,-2.2663,-2.2305,-2.2305,-2.2305,-2.2305,-2.2305,-2.2305,-2.2305,-2.2305,-2.2305,-2.2305,-2.2363,-2.2646,-2.2682,-2.274,-2.3023,-2.2818,-2.2492,-2.2492,-2.2183,-2.1676,-2.0845,-2.0386,-1.9738,-1.8547,-1.8608,-1.8395,-1.7036,-1.6629,-1.5867,-1.4046,-1.4269,-1.4643,-1.4643,-1.499,-1.5244,-1.5244,-1.5591,-1.5784,-1.5784,-1.5464,-1.4842,-1.3951,-1.3121,-1.1858,-1.0083,-0.9372,-0.8585,-0.7736,-0.7539,-0.7149,-0.6556,0.0,0.0,0.0,0.0,0.0,0.0,0.0,0.0,0.0,0.0,0.0,0.0,0.0,0.0,0.0,0.0,0.0,0.0,0.0,0.0,0.0,0.0,0.0,-2.4004,-2.5493,-2.6738,-2.7268,-2.7821,-2.816,-2.816,-2.8599,-2.8913,-2.8913,-2.9478,-2.9804,-2.9817,-2.9779,-2.9779,-2.9792,-2.9792,-2.9792,-2.9792,-3.0357,-3.0633,-3.0645,-3.1148,-3.1386,-3.1386,-3.1386,-3.0821,-2.975,-2.9189,-2.8281,-2.7223,-2.6683,-2.581,-2.4787,-2.4798,-2.4787,-2.4617,-2.3507,-2.3091,-2.3091,-2.3062,-2.3071,-2.3091,-2.3091,-2.3091,-2.3091,-2.3091,-2.3091,-2.3091,-2.3091,-2.3091,-2.3091,-2.3047,-2.2173,-2.1293,-2.1248,-2.035,-1.9497,-1.9443,-1.8519,-1.8021,-1.9171,-1.8457,-1.6923,-1.4593,-1.4184,-1.3748,-1.2585,-1.2412,0.0,-1.2412,-1.3427,-1.4142,-1.4142,-1.5124,-1.5744,-1.5778,-1.4756,-1.4,-1.3861,-1.1578,-1.0143,-0.9968,-0.8118,-0.7125,-0.7125,-0.659,-0.6569,-0.7095,0.0,0.0,0.0,0.0,0.0,0.0,0.0,0.0,0.0,0.0,0.0,0.0,0.0,0.0,0.0,0.0,0.0,0.0,0.0,0.0,0.0,-2.5435,-2.6515,-2.5908,-2.6549,-2.7406,-2.836,-2.8976,-2.9327,-2.9327,-2.9465,-2.9553,-2.9553,-2.9704,-2.9967,-3.0369,-2.9616,-2.9365,-2.9779,-2.9792,-2.9792,-2.9792,-3.0721,-3.1173,-3.1173,-3.1323,-3.1386,-3.1386,-3.1386,-3.0749,-2.9634,-2.9475,-2.8253,-2.6401,-2.6279,-2.555,-2.4516,-2.4716,-2.4296,-2.3507,-2.3222,-2.3091,-2.3013,-2.2441,-2.2627,-2.3091,-2.3091,-2.3091,-2.3091,-2.3091,-2.3091,-2.3091,-2.3091,-2.3091,-2.2906,-2.2031,-2.1569,-2.1069,-2.0215,-1.9716,-1.9268,-1.8365,-1.7941,-1.7515,-1.6911,-1.6567,-1.6416,-1.6675,-1.5933,-1.5237,-1.491,-1.4856,-1.4856,-1.4856,-1.5144,-1.5351,-1.5351,-1.4877,-1.491,-1.5711,-1.4756,-1.3642,-1.2517,-1.1808,-1.0594,-0.8619,-0.8025,-0.7746,-0.7746,-0.7159,-0.6937,0.0,0.0,0.0,0.0,0.0,0.0,0.0,0.0,0.0,0.0,0.0,0.0,0.0,0.0,0.0,0.0,0.0,0.0,0.0,0.0,0.0,0.0,-2.6904,-2.8047,-2.792,-2.8171,-2.8574,-2.9214,-2.9591,-2.988,-3.0118,-3.0143,-3.0231,-3.0444,-3.047,-3.0608,-3.0922,-3.0319,-2.9905,-2.9792,-3.0231,-3.0244,-2.9792,-3.1085,-3.1738,-3.1738,-3.1976,-3.2102,-3.2102,-3.2102,-3.1481,-3.0318,-2.9593,-2.8236,-2.6484,-2.5716,-2.5001,-2.4411,0.0,0.0,0.0,0.0,-2.3091,-2.3023,-2.2578,-2.2734,-2.3091,-2.3091,-2.3091,-2.3091,-2.3091,-2.2721,-2.2301,-2.2301,-2.1902,-2.1477,-2.1306,-2.0528,-1.972,-1.9525,-1.8718,-1.7762,-1.7084,-1.6535,-1.6094,-1.5873,-1.5431,0.0,-1.6671,-1.5879,-1.493,-1.4429,-1.4306,-1.4306,-1.4306,-1.479,-1.5097,-1.5097,-1.493,-1.4857,-1.4994,-1.3932,0.0,0.0,0.0,-0.9528,-0.7709,-0.7614,0.0,0.0,0.0,-0.6895,-0.7095,-0.6797,0.0,0.0,-0.6614,-0.539,0.0,0.0,0.0,0.0,0.0,0.0,0.0,0.0,0.0,0.0,0.0,0.0,0.0,0.0,0.0,0.0,-2.7823,-2.8674,-2.9729,-2.988,-2.988,-2.988,-2.988,-3.0093,-3.0658,-3.0708,-3.0896,-3.1348,-3.1386,-3.1411,-3.1486,-3.1373,0.0,0.0,0.0,-3.0934,-2.998,-3.1524,-3.2303,-3.2315,-3.2689,-3.2896,-3.2884,-3.2754,-3.2079,-3.0901,-2.933,-2.7999,-2.6834,-2.5199,-2.457,-2.4551,-2.4453,-2.4189,-2.3799,-2.332,-2.3159,-2.3218,-2.3071,0.0,0.0,-2.311,-2.3091,-2.3091,-2.3091,-2.2217,-2.1192,-2.1192,-2.0284,-1.9554,-2.0562,-1.9211,-1.7844,-1.8859,-1.739,-1.5784,-1.5784,-1.5017,-1.4589,-1.5584,-1.499,-1.4616,-1.5651,-1.497,-1.3921,-1.2859,-1.2699,-1.2699,-1.2699,-1.3627,-1.4282,-1.4282,-1.509,0.0,-1.401,-1.2793,-1.1976,-1.1696,-0.946,-0.7901,-0.7241,-0.7196,-0.6997,-0.6511,-0.6501,-0.6719,-0.7196,-0.7196,-0.7469,-0.7965,-0.6956,-0.6023,0.0,0.0,0.0,0.0,0.0,0.0,0.0,0.0,0.0,0.0,0.0,0.0,0.0,0.0,0.0,-2.6685,-2.826,-2.9691,-3.0357,-3.0457,-3.0457,-3.0457,-3.0457,-3.067,-3.1185,-3.1248,-3.1286,-3.1386,-3.1386,-3.1587,-3.2026,-3.1235,-3.0859,-3.1072,-3.1286,-3.1286,-3.1085,-3.2303,-3.2918,-3.2905,-3.2003,0.0,-3.1545,-3.0553,-2.9443,-2.8315,-2.7961,-2.7124,-2.5952,-2.5583,-2.544,-2.5362,-2.4651,-2.4365,-2.4199,-2.3437,-2.3584,-2.4023,-2.2988,-2.3086,-2.3603,-2.3208,-2.3091,-2.3091,-2.3091,-2.2233,0.0,-2.1275,-2.0395,-1.9272,-1.8558,-1.8032,-1.7491,-1.6706,-1.615,-1.5784,-1.5784,-1.5651,-1.5558,-1.5738,-1.5598,-1.5518,-1.5744,-1.5638,-1.5371,-1.5184,-1.5098,-1.5098,-1.5098,-1.5351,-1.5491,-1.5491,-1.4856,-1.4301,-1.3951,-1.2793,-1.162,-1.0436,-0.8897,-0.7959,-0.7816,-0.7816,-0.7762,-0.7651,-0.7648,-0.7705,-0.7816,-0.7816,-0.7877,-0.7985,-0.7756,-0.703,0.0,0.0,0.0,0.0,0.0,0.0,0.0,0.0,0.0,0.0,0.0,-2.5282,0.0,0.0,-2.7176,-2.8022,-2.8821,-2.9754,-3.0846,-3.0997,-3.0997,-3.0997,-3.0997,-3.121,-3.175,-3.18,-3.1926,-3.2215,-3.2227,-3.2353,-3.2629,-3.2403,-3.2114,-3.1813,-3.2616,-3.2792,-3.224,-3.3345,-3.3575,-3.2914,-3.2246,-3.1585,-3.0928,-3.0323,-2.9722,-2.9115,-2.8502,-2.7834,-2.7208,-2.6379,-2.5937,-2.5645,-2.5206,-2.4941,-2.4668,-2.4023,-2.4053,-2.4326,-2.3682,-2.374,-2.4033,-2.3603,-2.3467,-2.3428,-2.3159,-2.1829,-2.0332,-2.0332,-1.9007,-1.7572,-1.7639,-1.7167,-1.6704,-1.6736,-1.6244,-1.5784,-1.5784,-1.5784,-1.5784,-1.5784,-1.5784,-1.5784,-1.5784,-1.5784,-1.5784,-1.5784,-1.5784,-1.5784,-1.5784,-1.5784,-1.5784,-1.5784,-1.5304,-1.4401,-1.3015,-1.1155,-0.9738,-0.9049,-0.8382,-0.7988,-0.7988,-0.7988,-0.7988,-0.7988,-0.7988,-0.7988,-0.7988,-0.7988,-0.7988,-0.7988,-0.7988,-0.7285,0.0,0.0,0.0,0.0,0.0,0.0,0.0,0.0,-2.5837,-2.6038,-2.6251,-2.6621,-2.733,-2.7374,-2.7822,-2.9358,-2.9474,-2.9905,-3.1348,-3.1549,-3.1587,-3.17,-3.1612,-3.1763,-3.2328,-3.2478,-3.2729,-3.3206,-3.3332,-3.3395,-3.3395,-3.3822,-3.3646,-3.2729,-3.401,-3.4299,-3.3407,-3.4274,-3.404,-3.2699,-3.2453,-3.1639,-3.0332,-3.01,-2.9954,-2.9905,-2.8893,-2.8445,-2.8325,-2.7022,-2.6299,-2.5927,-2.5849,-2.5644,-2.5321,-2.4834,-2.4631,-2.4658,-2.457,-2.4541,-2.4473,-2.4043,-2.3906,-2.3848,-2.3452,-2.1581,-1.9523,-1.9523,-1.7639,-1.5911,-1.6955,-1.6481,-1.5984,-1.7082,-1.6527,-1.5784,-1.5784,-1.5784,-1.5784,-1.5784,-1.5784,-1.5784,-1.5784,-1.5784,-1.5784,-1.5784,-1.5784,-1.5784,-1.5784,-1.5784,-1.5784,-1.5784,-1.5784,-1.4758,-1.2139,-0.9505,-0.7988,-0.7988,-0.7988,-0.7988,-0.7988,-0.7988,-0.7988,-0.7988,-0.7988,-0.7988,-0.7988,-0.7988,-0.7988,-0.7988,-0.7988,-0.7434,-2.4431,-2.3213,-2.2836,-2.3841,-2.5234,-2.6386,0.0,0.0,-2.8963,-2.8021,-2.8624,-2.9072,-2.8177,-2.918,-2.9891,-2.9128,-3.0191,-3.1348,-3.2026,-3.2127,-3.2315,-3.283,-3.2441,-3.234,-3.2918,-3.342,-3.3746,-3.3809,-3.4261,-3.4537,-3.4537,-3.46,-3.4575,-3.4405,-3.4625,-3.4618,-3.4537,-3.4618,-3.404,-3.2699,-3.1592,-3.0343,-2.8982,-2.7885,-2.7399,-2.7399,-2.7257,-2.7206,-2.7206,-2.7014,-2.6914,-2.6836,-2.6465,-2.6279,-2.6191,-2.5752,-2.5538,-2.5479,-2.5137,-2.5047,-2.4969,-2.4492,-2.4346,-2.4336,-2.4287,-2.2254,-2.0017,-2.0017,-1.7956,-1.5824,-1.5972,-1.5913,-1.5839,-1.5994,-1.592,-1.5784,-1.5784,-1.5784,-1.5784,-1.5784,-1.5784,-1.5784,-1.5784,-1.5784,-1.5784,-1.5784,-1.5784,-1.5784,-1.5784,-1.5784,-1.5784,-1.5784,-1.5784,-1.4758,-1.2139,-0.9505,-0.7988,-0.7988,-0.7988,-0.7988,-0.7988,-0.7988,-0.7988,-0.7988,-0.7988,-0.7988,-0.7988,-0.7988,-0.7988,-0.7988,-0.7988,-0.7939,-2.5975,-2.5561,0.0,0.0,-2.7645,-2.8435,-2.8435,-2.9126,-2.9654,-2.9189,-2.9716,-3.0099,-2.9665,-2.9853,-3.0273,0.0,-3.0888,-3.1348,-3.2554,-3.2717,-3.2918,-3.3483,-3.2228,-3.1601,-3.2511,-3.2961,-3.2916,-3.2285,-3.2317,-3.2359,-3.2359,-3.2688,-3.2853,-3.2853,-3.3147,-3.33,-3.33,-3.33,-3.2609,-3.128,-3.078,-2.9842,-2.8496,-2.8006,-2.7764,-2.7764,-2.7764,-2.7617,-2.7393,-2.7393,-2.7246,-2.6992,-2.6816,-2.6602,-2.6338,-2.5849,-2.5693,-2.5664,-2.5527,-2.5459,-2.5381,-2.4941,-2.4249,-2.3531,-2.3298,-2.1328,-1.9159,-1.8964,-1.7541,-1.6046,-1.5872,-1.5784,-1.5784,-1.5784,-1.5784,-1.5784,-1.5784,-1.5784,-1.5784,-1.5784,-1.5784,-1.5784,-1.5784,-1.5784,-1.5784,-1.5784,-1.5784,-1.5784,-1.5784,-1.5784,-1.5534,-1.4752,-1.398,-1.277,-1.0974,-0.9069,-0.7988,-0.7988,-0.7988,-0.7988,-0.7988,-0.7988,-0.7988,-0.7988,-0.7988,-0.7988,-0.7988,-0.7988,-0.7988,-0.7988,-0.7988,-0.7988,-2.6515,0.0,0.0,-2.8311,-2.9139,-2.9591,-2.9754,-2.9792,-2.9829,-2.9993,-3.0331,-3.0658,-3.0809,-3.062,-3.0846,-3.2026,-3.17,-3.1712,-3.2948,-3.3206,-3.3245,-3.3015,-3.2091,-3.1467,-3.1289,-3.1747,-3.1902,-3.1707,-3.1358,-3.112,-3.112,-3.1504,-3.1705,-3.1705,-3.2101,-3.228,-3.228,-3.228,-3.1633,-3.0317,-3.0317,-2.9608,-2.8291,-2.8291,-2.8291,-2.8291,-2.8291,-2.8125,-2.7894,-2.7894,-2.7656,-2.7353,-2.7236,-2.7012,-2.6689,-2.625,-2.5888,-2.5693,-2.5693,-2.5693,-2.5586,-2.4948,-2.4005,-2.305,-2.2426,-2.0565,-1.8639,-1.8458,-1.7463,-1.6326,-1.6025,-1.5952,-1.5932,-1.5798,-1.5784,-1.5784,-1.5784,-1.5784,-1.5784,-1.5784,-1.5784,-1.5784,-1.5784,-1.5784,-1.5784,-1.5784,-1.5784,-1.5784,-1.5784,-1.5784,-1.5289,-1.4022,-1.2716,-1.1365,-1.0096,-0.8775,-0.7988,-0.7988,-0.7988,-0.7988,-0.7988,-0.7988,-0.7988,-0.7988,-0.7988,-0.7988,-0.7988,-0.7988,-0.7988,-0.7988,-0.7988,-0.7988,-2.5347,0.0,-2.539,-2.7595,-2.8549,-2.9063,-2.9666,-2.9792,-2.9942,-3.0482,-3.0608,-3.0771,-3.1273,-3.1788,-3.2152,-3.2202,-3.2654,-3.3061,-3.3111,-3.3533,-3.3108,-3.0944,-3.253,-3.2537,0.0,-2.9767,-3.1154,-3.328,-3.27,-3.2236,-3.2236,-3.2258,-3.2258,-3.2258,-3.228,-3.228,-3.228,-3.228,-3.1633,-3.0317,-3.0317,-2.9608,-2.8291,-2.8291,-2.8291,-2.8291,-2.8291,-2.8281,-2.8271,-2.8271,-2.8262,-2.8213,-2.7803,-2.7689,-2.762,-2.7139,-2.6455,-2.5693,-2.5693,-2.5693,-2.5479,-2.4187,-2.3723,-2.3416,-2.2131,-2.0525,-1.9177,-1.917,-1.7953,-1.6627,-1.6333,-1.6259,-1.6186,-1.5899,-1.5784,-1.5784,-1.5784,-1.5784,-1.5784,-1.5784,-1.5784,-1.5784,-1.5784,-1.5784,-1.5784,-1.5784,-1.5784,-1.5784,-1.5784,-1.5784,-1.5289,-1.4022,-1.2716,-1.1365,-1.0096,-0.8775,-0.7988,-0.7988,-0.7988,-0.7988,-0.7988,-0.7988,-0.7988,-0.7988,-0.7988,-0.7988,-0.7988,-0.7988,-0.7988,-0.7988,-0.7988,-0.7988,-2.5398,0.0,-2.6804,-2.8285,-2.9089,-2.9654,-3.0206,-3.0331,-3.0482,-3.1022,-3.0557,-3.0118,-3.0294,-3.0168,-3.0281,-3.1035,-3.1009,-3.1224,-3.2156,-3.1331,-3.0754,-3.1133,-3.0043,0.0,0.0,0.0,0.0,-3.0521,-2.9973,-2.966,-2.966,-2.966,-2.966,-2.966,-2.966,-2.966,-2.966,-2.966,-2.9408,-2.8953,-2.8953,-2.8751,-2.8291,-2.8291,-2.8291,-2.8291,-2.8291,-2.8291,-2.8291,-2.8291,-2.8291,-2.8281,-2.8135,-2.791,-2.7699,-2.75,-2.708,-2.6543,-2.6269,-2.5357,-2.4304,-2.384,-2.2466,-2.0896,-2.0436,-1.9295,-1.8109,-1.7907,-1.7476,-1.6985,-1.664,-1.656,-1.6486,-1.6192,-1.6126,-1.6072,-1.5872,-1.5784,-1.5784,-1.5784,-1.5784,-1.5784,-1.5784,-1.5784,-1.5486,-1.4657,-1.5242,-1.5784,-1.5784,-1.5045,-1.4028,-1.2721,-1.1409,-1.0096,-0.8775,-0.8237,-0.7988,-0.7988,-0.7988,-0.7988,-0.7988,-0.7988,-0.7988,-0.7988,-0.7988,-0.7988,-0.7988,-0.7988,-0.7988,-0.7988,-0.7988,-0.7988,-2.59,-2.6728,-2.7595,-2.8913,-2.9666,-3.0181,-3.0532,-3.0758,-3.1047,-3.1574,-3.1135,-3.0545,-3.0156,-2.993,-2.9993,-3.052,-3.0633,-3.0935,-3.1767,-3.1119,-3.0471,-3.0317,-2.9083,-2.8873,0.0,0.0,0.0,-2.9063,-2.8279,-2.7832,-2.7832,-2.7832,-2.7978,-2.8281,-2.8291,-2.8291,-2.8291,-2.8291,-2.8291,-2.8291,-2.8291,-2.8291,-2.8291,-2.8291,-2.8125,-2.7851,-2.8154,-2.8115,-2.7861,-2.8164,-2.8291,-2.8291,-2.8291,-2.8125,-2.7891,-2.7891,-2.7284,-2.645,-2.6431,-2.5308,-2.3822,-2.317,-2.1456,-1.9524,-1.902,-1.8297,-1.7542,-1.7407,-1.7353,-1.7286,-1.6941,-1.6867,-1.6794,-1.65,-1.6346,-1.6219,-1.6032,-1.5905,-1.5784,-1.5784,-1.5784,-1.5784,-1.5784,-1.5439,-1.4848,-1.4022,-1.4172,-1.4418,-1.4418,-1.3686,-1.2668,-1.1361,-1.0485,-0.946,-0.8137,-0.7988,-0.7988,-0.7988,-0.7988,-0.7988,-0.7988,-0.7988,-0.7988,-0.7988,-0.7988,-0.7988,-0.7988,-0.7988,-0.7988,-0.7988,-0.7988,-0.7988,-2.664,-2.7341,-2.7808,-2.9428,-3.0231,-3.0633,-3.0683,-3.1085,-3.1562,-3.2039,-3.2064,-3.1662,-3.0557,-3.0746,-3.0922,-3.0465,-3.1213,-3.1852,-3.1715,-3.2488,-3.188,0.0,0.0,0.0,0.0,0.0,0.0,-2.8904,-2.7784,-2.708,-2.708,-2.708,-2.7451,-2.8271,-2.8291,-2.8291,-2.8291,-2.8291,-2.8291,-2.8291,-2.8291,-2.8291,-2.8291,-2.8291,-2.7851,-2.7129,-2.7939,-2.7832,-2.7139,-2.7959,-2.8291,-2.8291,-2.8291,-2.8291,-2.8291,-2.8237,-2.7022,-2.5528,-2.605,-2.5305,-2.379,-2.2147,-2.0656,-1.9272,-1.7996,-1.7582,-1.7582,-1.7582,-1.7582,-1.7515,-1.7293,-1.7226,-1.7146,-1.68,-1.652,-1.6362,-1.6299,-1.6059,-1.5852,-1.5852,-1.5791,-1.5784,-1.573,-1.4704,-1.3872,-1.3728,-1.2619,-1.1848,-1.1896,-1.1848,-1.1365,-1.0145,-0.9953,-0.9361,-0.8088,-0.7988,-0.7988,-0.7988,-0.7988,-0.7988,-0.7988,-0.7988,-0.7988,-0.7988,-0.7988,-0.7988,-0.7988,-0.7988,-0.7988,-0.7988,-0.7988,-0.7988,-2.6101,-2.7557,-2.9352,-3.0193,-3.0507,-3.0821,-3.1625,-3.1901,-3.1813,-3.116,-3.0018,-2.8687,-2.7155,-2.6666,0.0,-2.7286,-2.7627,0.0,-2.862,-2.8221,0.0,-2.7342,0.0,-2.7955,-2.8046,-2.8284,0.0,0.0,-2.7806,-2.7969,-2.7969,-2.7969,-2.8066,-2.8281,-2.8291,-2.8291,-2.8291,-2.8291,-2.8291,-2.8291,-2.8291,-2.8291,-2.8291,-2.8291,-2.8174,-2.7978,-2.8203,-2.8174,-2.7988,-2.8203,-2.8291,-2.8291,-2.8291,-2.8291,-2.8184,-2.7051,-2.6372,-2.5766,-2.4471,-2.2772,-2.1092,-2.0647,-1.9411,-1.8042,-1.7681,-1.7582,-1.7582,-1.7582,-1.7582,-1.7562,-1.7548,-1.7521,-1.7454,-1.7159,-1.7032,-1.6918,-1.664,-1.6366,-1.6159,-1.6159,-1.5979,-1.5486,-1.4561,-1.4118,-1.3247,-1.1307,-1.0681,-1.0828,-1.1799,-1.1072,-1.0342,-1.0047,-0.9118,-0.8382,-0.8038,-0.7988,-0.7988,-0.7988,-0.7988,-0.7988,-0.7988,-0.7988,-0.7988,-0.7988,-0.7988,-0.7988,-0.7988,-0.7988,-0.7988,-0.7988,-0.7988,-0.7988,-2.7469,-2.8599,-2.993,-3.0482,-3.0783,-3.0997,-3.1122,-3.1336,-3.1135,-2.9792,-2.8762,-2.7595,-2.59,-2.54,-2.5461,0.0,0.0,0.0,-2.7507,-2.7269,-2.701,0.0,-2.7012,0.0,-2.8213,-2.8291,-2.8096,0.0,-2.7676,-2.7734,-2.7734,-2.7734,-2.79,-2.8281,-2.8291,-2.8291,-2.8291,-2.8291,-2.8291,-2.8291,-2.8291,-2.8291,-2.8291,-2.8291,-2.8086,-2.7754,-2.8125,-2.8076,-2.7764,-2.8135,-2.8291,-2.8291,-2.8291,-2.8291,-2.8121,-2.6653,-2.5654,-2.4841,-2.3093,-2.1201,-1.9609,-2.0012,-1.9063,-1.7762,-1.7622,-1.7582,-1.7582,-1.7582,-1.7582,-1.7582,-1.7582,-1.7582,-1.7542,-1.7427,-1.7293,-1.7159,-1.6934,-1.6667,-1.6426,-1.6299,-1.5683,-1.4889,-1.404,-1.2958,-1.1697,-1.0243,-0.9509,-0.9361,-1.0092,-0.9554,-0.9118,-0.9118,-0.8432,-0.7988,-0.7988,-0.7988,-0.7988,-0.7988,-0.7988,-0.7988,-0.7988,-0.7988,-0.7988,-0.7988,-0.7988,-0.7988,-0.7988,-0.7988,-0.7988,-0.7988,-0.7988,-0.7988,-2.9252,-2.9628,-2.993,-3.0482,-3.0997,-3.116,-3.0306,-3.0319,-3.0055,-2.8436,0.0,-2.7208,-2.5635,-2.5639,-2.5897,-2.5969,0.0,-2.7128,-2.7007,-2.7587,-2.776,-2.6898,-2.6943,-2.7353,-2.8213,-2.8193,-2.8174,-2.8281,-2.7598,-2.7187,-2.7187,-2.7187,-2.7529,-2.8271,-2.8291,-2.8291,-2.8291,-2.8291,-2.8291,-2.8291,-2.8291,-2.8291,-2.8291,-2.8291,-2.7891,-2.7226,-2.7969,-2.7871,-2.7246,-2.7988,-2.8291,-2.8291,-2.8291,-2.8174,-2.7843,-2.6327,-2.482,-2.3319,-2.1813,-2.0302,-1.9054,-1.9715,-1.9048,-1.7942,-1.7722,-1.7615,-1.7582,-1.7582,-1.7582,-1.7582,-1.7582,-1.7582,-1.7582,-1.7582,-1.744,-1.7259,-1.7259,-1.6974,-1.668,-1.6386,-1.5232,-1.419,-1.3773,-1.1619,-0.9953,-0.9756,-0.8726,-0.7988,-0.7988,-0.7988,-0.7988,-0.7988,-0.7988,-0.7988,-0.7988,-0.7988,-0.7988,-0.7988,-0.7988,-0.7988,-0.7988,-0.7988,-0.7988,-0.7988,-0.7988,-0.7988,-0.7988,-0.7988,-0.7988,-0.7988,-0.7988,-0.7988,-2.8047,-2.8725,-2.993,-3.0482,-3.0997,-3.1461,-3.1738,-3.0834,0.0,0.0,-2.6666,-2.5112,-2.4263,-2.5347,-2.5913,-2.4479,-2.5596,-2.6026,-2.4219,-2.5258,-2.6113,0.0,-2.6582,-2.7353,-2.8213,-2.7656,0.0,0.0,-2.8154,-2.8066,-2.8066,-2.8066,-2.8144,-2.8291,-2.8291,-2.8291,-2.8291,-2.8291,-2.8291,-2.8291,-2.8291,-2.8291,-2.8291,-2.8291,-2.8213,-2.8076,-2.8223,-2.8203,-2.8086,-2.8232,-2.8291,-2.8291,-2.8291,-2.7555,-2.6318,-2.4765,-2.3263,-2.1756,-2.0314,-1.9557,-1.929,-1.9154,-1.8603,-1.7982,-1.7929,-1.7789,-1.7582,-1.7582,-1.7582,-1.7582,-1.7582,-1.7582,-1.7582,-1.7582,-1.7542,-1.7508,-1.7508,-1.7333,-1.7032,-1.6687,-1.5369,-1.3946,-1.2869,-1.118,-0.9608,-0.8531,-0.8137,-0.7988,-0.7988,-0.7988,-0.7988,-0.7988,-0.7988,-0.7988,-0.7988,-0.7988,-0.7988,-0.7988,-0.7988,-0.7988,-0.7988,-0.7988,-0.7988,-0.7988,-0.7988,-0.7988,-0.7988,-0.7988,-0.7988,-0.7988,-0.7988,-0.7988,-2.8097,-2.8725,-2.993,-3.0482,-3.0809,-3.0591,-2.9003,0.0,0.0,0.0,-2.2977,-2.2237,-2.2154,-2.2649,0.0,-2.3384,-2.3992,0.0,0.0,0.0,0.0,0.0,0.0,-2.7178,0.0,-2.7256,-2.7187,-2.7598,-2.7627,-2.7822,-2.8271,-2.8291,-2.8291,-2.8291,-2.8291,-2.8291,-2.8291,-2.8291,-2.8291,-2.8291,-2.8291,-2.8291,-2.8291,-2.8291,-2.8291,-2.8291,-2.8291,-2.8164,-2.7988,-2.8203,-2.7708,-2.6814,-2.7084,-2.6218,-2.471,-2.3207,-2.2202,-2.1365,-1.9924,-1.9424,-1.9345,-1.9199,-1.8758,-1.825,-1.8042,-1.7829,-1.7582,-1.7582,-1.7582,-1.7582,-1.7582,-1.7582,-1.7582,-1.7582,-1.7582,-1.7582,-1.7582,-1.7475,-1.7074,-1.5998,-1.4645,-1.3134,-1.1601,-1.0192,-0.8976,-0.8371,-0.8269,-0.8269,-0.8269,-0.8269,-0.8211,-0.8005,-0.7988,-0.7988,-0.7988,-0.7988,-0.7988,-0.7988,-0.7988,-0.7988,-0.7988,-0.7988,-0.7988,-0.7988,-0.7988,-0.7988,-0.7988,-0.7988,-0.7988,-0.7988,-0.7988,-0.7988,-2.8649,-2.9114,-2.9892,-3.0331,-3.052,-2.9747,-2.6493,-2.5527,0.0,0.0,-2.0126,-2.0024,-2.061,-2.067,-2.1096,0.0,-2.2694,-2.3015,0.0,0.0,0.0,0.0,0.0,0.0,-2.7275,-2.7129,0.0,-2.7275,-2.7285,-2.7588,-2.8252,-2.8291,-2.8291,-2.8291,-2.8291,-2.8291,-2.8291,-2.8291,-2.8291,-2.8291,-2.8291,-2.8291,-2.8291,-2.8291,-2.8291,-2.8291,-2.795,-2.7603,-2.7247,-2.733,-2.6422,-2.4996,-2.5448,-2.4654,-2.3207,-2.2032,-2.1422,-2.0981,-1.9815,-1.9424,-1.9424,-1.9424,-1.9011,-1.8531,-1.8175,-1.7929,-1.7669,-1.7602,-1.7582,-1.7582,-1.7582,-1.7582,-1.7582,-1.7582,-1.7582,-1.7582,-1.7582,-1.7582,-1.7081,-1.5421,-1.3961,-1.2451,-1.0784,-0.9384,-0.8482,-0.8482,-0.8482,-0.8482,-0.8482,-0.8482,-0.8394,-0.816,-0.8086,-0.8086,-0.8086,-0.8086,-0.8069,-0.8092,-0.8039,-0.8022,-0.7992,-0.7988,-0.7988,-0.7988,-0.7988,-0.7988,-0.7988,-0.7988,-0.7988,-0.7988,-0.7988,-0.7988,-2.939,-2.9716,-2.9804,-2.9854,-3.0244,-2.9934,-2.7429,0.0,0.0,-2.257,-2.0855,-2.0006,-2.0973,-2.204,-2.2765,0.0,0.0,-2.2768,0.0,0.0,0.0,0.0,0.0,0.0,-2.8096,-2.7471,-2.7344,-2.8115,-2.8174,-2.8213,-2.8291,-2.8291,-2.8291,-2.8291,-2.8291,-2.8291,-2.8291,-2.8291,-2.8291,-2.8291,-2.8291,-2.8291,-2.8291,-2.8291,-2.8291,-2.8237,-2.6879,-2.6099,-2.5691,-2.4665,-2.3938,-2.3599,-2.3903,-2.3095,-2.1813,-2.1643,-2.0752,-1.9591,-1.9424,-1.9424,-1.9424,-1.9424,-1.9152,-1.8831,-1.8537,-1.8237,-1.7896,-1.7662,-1.7582,-1.7582,-1.7582,-1.7582,-1.7582,-1.7582,-1.7582,-1.7582,-1.7582,-1.7582,-1.714,-1.5654,-1.407,-1.2547,-1.1115,-0.9565,-0.8482,-0.8482,-0.8482,-0.8482,-0.8482,-0.8482,-0.8472,-0.8445,-0.8442,-0.8442,-0.8442,-0.8442,-0.8387,-0.8258,-0.8248,-0.8187,-0.7995,-0.7988,-0.7988,-0.7988,-0.7988,-0.7988,-0.7988,-0.7988,-0.7988,-0.7988,-0.7988,-0.7988,-2.7794,-2.8812,-2.9624,-2.8937,-2.8925,-2.8005,-2.3887,0.0,-2.2181,-1.9232,-1.8218,-1.818,-1.9117,-1.9497,-1.9943,0.0,0.0,0.0,0.0,0.0,0.0,0.0,0.0,0.0,0.0,0.0,-2.7158,-2.75,-2.7529,-2.7744,-2.8262,-2.8291,-2.8291,-2.8291,-2.8291,-2.8291,-2.8291,-2.8291,-2.8291,-2.8291,-2.8291,-2.8291,-2.8291,-2.7394,-2.6997,-2.6888,-2.538,-2.4367,-2.3862,-2.3803,-2.2933,-2.1721,-2.2266,-2.1593,-2.0256,-2.0256,-1.9924,-1.9424,-1.9424,-1.9424,-1.9424,-1.9424,-1.9285,-1.9132,-1.8844,-1.8362,-1.7969,-1.7896,-1.7722,-1.7582,-1.7582,-1.7582,-1.7582,-1.7582,-1.7582,-1.7582,-1.7582,-1.6876,-1.5849,-1.4395,-1.2925,-1.1419,-0.9922,-0.9171,-0.8757,-0.8757,-0.8757,-0.8757,-0.8757,-0.8757,-0.8757,-0.8757,-0.8591,-0.8482,-0.8482,-0.8482,-0.8459,-0.8401,-0.8397,-0.837,-0.8309,-0.8306,-0.8306,-0.8306,-0.8306,-0.8306,-0.8306,-0.8306,-0.8306,-0.8306,-0.8306,-0.8306,-2.639,-2.7582,-2.8712,-2.8215,-2.7569,-2.5889,0.0,0.0,-2.0128,-1.6931,-1.6514,-1.696,-1.7852,-1.7666,-1.7939,0.0,0.0,-2.0693,-2.291,0.0,0.0,0.0,0.0,-2.7637,0.0,-2.7393,-2.7393,-2.7393,-2.7393,-2.7656,-2.8262,-2.8291,-2.8291,-2.8291,-2.8291,-2.8291,-2.8291,-2.8291,-2.8291,-2.8291,-2.8291,-2.7999,-2.7481,-2.6553,-2.581,-2.5212,-2.3772,-2.2806,-2.2247,-2.2418,-2.1544,-2.0108,-2.0714,-2.0314,-1.9424,-1.9424,-1.9424,-1.9424,-1.9424,-1.9424,-1.9424,-1.9424,-1.9424,-1.9383,-1.9118,-1.8704,-1.8215,-1.8042,-1.7822,-1.7582,-1.7582,-1.7582,-1.7582,-1.7582,-1.7582,-1.747,-1.7041,-1.6121,-1.4877,-1.2994,-1.181,-1.0621,-0.9154,-0.8885,-0.8885,-0.8885,-0.8885,-0.8885,-0.8885,-0.8885,-0.8885,-0.8885,-0.8747,-0.8618,-0.8618,-0.8618,-0.8598,-0.8554,-0.855,-0.853,-0.8482,-0.8482,-0.8482,-0.8482,-0.8482,-0.8482,-0.8482,-0.8482,-0.8482,-0.8482,-0.8482,-0.8482,-2.5829,-2.6368,-2.6801,-2.7855,-2.6318,-2.3899,0.0,-2.0266,-1.9145,-1.7117,-1.6697,-1.696,-1.7852,-1.7666,-1.7939,-1.9639,0.0,0.0,-2.1719,0.0,0.0,0.0,0.0,-2.6904,-2.8164,-2.8281,-2.8281,-2.8281,-2.8281,-2.8281,-2.8291,-2.8291,-2.8291,-2.8291,-2.8291,-2.8291,-2.8291,-2.8291,-2.8291,-2.8291,-2.8291,-2.7336,-2.5628,-2.5973,-2.5114,-2.3373,-2.2168,-2.1448,-2.1052,-1.9908,-1.9243,-1.8951,-1.9303,-1.9424,-1.9424,-1.9424,-1.9424,-1.9424,-1.9424,-1.9424,-1.9424,-1.9424,-1.9424,-1.9424,-1.9424,-1.9152,-1.8791,-1.8155,-1.7822,-1.7582,-1.7582,-1.7582,-1.7582,-1.7582,-1.7582,-1.7199,-1.5743,-1.5417,-1.4556,-1.1701,-1.1105,-1.0621,-0.9154,-0.8885,-0.8885,-0.8885,-0.8885,-0.8885,-0.8885,-0.8885,-0.8885,-0.8885,-0.8881,-0.8878,-0.8878,-0.8878,-0.8814,-0.8716,-0.871,-0.8638,-0.8489,-0.8482,-0.8482,-0.8482,-0.8482,-0.8482,-0.8482,-0.8482,-0.8482,-0.8482,-0.8482,-0.8482,-2.201,-2.2763,-2.331,-2.2896,-2.2174,-2.0935,-1.8228,-1.7868,-1.768,-1.6125,-1.6064,-1.6631,-1.7793,-1.7666,-1.7939,-1.9639,-1.9912,0.0,0.0,0.0,0.0,-2.625,-2.7158,-2.7851,0.0,0.0,-2.7656,-2.8252,-2.7754,-2.7676,-2.8262,-2.8291,-2.8291,-2.8291,-2.8291,-2.8291,-2.8291,-2.8291,-2.778,-2.6825,-2.6825,-2.5847,-2.4054,-2.3371,-2.2624,-2.1836,-2.0622,-1.9917,-1.9597,-1.9469,-1.9192,-1.8951,-1.9252,-1.9424,-1.9424,-1.9424,-1.9424,-1.9424,-1.9424,-1.9424,-1.9424,-1.9424,-1.9424,-1.9424,-1.9424,-1.9158,-1.8741,-1.8155,-1.7822,-1.7582,-1.7582,-1.7582,-1.7582,-1.7582,-1.6823,-1.5956,-1.5524,-1.3852,-1.2186,-1.1269,-1.0296,-0.9427,-0.8992,-0.8885,-0.8885,-0.8885,-0.8885,-0.8885,-0.8885,-0.8885,-0.8885,-0.8885,-0.8885,-0.8885,-0.8885,-0.8885,-0.8861,-0.8814,-0.8811,-0.8845,-0.8798,-0.8794,-0.8794,-0.8794,-0.8794,-0.8794,-0.8794,-0.8794,-0.8794,-0.8794,-0.8794,-0.8794,0.0,-1.9891,-2.0422,-2.0145,-1.9512,0.0,0.0,-1.6357,-1.629,-1.5762,-1.6173,-1.6838,-1.7627,-1.7949,-1.834,-1.9082,-2.0019,-2.1055,0.0,0.0,0.0,-2.6143,0.0,0.0,0.0,-2.7812,-2.7715,-2.8252,-2.7803,-2.7734,-2.8262,-2.8291,-2.8291,-2.8291,-2.8291,-2.8291,-2.8291,-2.7726,-2.6997,-2.61,-2.5489,-2.4293,-2.2528,-2.1879,-2.1131,-2.0307,-1.9685,-1.9265,0.0,-1.9292,-1.9259,-1.9112,-1.9292,-1.9424,-1.9424,-1.9424,-1.9424,-1.9424,-1.9424,-1.9424,-1.9424,-1.9424,-1.9424,-1.9424,-1.9424,-1.9158,-1.8824,-1.8295,-1.7996,-1.7729,-1.7615,-1.7582,-1.7477,-1.6876,-1.6068,-1.5091,-1.4019,-1.2349,-1.0945,-1.0406,-0.9537,-0.8885,-0.8885,-0.8885,-0.8885,-0.8885,-0.8885,-0.8885,-0.8885,-0.8885,-0.8885,-0.8885,-0.8885,-0.8885,-0.8885,-0.8885,-0.8885,-0.8885,-0.8885,-0.8885,-0.8885,-0.8885,-0.8885,-0.8885,-0.8885,-0.8885,-0.8885,-0.8885,-0.8885,-0.8885,-0.8885,-0.8885,0.0,-1.7533,0.0,0.0,0.0,0.0,-1.6473,-1.5566,0.0,-1.5987,-1.6838,-1.7455,-1.7572,-1.8613,-1.918,-1.8291,-2.0244,-2.1465,0.0,-2.2305,0.0,0.0,-2.6299,0.0,-2.8125,-2.8252,-2.8291,-2.8291,-2.8291,-2.8291,-2.8291,-2.8291,-2.8237,-2.8121,-2.8121,-2.8121,-2.8121,-2.6662,-2.5846,-2.5683,-2.4297,-2.2656,-2.0866,-2.1244,-2.0523,-1.8938,-1.9239,-1.9424,-1.9424,-1.9424,-1.9424,-1.9424,-1.9424,-1.9424,-1.9424,-1.9424,-1.9424,-1.9424,-1.9424,-1.9424,-1.9424,-1.9424,-1.9307,-1.9249,-1.9366,-1.9158,-1.8865,-1.8577,-1.8277,-1.7922,-1.755,-1.7417,-1.7094,-1.5583,-1.5144,-1.4341,-1.1701,-1.0996,-1.0566,-0.9154,-0.8885,-0.8885,-0.8885,-0.8885,-0.8885,-0.8885,-0.8885,-0.8885,-0.8885,-0.8885,-0.8885,-0.8885,-0.8885,-0.8885,-0.8885,-0.8885,-0.8885,-0.8885,-0.8885,-0.8885,-0.8885,-0.8885,-0.8885,-0.8885,-0.8885,-0.8885,-0.8885,-0.8885,-0.8885,-0.8885,-0.8885,-0.8885,-1.3866,0.0,-1.4615,-1.4879,-1.4594,-1.4241,0.0,-1.4023,-1.4424,-1.6652,0.0,-1.7783,-1.9082,-2.0391,-2.0879,-1.9658,-2.083,-2.1894,-2.1904,0.0,0.0,-2.5508,-2.7002,-2.7812,-2.7353,-2.791,-2.8291,-2.8291,-2.8291,-2.8291,-2.8291,-2.8291,-2.7789,-2.6662,-2.6599,-2.6599,-2.6599,-2.5096,-2.3541,-2.1969,-2.206,-2.0929,-1.8775,-1.9566,-1.9537,-1.8938,-1.9239,-1.9424,-1.9424,-1.9424,-1.9424,-1.9424,-1.9424,-1.9424,-1.9424,-1.9424,-1.9424,-1.9424,-1.9424,-1.9424,-1.9424,-1.9424,-1.8583,-1.7806,-1.9004,-1.9158,-1.8865,-1.8577,-1.8277,-1.77,-1.6301,-1.5902,-1.5577,-1.4126,-1.294,-1.1914,-1.1269,-1.0186,-0.932,-0.8992,-0.8885,-0.8885,-0.8885,-0.8885,-0.8885,-0.8885,-0.8885,-0.8885,-0.8885,-0.8885,-0.8885,-0.8885,-0.8885,-0.8885,-0.8885,-0.8885,-0.8885,-0.8885,-0.8885,-0.8885,-0.8885,-0.8885,-0.8885,-0.8885,-0.8885,-0.8885,-0.8885,-0.8885,-0.8885,-0.8885,-0.8885,-0.8885,-1.2905,-1.3184,-1.3643,-1.4238,-1.4065,-1.3955,-1.4541,0.0,0.0,0.0,0.0,0.0,0.0,-2.0215,-2.0518,-2.0,-2.0684,0.0,0.0,0.0,-2.5508,-2.5664,-2.6502,-2.709,-2.7021,-2.7793,-2.8291,-2.8291,-2.8291,-2.8291,-2.8291,-2.7672,-2.6943,-2.6155,-2.4765,-2.4369,-2.5041,-2.3543,-2.2078,-2.0715,-2.0619,-1.9787,-1.8263,-1.9018,-1.9279,-1.9118,-1.9011,-1.9118,-1.9403,-1.9078,-1.9125,-1.9424,-1.9424,-1.9424,-1.9424,-1.9424,-1.9424,-1.9424,-1.9424,-1.9424,-1.9307,-1.8525,-1.7683,-1.7026,-1.7155,-1.706,-1.6986,-1.7397,-1.6833,-1.5855,-1.4704,-1.4449,-1.4073,-1.262,-1.1701,-1.0891,-1.0241,-0.9482,-0.8885,-0.8885,-0.8885,-0.8885,-0.8885,-0.8885,-0.8885,-0.8885,-0.8885,-0.8885,-0.8885,-0.8885,-0.8885,-0.8885,-0.8885,-0.8885,-0.8885,-0.8885,-0.8885,-0.8885,-0.8885,-0.8885,-0.8885,-0.8885,-0.8885,-0.8885,-0.8885,-0.8885,-0.8885,-0.8885,-0.8885,-0.8885,-0.8885,-0.8885,-1.2905,-1.3232,-1.3896,-1.5107,-1.4689,-1.4367,-1.5782,0.0,0.0,0.0,0.0,0.0,0.0,-2.001,0.0,0.0,0.0,0.0,-2.4004,-2.4873,-2.5381,-2.5654,-2.5918,-2.6308,-2.6953,-2.7793,-2.8291,-2.8291,-2.8067,-2.795,-2.795,-2.6554,-2.5654,-2.5426,-2.2919,-2.2089,-2.3103,-2.187,-2.0984,-2.035,-1.9685,-1.9058,-1.851,-1.9098,-1.9424,-1.9397,-1.8844,-1.8905,-1.9383,-1.8831,-1.8918,-1.9424,-1.9424,-1.9424,-1.9424,-1.9424,-1.9424,-1.9366,-1.9127,-1.9004,-1.8765,-1.7149,-1.6492,-1.6074,-1.4955,-1.4247,-1.4099,-1.5295,-1.4802,-1.3779,-1.3148,-1.2965,-1.2566,-1.1105,-1.0781,-1.0402,-0.9154,-0.8885,-0.8885,-0.8885,-0.8885,-0.8885,-0.8885,-0.8885,-0.8885,-0.8885,-0.8885,-0.8885,-0.8885,-0.8885,-0.8885,-0.8885,-0.8885,-0.8885,-0.8885,-0.8885,-0.8885,-0.8885,-0.8885,-0.8885,-0.8885,-0.8885,-0.8885,-0.8885,-0.8885,-0.8885,-0.8885,-0.8885,-0.8885,-0.8885,-0.8885,-0.8885,-1.2905,-1.3447,-1.4231,-1.5186,-1.4502,-1.4033,-1.5713,0.0,0.0,0.0,0.0,0.0,0.0,-2.3271,-2.3637,0.0,0.0,-2.3071,0.0,0.0,-2.6074,-2.5723,-2.7012,-2.7666,-2.707,-2.7793,-2.8291,-2.8291,-2.7168,-2.6436,-2.6436,-2.4994,-2.3599,-2.2307,-2.1862,-2.1088,-2.0097,-1.9873,-1.9457,-1.8816,-1.9199,-1.9058,-1.851,-1.9098,-1.9424,-1.9366,-1.9272,-1.9285,-1.9417,-1.933,-1.9343,-1.9424,-1.9424,-1.9424,-1.9424,-1.9424,-1.9424,-1.9185,-1.7864,-1.7384,-1.7085,-1.5488,-1.4063,-1.3168,-1.4242,-1.2693,-1.0857,-1.224,-1.327,-1.3532,-1.1995,-1.1546,-1.1051,-0.9588,-0.9265,-0.9154,-0.8937,-0.8885,-0.8885,-0.8885,-0.8885,-0.8885,-0.8885,-0.8885,-0.8885,-0.8885,-0.8885,-0.8885,-0.8885,-0.8885,-0.8885,-0.8885,-0.8885,-0.8885,-0.8885,-0.8885,-0.8885,-0.8885,-0.8885,-0.8885,-0.8885,-0.8885,-0.8885,-0.8885,-0.8885,-0.8885,-0.8885,-0.8885,-0.8885,-0.8885,-0.8885,-0.8885,-1.2905,-1.333,-1.425,-1.6309,-1.5498,-1.4951,-1.7875,0.0,0.0,0.0,0.0,0.0,0.0,0.0,-2.2051,-2.1426,0.0,-2.5146,-2.4883,-2.5928,-2.665,-2.6455,-2.7129,-2.712,-2.5924,-2.6627,-2.678,-2.5936,-2.5215,-2.4875,-2.4875,-2.3431,-2.2315,-2.1643,-2.0809,-2.009,-1.9424,-1.9424,-1.9072,-1.8497,-1.9085,-1.9058,-1.851,-1.9098,-1.9424,-1.941,-1.9032,-1.9078,-1.9339,-1.9025,-1.9085,-1.9424,-1.9424,-1.9424,-1.9424,-1.9424,-1.9424,-1.9185,-1.7566,-1.7026,-1.6609,-1.4118,-1.2813,-1.2157,-1.2037,-1.0959,-0.9926,-1.0628,-1.1122,-1.1278,-1.0364,-1.0036,-0.9754,-0.9047,-0.8885,-0.8885,-0.8885,-0.8885,-0.8885,-0.8885,-0.8885,-0.8885,-0.8885,-0.8885,-0.8885,-0.8885,-0.8885,-0.8885,-0.8885,-0.8885,-0.8885,-0.8885,-0.8885,-0.8885,-0.8885,-0.8885,-0.8885,-0.8885,-0.8885,-0.8885,-0.8885,-0.8885,-0.8885,-0.8885,-0.8885,-0.8885,-0.8885,-0.8885,-0.8885,-0.8885,-0.8885,-0.8885,-1.2905,-1.3184,-1.4141,-1.6748,0.0,-1.5576,-1.9803,-1.7461,0.0,0.0,0.0,0.0,0.0,-2.1074,0.0,-2.2074,-2.4763,-2.6402,-2.5639,-2.6555,-2.7201,-2.682,-2.6768,-2.6177,-2.4712,-2.519,-2.5041,-2.3877,-2.3487,-2.3263,-2.3263,-2.187,-2.1088,-2.1088,-1.9982,-1.9424,-1.9424,-1.9424,-1.9138,-1.8704,-1.9152,-1.9189,-1.8711,-1.9165,-1.9424,-1.9339,-1.8891,-1.8951,-1.939,-1.8885,-1.8965,-1.9424,-1.9424,-1.9424,-1.9366,-1.9004,-1.8823,-1.8525,-1.655,-1.5897,-1.5424,-1.2569,-1.1615,-1.1438,-1.0179,-0.9822,-0.9822,-0.9822,-0.9635,-0.9398,-0.9303,-0.9072,-0.8885,-0.8885,-0.8885,-0.8885,-0.8885,-0.8885,-0.8885,-0.8885,-0.8885,-0.8885,-0.8885,-0.8885,-0.8885,-0.8885,-0.8885,-0.8885,-0.8885,-0.8885,-0.8885,-0.8885,-0.8885,-0.8885,-0.8885,-0.8885,-0.8885,-0.8885,-0.8885,-0.8885,-0.8885,-0.8885,-0.8885,-0.8885,-0.8885,-0.8885,-0.8885,-0.8885,-0.8885,-0.8885,-0.8885,-0.8885,-1.2905,-1.3184,-1.3848,-1.5254,-1.459,0.0,-1.9991,-1.811,0.0,-2.1484,0.0,0.0,0.0,-2.29,-2.2193,-2.1889,-2.407,-2.562,-2.5106,-2.6883,-2.7693,-2.6354,-2.6182,-2.5574,-2.4025,-2.3908,-2.3933,-2.3822,-2.254,-2.1756,-2.1756,-2.0371,-1.9533,-1.9533,-1.9482,-1.9424,-1.9424,-1.9424,-1.9403,-1.9363,-1.9403,-1.9403,-1.9363,-1.941,-1.9424,-1.9424,-1.9325,-1.9383,-1.9424,-1.9325,-1.939,-1.9424,-1.9424,-1.9424,-1.9249,-1.7741,-1.7144,-1.6733,-1.3641,-1.2573,-1.2273,-1.0539,-1.0001,-0.994,-0.9819,-0.9822,-0.9822,-0.9822,-0.971,-0.9557,-0.9405,-0.9154,-0.8885,-0.8885,-0.8885,-0.8885,-0.8885,-0.8885,-0.8885,-0.8885,-0.8885,-0.8885,-0.8885,-0.8885,-0.8885,-0.8885,-0.8885,-0.8885,-0.8885,-0.8885,-0.8885,-0.8885,-0.8885,-0.8885,-0.8885,-0.8885,-0.8885,-0.8885,-0.8885,-0.8885,-0.8885,-0.8885,-0.8885,-0.8885,-0.8885,-0.8885,-0.8885,-0.8885,-0.8885,-0.8885,-0.8885,-0.8885,-1.2212,-1.283,-1.4072,-1.6436,-1.542,0.0,0.0,-1.8848,-1.8301,-2.2773,-2.208,0.0,0.0,0.0,-2.1044,-2.1915,-2.3049,-2.3835,-2.3879,-2.4828,-2.527,-2.4765,-2.4654,-2.41,-2.2589,-2.242,-2.204,-2.1152,-2.0537,-2.0256,-2.0256,-1.97,-1.9424,-1.9424,-1.9424,-1.9424,-1.9424,-1.9424,-1.9424,-1.9424,-1.9424,-1.9424,-1.9424,-1.9424,-1.9424,-1.9424,-1.9424,-1.9424,-1.9424,-1.9424,-1.9424,-1.9307,-1.8286,-1.7923,-1.7689,-1.6085,-1.5488,-1.5192,-1.2988,-1.2213,-1.1916,-1.0301,-0.9822,-0.9822,-0.9822,-0.9822,-0.9822,-0.9822,-0.972,-0.9574,-0.9422,-0.9228,-0.9049,-0.8905,-0.8885,-0.8885,-0.8885,-0.8885,-0.8885,-0.8885,-0.8885,-0.8885,-0.8885,-0.8885,-0.8885,-0.8885,-0.8885,-0.8885,-0.8885,-0.8885,-0.8885,-0.8885,-0.8885,-0.8885,-0.8885,-0.8885,-0.8885,-0.8885,-0.8885,-0.8885,-0.8885,-0.8885,-0.8885,-0.8885,-0.8885,-0.8885,-0.8885,-0.8885,-0.8885,-0.8885,-0.8885,-0.8885,-1.1937,-1.2399,-1.3457,0.0,0.0,0.0,-1.8627,-1.8871,-1.9168,-2.2484,-2.2083,-2.0938,-2.0403,0.0,0.0,0.0,-2.1711,-2.2397,-2.2557,-2.3267,-2.3654,-2.3151,-2.3095,-2.254,-2.1031,-2.0923,-2.0479,-1.9482,-1.9424,-1.9424,-1.9424,-1.9424,-1.9424,-1.9424,-1.9424,-1.9424,-1.9424,-1.9424,-1.9424,-1.9424,-1.9424,-1.9424,-1.9424,-1.9424,-1.9424,-1.9424,-1.9424,-1.9424,-1.9424,-1.9424,-1.912,-1.8525,-1.7443,-1.6668,-1.602,-1.4421,-1.3825,-1.3591,-1.1976,-1.1438,-1.1257,-1.0179,-0.9822,-0.9822,-0.9822,-0.9822,-0.9822,-0.9822,-0.9751,-0.9642,-0.9493,-0.9303,-0.9173,-0.8974,-0.8885,-0.8885,-0.8885,-0.8885,-0.8885,-0.8885,-0.8885,-0.8885,-0.8885,-0.8885,-0.8885,-0.8885,-0.8885,-0.8885,-0.8885,-0.8885,-0.8885,-0.8885,-0.8885,-0.8885,-0.8885,-0.8885,-0.8885,-0.8885,-0.8885,-0.8885,-0.8885,-0.8885,-0.8885,-0.8885,-0.8885,-0.8885,-0.8885,-0.8885,-0.8885,-0.8885,-0.8885,-0.8885,-1.2272,-1.1921,-1.1768,0.0,0.0,0.0,-1.6565,-1.8056,-1.9027,-2.0247,-2.2162,-2.2863,-2.0176,-2.1144,0.0,-1.8565,-2.0008,-2.1426,-2.1186,-2.2656,-2.3207,-2.1749,-2.1586,-2.1038,-1.9533,-1.9424,-1.9424,-1.9424,-1.9424,-1.9424,-1.9424,-1.9424,-1.9424,-1.9424,-1.9424,-1.9424,-1.9424,-1.9424,-1.9424,-1.9424,-1.9424,-1.9424,-1.9424,-1.9424,-1.9424,-1.9424,-1.9424,-1.9424,-1.9424,-1.9366,-1.846,-1.7026,-1.6968,-1.5961,-1.4361,-1.2753,-1.2157,-1.1976,-1.0361,-0.9822,-0.9822,-0.9822,-0.9822,-0.9822,-0.9822,-0.9822,-0.9822,-0.9822,-0.9822,-0.9788,-0.9646,-0.9384,-0.9176,-0.8974,-0.8885,-0.8885,-0.8885,-0.8885,-0.8885,-0.8885,-0.8885,-0.8885,-0.8885,-0.8885,-0.8885,-0.8885,-0.8885,-0.8885,-0.8885,-0.8885,-0.8885,-0.8885,-0.8885,-0.8885,-0.8885,-0.8885,-0.8885,-0.8885,-0.8885,-0.8885,-0.8885,-0.8885,-0.8885,-0.8885,-0.8885,-0.8885,-0.8885,-0.8885,-0.8885,-0.8885,-0.8885,-0.8885,-1.1579,-1.1792,0.0,-1.354,0.0,0.0,0.0,-1.7034,0.0,0.0,-2.028,-1.9894,-1.8969,-1.9079,-1.914,-1.8542,-1.912,-1.9723,-1.9889,-2.0372,-2.0544,-2.009,-2.0033,-1.9866,-1.9424,-1.9424,-1.9424,-1.9424,-1.9424,-1.9424,-1.9424,-1.9424,-1.9424,-1.9424,-1.9424,-1.9424,-1.9424,-1.9424,-1.9424,-1.9424,-1.9424,-1.9424,-1.9424,-1.9424,-1.9424,-1.9424,-1.9424,-1.9424,-1.9307,-1.8169,-1.7443,-1.6786,-1.4529,-1.3347,-1.2693,-1.1137,-1.0539,-1.0418,-0.994,-0.9822,-0.9822,-0.9822,-0.9822,-0.9822,-0.9822,-0.9822,-0.9822,-0.9822,-0.9822,-0.9788,-0.9646,-0.9544,-0.9408,-0.915,-0.9011,-0.8885,-0.8885,-0.8885,-0.8885,-0.8885,-0.8885,-0.8885,-0.8885,-0.8885,-0.8885,-0.8885,-0.8885,-0.8885,-0.8885,-0.8885,-0.8885,-0.8885,-0.8885,-0.8885,-0.8885,-0.8885,-0.8885,-0.8885,-0.8885,-0.8885,-0.8885,-0.8885,-0.8885,-0.8885,-0.8885,-0.8885,-0.8885,-0.8885,-0.8885,-0.8885,-0.8885,-0.8885,-1.1569,-1.1764,0.0,-1.4065,-1.4019,-1.3854,-1.5169,0.0,0.0,0.0,-1.9529,-1.8858,-1.8212,-1.8483,-1.8747,-1.8608,-1.8755,-1.9025,-1.9325,-1.9424,-1.9424,-1.9424,-1.9424,-1.9424,-1.9424,-1.9424,-1.9424,-1.9424,-1.9424,-1.9424,-1.9424,-1.9424,-1.9424,-1.9424,-1.9424,-1.9424,-1.9424,-1.9424,-1.9424,-1.9424,-1.9424,-1.9424,-1.9424,-1.9424,-1.9424,-1.9366,-1.8706,-1.8467,-1.8344,-1.6733,-1.566,-1.4886,-1.2988,-1.1796,-1.114,-1.0179,-0.9822,-0.9822,-0.9822,-0.9822,-0.9822,-0.9822,-0.9822,-0.9822,-0.9822,-0.9822,-0.9822,-0.9822,-0.9822,-0.9802,-0.9717,-0.9652,-0.9534,-0.9282,-0.9086,-0.9008,-0.8895,-0.8885,-0.8885,-0.8885,-0.8885,-0.8885,-0.8885,-0.8885,-0.8885,-0.8885,-0.8885,-0.8885,-0.8885,-0.8885,-0.8885,-0.8885,-0.8885,-0.8885,-0.8885,-0.8885,-0.8885,-0.8885,-0.8885,-0.8885,-0.8885,-0.8885,-0.8885,-0.8885,-0.8885,-0.8885,-0.8885,-0.8994,-0.9025,-0.9025,-0.9086,-0.9113,-1.205,-1.1813,-1.2013,-1.4636,-1.3836,0.0,-1.478,-1.5749,-1.6849,-1.8993,0.0,-1.9007,-1.7865,-1.8908,-1.965,-1.8698,-1.8771,-1.9058,-1.939,-1.9424,-1.9424,-1.9424,-1.9424,-1.9424,-1.9424,-1.9424,-1.9424,-1.9424,-1.9424,-1.9424,-1.9424,-1.9424,-1.9424,-1.9424,-1.9424,-1.9424,-1.9424,-1.9424,-1.9424,-1.9424,-1.9424,-1.9424,-1.9424,-1.9424,-1.9307,-1.9068,-1.7507,-1.6786,-1.6668,-1.5015,-1.3526,-1.2213,-1.2037,-1.108,-0.9822,-0.9822,-0.9822,-0.9822,-0.9822,-0.9822,-0.9822,-0.9822,-0.9822,-0.9822,-0.9822,-0.9822,-0.9822,-0.9822,-0.9822,-0.9822,-0.9822,-0.9727,-0.9554,-0.932,-0.9231,-0.9173,-0.8988,-0.8892,-0.8885,-0.8885,-0.8885,-0.8885,-0.8885,-0.8885,-0.8885,-0.8885,-0.8885,-0.8885,-0.8885,-0.8885,-0.8885,-0.8885,-0.8885,-0.8885,-0.8885,-0.8885,-0.8885,-0.8885,-0.8895,-0.8902,-0.8902,-0.8892,-0.8888,-0.8902,-0.8902,-0.8908,-0.8925,-0.911,-0.9231,-0.9234,-0.9317,-0.9381,-1.1988,-1.1864,0.0,-1.2186,-1.2665,-1.3661,-1.6167,-1.6641,-1.6857,-1.7811,-1.7664,-1.7459,-1.7816,-1.8401,-1.8864,-1.8841,-1.9078,-1.9292,-1.9417,-1.9424,-1.9424,-1.9424,-1.9424,-1.9424,-1.9424,-1.9424,-1.9424,-1.9424,-1.9424,-1.9424,-1.9424,-1.9424,-1.9424,-1.9424,-1.9424,-1.9424,-1.9424,-1.9424,-1.9424,-1.9424,-1.9424,-1.9424,-1.9424,-1.9424,-1.8706,-1.7449,-1.5784,-1.5133,-1.5015,-1.3407,-1.2513,-1.2097,-1.0838,-1.0119,-0.9822,-0.9822,-0.9822,-0.9822,-0.9822,-0.9822,-0.9822,-0.9822,-0.9822,-0.9822,-0.9822,-0.9822,-0.9822,-0.9822,-0.9822,-0.9822,-0.9822,-0.9798,-0.973,-0.9554,-0.9327,-0.92,-0.9169,-0.9018,-0.8885,-0.8885,-0.8885,-0.8885,-0.8885,-0.8885,-0.8885,-0.8885,-0.8885,-0.8885,-0.8885,-0.8885,-0.8885,-0.8885,-0.8885,-0.8885,-0.8885,-0.8885,-0.8885,-0.8885,-0.9045,-0.9163,-0.9163,-0.8998,-0.8991,-0.9103,-0.9163,-0.9167,-0.9286,-0.9317,-0.9334,-0.9334,-0.9364,-0.9381,-1.151,0.0,0.0,-1.3287,0.0,-1.5244,-1.662,-1.7034,-1.7215,-1.7522,-1.7335,-1.7315,-1.7876,-1.829,-1.8584,-1.8878,-1.9172,-1.9424,-1.9424,-1.9424,-1.9424,-1.9424,-1.9424,-1.9424,-1.9424,-1.9424,-1.9424,-1.9424,-1.9424,-1.9424,-1.9424,-1.9424,-1.9424,-1.9424,-1.9424,-1.9424,-1.9424,-1.9424,-1.9004,-1.8227,-1.8227,-1.7864,-1.7155,-1.7929,-1.739,-1.5784,-1.4123,-1.3471,-1.3352,-1.1736,-1.108,-1.0959,-1.0122,-0.9822,-0.9822,-0.9822,-0.9822,-0.9822,-0.9822,-0.9822,-0.9822,-0.9822,-0.9822,-0.9822,-0.9822,-0.9822,-0.9822,-0.9822,-0.9822,-0.9822,-0.9822,-0.9822,-0.9802,-0.9727,-0.9537,-0.9334,-0.9241,-0.9093,-0.9022,-0.8895,-0.8885,-0.8885,-0.8885,-0.8322,-0.7595,-0.6924,-0.6813,-0.7035,-0.7762,-0.7204,-0.7315,-0.8771,-0.8266,-0.818,-0.8979,-0.9042,-0.9072,-0.9147,-0.9222,-0.932,-0.932,-0.9191,-0.9184,-0.9316,-0.932,-0.9303,-0.9381,-0.9456,-0.949,-0.9493,-0.9561,-0.9591,-1.0915,0.0,-1.3266,-1.5251,-1.6005,0.0,-1.6767,-1.7114,-1.7402,-1.7549,-1.7582,-1.7695,-1.8056,-1.8323,-1.8604,-1.8945,-1.9205,-1.9424,-1.9424,-1.9424,-1.9424,-1.9424,-1.9424,-1.9424,-1.9424,-1.9424,-1.9424,-1.9424,-1.9424,-1.9424,-1.9424,-1.9424,-1.9424,-1.9424,-1.9424,-1.9424,-1.9424,-1.9127,-1.8344,-1.7026,-1.6727,-1.5725,-1.4242,-1.5542,-1.5429,-1.4128,-1.2453,-1.1796,-1.1675,-1.0361,-0.9822,-0.9822,-0.9822,-0.9822,-0.9822,-0.9822,-0.9822,-0.9822,-0.9822,-0.9822,-0.9822,-0.9822,-0.9822,-0.9822,-0.9822,-0.9822,-0.9822,-0.9822,-0.9822,-0.9822,-0.9822,-0.9822,-0.9822,-0.9822,-0.9486,-0.9209,-0.9235,-0.9268,-0.909,-0.8664,-0.8337,-0.8156,-0.8156,-0.7146,-0.5919,-0.4693,-0.4526,-0.4916,-0.6144,-0.5264,-0.5439,-0.7905,-0.7028,-0.6907,-0.8259,-0.8382,-0.8431,-0.8549,-0.8816,-0.9007,-0.9007,-0.9325,-0.9456,-0.9456,-0.9435,-0.9432,-0.9456,-0.9585,-0.9646,-0.9649,-0.9768,-0.9822,-1.0646,0.0,-1.3219,0.0,-1.4943,-1.497,0.0,0.0,-1.671,0.0,-1.7582,-1.7756,-1.8323,-1.8464,-1.8671,-1.9219,-1.9339,-1.9424,-1.9424,-1.9424,-1.9424,-1.9424,-1.9424,-1.9424,-1.9424,-1.9424,-1.9424,-1.9424,-1.9424,-1.9424,-1.9424,-1.9424,-1.9424,-1.9424,-1.9424,-1.9424,-1.9424,-1.8046,-1.7208,-1.6962,-1.5607,-1.4063,-1.2513,-1.2749,-1.2689,-1.2453,-1.0842,-1.0119,-1.0119,-0.9879,-0.9822,-0.9822,-0.9822,-0.9822,-0.9822,-0.9822,-0.9822,-0.9822,-0.9822,-0.9822,-0.9822,-0.9822,-0.9822,-0.9822,-0.9822,-0.9822,-0.9822,-0.9822,-0.9822,-0.9822,-0.9822,-0.9822,-0.9822,-0.9822,-0.8699,-0.8038,-0.9281,-0.9445,-0.8954,-0.7434,-0.6032,-0.5085,-0.5085,-0.4916,-0.4749,-0.4528,-0.4526,-0.4582,-0.4751,-0.4637,-0.4676,-0.5072,-0.4908,-0.4895,-0.508,-0.5139,-0.5144,-0.5155,-0.6589,-0.7417,-0.7417,-0.8906,-0.9764,-0.9764,-0.9642,-0.9639,-0.9764,-0.9781,-0.9791,-0.9791,-0.9812,-0.9822,-1.1216,-1.1764,-1.2672,0.0,-1.5104,-1.4703,-1.7048,-1.6951,-1.6569,-1.7402,-1.7582,-1.7716,-1.8156,-1.8377,-1.8631,-1.9052,-1.9259,-1.9424,-1.9424,-1.9424,-1.9424,-1.9424,-1.9424,-1.9424,-1.9424,-1.9424,-1.9424,-1.9424,-1.9424,-1.9424,-1.9424,-1.9424,-1.9424,-1.9424,-1.9424,-1.8946,-1.8046,-1.7325,-1.6074,-1.4292,-1.2689,-1.1559,-1.0838,-1.0838,-1.0838,-1.0842,-1.0119,-0.9822,-0.9822,-0.9822,-0.9822,-0.9822,-0.9822,-0.9822,-0.9822,-0.9822,-0.9822,-0.9822,-0.9822,-0.9822,-0.9822,-0.9822,-0.9822,-0.9822,-0.9822,-0.9822,-0.9822,-0.9822,-0.9822,-0.9576,-0.8711,-0.8465,-0.8221,-0.7304,-0.6508,-0.6191,-0.6819,-0.6846,-0.65,-0.5697,-0.4958,-0.4249,-0.3333,-0.3218,-0.2931,-0.2129,-0.1956,-0.2301,-0.3103,-0.2487,-0.2613,-0.4292,-0.3737,-0.3591,-0.4511,-0.4634,-0.4652,-0.4694,-0.5452,-0.5837,-0.5837,-0.7522,-0.8465,-0.8465,-0.9271,-0.9758,-0.9822,-0.9822,-0.9822,-0.9822,-0.9822,-0.9822,0.0,0.0,-1.1964,-1.5137,-1.477,-1.4208,0.0,0.0,-1.6241,0.0,-1.7428,-1.7655,-1.7883,-1.8176,-1.8477,-1.8764,-1.9065,-1.9259,-1.9259,-1.9377,-1.9424,-1.9424,-1.9424,-1.9424,-1.9424,-1.9424,-1.9424,-1.9424,-1.9424,-1.9424,-1.9424,-1.9004,-1.8765,-1.8765,-1.8409,-1.7572,-1.6374,-1.5956,-1.4351,-1.1559,-1.0361,-0.9822,-0.9822,-0.9822,-0.9822,-0.9822,-0.9822,-0.9822,-0.9822,-0.9822,-0.9822,-0.9822,-0.9822,-0.9822,-0.9822,-0.9822,-0.9822,-0.9822,-0.9822,-0.9822,-0.9822,-0.9822,-0.9822,-0.9822,-0.9822,-0.9511,-0.9204,-0.9204,-0.8897,-0.8285,-0.7055,-0.675,-0.6444,-0.5223,-0.4611,-0.4426,-0.4794,-0.4493,-0.413,-0.4021,-0.3646,-0.2992,-0.1821,-0.1645,-0.1293,-0.0177,0.0,-0.0412,-0.1528,-0.0709,-0.0888,-0.3128,-0.2313,-0.215,-0.3382,-0.3506,-0.3523,-0.3626,-0.4057,-0.4303,-0.4303,-0.5894,-0.675,-0.675,-0.8343,-0.939,-0.9822,-0.9822,-0.9822,-0.9822,-0.9822,-0.9822,0.0,-1.066,0.0,-1.3227,-1.3054,0.0,0.0,0.0,-1.5323,-1.6207,-1.7001,-1.7589,-1.7602,-1.7862,-1.8115,-1.8464,-1.8758,-1.8945,-1.8945,-1.9192,-1.9424,-1.9424,-1.9424,-1.9424,-1.9424,-1.9424,-1.9424,-1.9424,-1.9424,-1.9424,-1.9424,-1.7923,-1.7144,-1.7144,-1.5666,-1.4782,-1.4723,-1.3228,-1.1615,-0.994,-0.9819,-0.9822,-0.9822,-0.9822,-0.9822,-0.9822,-0.9822,-0.9822,-0.9822,-0.9822,-0.9822,-0.9822,-0.9822,-0.9822,-0.9822,-0.9822,-0.9822,-0.9822,-0.9822,-0.9822,-0.9822,-0.9822,-0.9822,-0.9822,-0.9822,-0.8711,-0.7543,-0.7543,-0.6383,-0.5161,-0.5039,-0.5039,-0.4977,-0.4916,-0.3752,-0.3015,-0.4548,-0.3706,-0.2585,-0.2583,-0.1307,-0.0236,-0.0118,-0.0118,-0.0118,0.0,0.0,0.0,-0.0118,-0.006,-0.006,-0.0241,-0.0183,-0.0123,-0.0247,-0.0247,-0.0247,-0.0247,-0.1725,-0.2647,-0.2647,-0.418,-0.5039,-0.5039,-0.6689,-0.8282,-0.9822,-0.9822,-0.9822,-0.9822,-0.9822,-0.9822,0.0,0.0,0.0,-1.2505,-1.2258,-1.1977,-1.3955,-1.474,-1.5102,-1.541,-1.658,-1.7408,-1.6847,-1.7455,-1.8029,-1.8135,-1.845,-1.8644,-1.8644,-1.8738,-1.8804,-1.8804,-1.8804,-1.8804,-1.8804,-1.8804,-1.8804,-1.8804,-1.7766,-1.7278,-1.7516,-1.5949,-1.5137,-1.5478,-1.4896,-1.4123,-1.3048,-1.1438,-1.0361,-0.9822,-0.9822,-0.9822,-0.9822,-0.9822,-0.9822,-0.9822,-0.9822,-0.9822,-0.9822,-0.9822,-0.9822,-0.9822,-0.9822,-0.9822,-0.9822,-0.9822,-0.9822,-0.9822,-0.9822,-0.9822,-0.9822,-0.9822,-0.9083,-0.8282,-0.8282,-0.7118,-0.5772,-0.5772,-0.5343,-0.4671,-0.3629,-0.3383,-0.3076,-0.2033,-0.1294,-0.1048,-0.1602,-0.1289,-0.0917,-0.0917,-0.0427,0.0,0.0,0.0,0.0,0.0,0.0,0.0,0.0,0.0,0.0,0.0,0.0,0.0,0.0,0.0,0.0,0.0,-0.0555,-0.0925,-0.0925,-0.2462,-0.3383,-0.3383,-0.4976,-0.663,-0.8282,-0.8282,-0.8282,-0.8282,-0.8282,-0.767,-0.9789,0.0,0.0,0.0,-1.1202,-1.1136,-1.2812,-1.4035,-1.4843,-1.4988,-1.6409,-1.7402,-1.682,-1.7355,-1.7889,-1.7889,-1.8143,-1.8343,-1.8343,-1.843,-1.849,-1.849,-1.849,-1.849,-1.849,-1.8027,-1.7742,-1.7742,-1.6216,-1.5403,-1.567,-1.4097,-1.3103,-1.294,-1.2898,-1.2452,-1.1378,-1.0301,-0.9822,-0.9822,-0.9822,-0.9822,-0.9822,-0.9822,-0.9822,-0.9822,-0.9822,-0.9822,-0.9822,-0.9822,-0.9822,-0.9822,-0.9822,-0.9822,-0.9822,-0.9822,-0.9822,-0.9822,-0.9822,-0.9451,-0.9019,-0.9019,-0.7914,-0.6566,-0.6566,-0.5404,-0.412,-0.412,-0.369,-0.3015,-0.1909,-0.1664,-0.1356,-0.0247,0.0,0.0,0.0,0.0,0.0,0.0,0.0,0.0,0.0,0.0,0.0,0.0,0.0,0.0,0.0,0.0,0.0,0.0,0.0,0.0,0.0,0.0,0.0,0.0,0.0,0.0,0.0,-0.1048,-0.1664,-0.1664,-0.326,-0.4669,-0.577,-0.632,-0.6566,-0.6566,-0.6566,-0.5649,0.0,0.0,0.0,0.0,0.0,0.0,-1.1156,0.0,-1.4543,-1.4894,-1.6306,-1.7535,-1.7542,-1.7562,-1.7582,-1.7582,-1.7836,-1.7975,-1.7975,-1.8283,-1.8464,-1.8408,-1.8408,-1.8408,-1.8353,-1.7024,-1.6219,-1.6219,-1.485,-1.3999,-1.4025,-1.2566,-1.1061,-0.9657,-0.9602,-0.9673,-0.9815,-0.9815,-0.9819,-0.9822,-0.9822,-0.9822,-0.9822,-0.9822,-0.9822,-0.9822,-0.9822,-0.9822,-0.9822,-0.9822,-0.9822,-0.9822,-0.9822,-0.9822,-0.9822,-0.9822,-0.9758,-0.97,-0.97,-0.865,-0.7299,-0.7299,-0.62,-0.4856,-0.4856,-0.369,-0.2401,-0.2401,-0.1233,0.0,0.0,0.0,0.0,0.0,0.0,0.0,0.0,0.0,0.0,0.0,0.0,0.0,0.0,0.0,0.0,0.0,0.0,0.0,0.0,0.0,0.0,0.0,0.0,0.0,0.0,0.0,0.0,0.0,0.0,0.0,0.0,0.0,0.0,0.0,-0.1602,-0.2401,-0.2401,-0.4057,-0.4856,-0.4856,-0.4794,-0.3936,-0.8804,0.0,0.0,0.0,0.0,0.0,-1.0374,0.0,-1.306,-1.3587,-1.509,-1.638,-1.6593,-1.7154,-1.7582,-1.7582,-1.7655,-1.7709,-1.7709,-1.7782,-1.7448,-1.6402,-1.624,-1.5856,-1.4821,-1.438,-1.4102,-1.4102,-1.2554,-1.1774,-1.204,-1.0792,-0.9859,-0.9442,-0.9445,-0.9517,-0.9666,-0.9666,-0.972,-0.9822,-0.9822,-0.9822,-0.9822,-0.9822,-0.9822,-0.9822,-0.9822,-0.9822,-0.9822,-0.9822,-0.9822,-0.9822,-0.9822,-0.9822,-0.9822,-0.9822,-0.9079,-0.8036,-0.8036,-0.6994,-0.559,-0.559,-0.4487,-0.3137,-0.3137,-0.2033,-0.0678,-0.0678,-0.037,0.0,0.0,0.0,0.0,0.0,0.0,0.0,0.0,0.0,0.0,0.0,0.0,0.0,0.0,0.0,0.0,0.0,0.0,0.0,0.0,0.0,0.0,0.0,0.0,0.0,0.0,0.0,0.0,0.0,0.0,0.0,0.0,0.0,0.0,0.0,-0.0432,-0.0678,-0.0678,-0.234,-0.3137,-0.3139,-0.1909,-0.1787,0.0,0.0,0.0,0.0,0.0,0.0,-0.9647,-1.1204,-1.2707,0.0,-1.5337,-1.65,-1.6306,-1.6744,-1.6874,-1.6247,-1.6144,-1.6472,-1.7476,-1.7094,-1.6333,-1.5524,-1.4877,-1.418,-1.3372,-1.2724,-1.2403,-1.2403,-1.0849,-1.0066,-1.031,-0.9592,-0.9225,-0.9344,-0.9344,-0.9361,-0.9513,-0.9578,-0.9652,-0.9734,-0.9791,-0.9822,-0.9822,-0.9822,-0.9822,-0.9822,-0.9822,-0.9822,-0.9822,-0.9822,-0.9822,-0.9822,-0.9822,-0.9822,-0.9697,-0.9019,-0.8218,-0.7299,-0.6628,-0.5282,-0.3873,-0.3873,-0.277,-0.1479,-0.1479,-0.0802,0.0,0.0,0.0,0.0,0.0,0.0,0.0,0.0,0.0,0.0,0.0,0.0,0.0,0.0,0.0,0.0,0.0,0.0,0.0,0.0,0.0,0.0,0.0,0.0,0.0,0.0,0.0,0.0,0.0,0.0,0.0,0.0,0.0,0.0,0.0,0.0,0.0,0.0,0.0,0.0,0.0,-0.0986,-0.1479,-0.1417,-0.0432,-0.0494,0.0,0.0,0.0,0.0,-0.6837,0.0,-0.8916,-1.0701,-1.2484,0.0,-1.566,-1.6535,-1.5897,-1.5779,-1.5338,-1.4006,-1.3834,-1.4576,-1.6723,-1.5954,-1.5115,-1.487,-1.381,-1.2994,-1.2837,-1.1647,-1.0836,-1.0836,-0.9644,-0.8885,-0.8885,-0.8885,-0.8998,-0.918,-0.9187,-0.9258,-0.9354,-0.949,-0.9578,-0.9612,-0.9737,-0.9805,-0.9822,-0.9822,-0.9822,-0.9822,-0.9822,-0.9822,-0.9761,-0.9636,-0.9636,-0.9758,-0.9576,-0.9511,-0.9329,-0.7728,-0.6994,-0.6625,-0.5159,-0.3568,-0.2217,-0.2217,-0.1233,0.0,0.0,0.0,0.0,0.0,0.0,0.0,0.0,0.0,0.0,0.0,0.0,0.0,0.0,0.0,0.0,0.0,0.0,0.0,0.0,0.0,0.0,0.0,0.0,0.0,0.0,0.0,0.0,0.0,0.0,0.0,0.0,0.0,0.0,0.0,0.0,0.0,0.0,0.0,0.0,0.0,0.0,0.0,0.0,0.0,0.0,0.0,0.0,0.0,0.0,0.0,0.0,0.0,-0.6776,0.0,-0.7619,-0.8112,-0.8917,0.0,-1.0999,-1.1487,-1.2287,-1.2457,-1.2325,-1.2054,-1.212,-1.2521,-1.3446,-1.3661,-1.3115,-1.156,-1.1464,-1.1051,-0.986,-0.9482,-0.9316,-0.9316,-0.9047,-0.8885,-0.8885,-0.8885,-0.8895,-0.8981,-0.8981,-0.9052,-0.9255,-0.9282,-0.9364,-0.9608,-0.9639,-0.971,-0.9822,-0.9822,-0.9822,-0.9822,-0.9822,-0.9822,-0.9697,-0.8404,-0.865,-0.9697,-0.8404,-0.785,-0.7667,-0.6016,-0.4547,-0.3382,-0.3076,-0.191,-0.0494,-0.0494,-0.0247,0.0,0.0,0.0,0.0,0.0,0.0,0.0,0.0,0.0,0.0,0.0,0.0,0.0,0.0,0.0,0.0,0.0,0.0,0.0,0.0,0.0,0.0,0.0,0.0,0.0,0.0,0.0,0.0,0.0,0.0,0.0,0.0,0.0,0.0,0.0,0.0,0.0,0.0,0.0,0.0,0.0,0.0,0.0,0.0,0.0,0.0,0.0,0.0,0.0,0.0,0.0,0.0,-0.5834,-0.5818,0.0,0.0,-0.7484,-0.8265,-0.9658,-1.0302,-1.0632,-1.0833,-1.0854,-1.0608,-0.9868,-0.9882,-0.9871,-0.9607,-1.0873,-1.1574,-1.0844,-1.0297,-0.9699,-0.8992,-0.8885,-0.8885,-0.8885,-0.8885,-0.8885,-0.8885,-0.8885,-0.8885,-0.8885,-0.8885,-0.8974,-0.9045,-0.9173,-0.9286,-0.9384,-0.9537,-0.9646,-0.972,-0.9788,-0.9822,-0.9758,-0.8958,-0.859,-0.8465,-0.6811,-0.663,-0.7304,-0.6444,-0.6139,-0.5955,-0.4303,-0.3199,-0.2401,-0.1541,-0.0678,0.0,0.0,0.0,0.0,0.0,0.0,0.0,0.0,0.0,0.0,0.0,0.0,0.0,0.0,0.0,0.0,0.0,0.0,0.0,0.0,0.0,0.0,0.0,0.0,0.0,0.0,0.0,0.0,0.0,0.0,0.0,0.0,0.0,0.0,0.0,0.0,0.0,0.0,0.0,0.0,0.0,0.0,0.0,0.0,0.0,0.0,0.0,0.0,0.0,0.0,0.0,0.0,0.0,0.0,0.0,0.0,0.0,-0.5237,0.0,0.0,0.0,-0.9065,-0.9845,-1.01,-0.9392,-0.9291,-0.886,-0.7656,-0.7573,-0.7356,-0.6467,-0.8211,-0.9702,-1.0199,-0.9292,-0.8629,-0.8629,-0.8706,-0.879,-0.8875,-0.8885,-0.8885,-0.8885,-0.8885,-0.8885,-0.8885,-0.8885,-0.8885,-0.8885,-0.9052,-0.9183,-0.9214,-0.9435,-0.9581,-0.9615,-0.9389,-0.9329,-0.9265,-0.7606,-0.6933,-0.6811,-0.5098,-0.4426,-0.4426,-0.4426,-0.4426,-0.4242,-0.2647,-0.2033,-0.1848,-0.0494,0.0,0.0,0.0,0.0,0.0,0.0,0.0,0.0,0.0,0.0,0.0,0.0,0.0,0.0,0.0,0.0,0.0,0.0,0.0,0.0,0.0,0.0,0.0,0.0,0.0,0.0,0.0,0.0,0.0,0.0,0.0,0.0,0.0,0.0,0.0,0.0,0.0,0.0,0.0,0.0,0.0,0.0,0.0,0.0,0.0,0.0,0.0,0.0,0.0,0.0,0.0,0.0,0.0,0.0,0.0,0.0,0.0,-0.4982,-0.5114,-0.5276,0.0,-0.5746,-0.5914,0.0,-0.6055,-0.5966,0.0,0.0,-0.5498,-0.5577,-0.5769,-0.588,-0.6225,-0.6687,-0.7154,-0.7516,-0.775,-0.775,-0.8113,-0.8513,-0.8854,-0.8885,-0.8885,-0.8885,-0.8885,-0.8885,-0.8885,-0.8885,-0.8885,-0.8885,-0.8898,-0.9025,-0.921,-0.9323,-0.9479,-0.9552,-0.8288,-0.7667,-0.7606,-0.5894,-0.5161,-0.5039,-0.3445,-0.277,-0.277,-0.277,-0.277,-0.2585,-0.0925,-0.0309,-0.0247,-0.0062,0.0,0.0,0.0,0.0,0.0,0.0,0.0,0.0,0.0,0.0,0.0,0.0,0.0,0.0,0.0,0.0,0.0,0.0,0.0,0.0,0.0,0.0,0.0,0.0,0.0,0.0,0.0,0.0,0.0,0.0,0.0,0.0,0.0,0.0,0.0,0.0,0.0,0.0,0.0,0.0,0.0,0.0,0.0,0.0,0.0,0.0,0.0,0.0,0.0,0.0,0.0,0.0,0.0,0.0,0.0,-0.5698,-0.5698,-0.5742,-0.5786,-0.5786,-0.56,-0.5395,-0.5395,0.0,0.0,0.0,0.0,0.0,0.0,-0.526,-0.5378,-0.5298,-0.5491,-0.5939,-0.6739,-0.7054,-0.738,-0.7811,-0.7872,-0.8069,-0.8516,-0.8554,-0.8554,-0.8554,-0.8798,-0.8885,-0.8885,-0.8885,-0.8885,-0.8885,-0.8885,-0.8967,-0.9032,-0.8278,-0.7997,-0.7996,-0.6556,-0.5955,-0.5833,-0.4242,-0.3506,-0.3383,-0.1725,-0.1048,-0.1048,-0.1048,-0.1048,-0.0986,-0.0247,0.0,0.0,0.0,0.0,0.0,0.0,0.0,0.0,0.0,0.0,0.0,0.0,0.0,0.0,0.0,0.0,0.0,0.0,0.0,0.0,0.0,0.0,0.0,0.0,0.0,0.0,0.0,0.0,0.0,0.0,0.0,0.0,0.0,0.0,0.0,0.0,0.0,0.0,0.0,0.0,0.0,0.0,0.0,0.0,0.0,0.0,0.0,0.0,0.0,0.0,0.0,0.0,0.0,0.0,0.0,0.0,-0.9933,-0.8352,-0.6504,-0.634,-0.63,-0.6255,-0.6091,-0.5709,-0.5395,-0.5395,-0.5395,0.0,0.0,0.0,0.0,0.0,0.0,-0.5167,-0.4836,-0.501,-0.5477,-0.6293,-0.6654,-0.7,-0.7506,-0.758,-0.7719,-0.8054,-0.8228,-0.8323,-0.8323,-0.8696,-0.8885,-0.8885,-0.8885,-0.8885,-0.8885,-0.8885,-0.8716,-0.8269,-0.7328,-0.6677,-0.6275,-0.4846,-0.4242,-0.418,-0.2524,-0.1787,-0.1725,-0.0494,0.0,0.0,0.0,0.0,0.0,0.0,0.0,0.0,0.0,0.0,0.0,0.0,0.0,0.0,0.0,0.0,0.0,0.0,0.0,0.0,0.0,0.0,0.0,0.0,0.0,0.0,0.0,0.0,0.0,0.0,0.0,0.0,0.0,0.0,0.0,0.0,0.0,0.0,0.0,0.0,0.0,0.0,0.0,0.0,0.0,0.0,0.0,0.0,0.0,0.0,0.0,0.0,0.0,0.0,0.0,0.0,0.0,0.0,0.0,0.0,0.0,0.0,-1.1122,-0.9111,-0.693,-0.6443,-0.63,-0.6146,-0.5559,-0.5409,-0.5395,-0.5395,-0.5395,-0.5395,-0.5395,0.0,0.0,0.0,0.0,0.0,0.0,-0.4511,-0.4692,-0.51,-0.5956,-0.648,-0.6368,-0.7095,-0.7543,-0.7456,-0.7989,-0.8323,-0.8323,-0.8696,-0.8885,-0.8885,-0.8885,-0.8885,-0.8885,-0.8885,-0.8156,-0.676,-0.6867,-0.6152,-0.4695,-0.3276,-0.2585,-0.2462,-0.0802,-0.0062,-0.0062,0.0,0.0,0.0,0.0,0.0,0.0,0.0,0.0,0.0,0.0,0.0,0.0,0.0,0.0,0.0,0.0,0.0,0.0,0.0,0.0,0.0,0.0,0.0,0.0,0.0,0.0,0.0,0.0,0.0,0.0,0.0,0.0,0.0,0.0,0.0,0.0,0.0,0.0,0.0,0.0,0.0,0.0,0.0,0.0,0.0,0.0,0.0,0.0,0.0,0.0,0.0,0.0,0.0,0.0,0.0,0.0,0.0,0.0,0.0,0.0,0.0,0.0,0.0,-1.219,-1.0187,-0.7841,-0.7688,-0.7214,-0.679,-0.6586,-0.5928,-0.5395,-0.5395,-0.5395,-0.5395,-0.5395,0.0,0.0,0.0,0.0,0.0,0.0,-0.4552,-0.4545,-0.4699,-0.5216,-0.5722,-0.6074,-0.6291,-0.6552,-0.6902,-0.721,-0.7383,-0.7383,-0.8089,-0.8496,-0.8496,-0.8784,-0.8436,-0.7426,-0.7426,-0.6702,-0.5252,-0.4273,-0.3519,-0.2996,-0.1519,-0.0863,-0.0802,-0.0247,0.0,0.0,0.0,0.0,0.0,0.0,0.0,0.0,0.0,0.0,0.0,0.0,0.0,0.0,0.0,0.0,0.0,0.0,0.0,0.0,0.0,0.0,0.0,0.0,0.0,0.0,0.0,0.0,0.0,0.0,0.0,0.0,0.0,0.0,0.0,0.0,0.0,0.0,0.0,0.0,0.0,0.0,0.0,0.0,0.0,0.0,0.0,0.0,0.0,0.0,0.0,0.0,0.0,0.0,0.0,0.0,0.0,0.0,0.0,0.0,0.0,0.0,0.0,0.0,0.0,-1.3302,-1.1175,-0.8615,-0.8401,-0.794,-0.7485,-0.7272,-0.6586,-0.5993,-0.5993,-0.5993,-0.5945,-0.5822,0.0,0.0,0.0,0.0,0.0,0.0,-0.4586,-0.4491,-0.4491,-0.4955,-0.5369,-0.5646,-0.5864,-0.6101,-0.6437,-0.6702,-0.6871,-0.6883,-0.7292,-0.7491,-0.7491,-0.7396,-0.6869,-0.5919,-0.5919,-0.5139,-0.3689,-0.2659,-0.1938,-0.1412,-0.0426,0.0,0.0,0.0,0.0,0.0,0.0,0.0,0.0,0.0,0.0,0.0,0.0,0.0,0.0,0.0,0.0,0.0,0.0,0.0,0.0,0.0,0.0,0.0,0.0,0.0,0.0,0.0,0.0,0.0,0.0,0.0,0.0,0.0,0.0,0.0,0.0,0.0,0.0,0.0,0.0,0.0,0.0,0.0,0.0,0.0,0.0,0.0,0.0,0.0,0.0,0.0,0.0,0.0,0.0,0.0,0.0,0.0,0.0,0.0,0.0,0.0,0.0,0.0,0.0,0.0,0.0,0.0,0.0]},{"header":{"parameterUnit":"m.s-1","parameterCategory":1,"la1":30.6,"la2":29.2853,"lo1":-89.7004,"lo2":-87.6739,"dy":0.0162,"dx":0.0183,"nx":112,"ny":82,"refTime":"2023-09-15T00:00:00:Z","depth":0,"parameterNumber":3,"parameterNumberName":"V-component_of_WINDS"},"data":[0.0,0.0,0.0,0.0,0.0,0.0,0.0,0.0,0.0,0.0,0.0,0.0,0.0,0.0,0.0,0.0,0.0,0.0,0.0,0.0,0.0,0.0,0.0,0.0,0.0,0.0,0.0,0.0,0.0,0.0,0.0,0.0,0.0,0.0,0.0,0.0,0.0,0.0,0.0,0.0,0.0,0.0,0.0,0.0,0.0,0.0,0.0,0.0,0.0,0.0,0.0,0.0,0.0,0.0,0.0,0.0,0.0,0.0,0.0,0.0,0.0,0.0,0.0,0.0,0.0,0.0,0.0,0.0,0.0,0.0,0.0,0.0,0.0,0.0,0.0,0.0,0.0,0.0,0.0,0.0,0.0,0.0,0.0,0.0,0.0,0.0,0.0,0.0,0.0,0.0,2.4747,2.909,3.1027,3.2022,3.2022,3.2433,3.1467,2.8593,0.0,0.0,0.0,0.0,0.0,0.0,0.0,0.0,0.0,0.0,0.0,0.0,0.0,0.0,0.0,0.0,0.0,0.0,0.0,0.0,0.0,0.0,0.0,0.0,0.0,0.0,0.0,0.0,0.0,0.0,0.0,0.0,0.0,0.0,0.0,0.0,0.0,0.0,0.0,0.0,0.0,0.0,0.0,0.0,0.0,0.0,0.0,0.0,0.0,0.0,0.0,0.0,0.0,0.0,0.0,0.0,0.0,0.0,0.0,0.0,0.0,0.0,0.0,0.0,0.0,0.0,0.0,0.0,0.0,0.0,0.0,0.0,0.0,0.0,0.0,0.0,0.0,0.0,0.0,0.0,0.0,0.0,0.0,0.0,0.0,0.0,0.0,0.0,0.0,0.0,0.0,0.0,0.0,0.0,0.0,0.0,0.0,0.0,0.0,0.0,0.0,0.0,0.0,0.0,2.7999,3.1579,3.257,3.2999,3.2999,3.3375,3.2268,2.9088,0.0,0.0,0.0,0.0,0.0,0.0,0.0,0.0,0.0,0.0,0.0,0.0,0.0,0.0,0.0,0.0,0.0,0.0,0.0,0.0,0.0,0.0,0.0,0.0,0.0,0.0,0.0,0.0,0.0,0.0,0.0,0.0,0.0,0.0,0.0,0.0,0.0,0.0,0.0,0.0,0.0,0.0,0.0,0.0,0.0,0.0,0.0,0.0,0.0,0.0,0.0,0.0,0.0,0.0,0.0,0.0,0.0,0.0,0.0,0.0,0.0,0.0,0.0,0.0,0.0,0.0,0.0,0.0,0.0,0.0,0.0,0.0,0.0,0.0,0.0,0.0,0.0,0.0,0.0,0.0,0.0,0.0,0.0,0.0,0.0,0.0,0.0,0.0,0.0,0.0,0.0,0.0,0.0,0.0,0.0,0.0,0.0,0.0,0.0,0.0,0.0,0.0,0.0,2.736,3.0487,3.2308,3.2921,3.3199,3.3199,3.3564,3.243,2.9207,2.8797,0.0,0.0,0.0,0.0,0.0,0.0,0.0,0.0,0.0,0.0,0.0,0.0,0.0,0.0,0.0,0.0,0.0,0.0,0.0,0.0,0.0,0.0,0.0,0.0,0.0,0.0,0.0,0.0,0.0,0.0,0.0,0.0,0.0,0.0,0.0,0.0,0.0,0.0,0.0,0.0,0.0,0.0,0.0,0.0,0.0,0.0,0.0,0.0,0.0,0.0,0.0,0.0,0.0,0.0,0.0,0.0,0.0,0.0,0.0,0.0,0.0,0.0,0.0,0.0,0.0,0.0,0.0,0.0,0.0,0.0,0.0,0.0,0.0,0.0,0.0,0.0,0.0,0.0,0.0,0.0,0.0,0.0,0.0,0.0,0.0,0.0,0.0,0.0,0.0,0.0,0.0,0.0,0.0,0.0,0.0,0.0,0.0,0.0,0.0,0.0,0.0,0.0,2.9228,3.1687,3.2957,3.3409,3.3622,3.3622,3.3899,3.2559,2.8932,2.8712,0.0,0.0,0.0,0.0,0.0,0.0,0.0,0.0,0.0,0.0,0.0,0.0,0.0,0.0,0.0,0.0,0.0,0.0,0.0,0.0,0.0,0.0,0.0,0.0,0.0,0.0,0.0,0.0,0.0,0.0,0.0,0.0,0.0,0.0,0.0,0.0,0.0,0.0,0.0,0.0,0.0,0.0,0.0,0.0,0.0,0.0,0.0,0.0,0.0,0.0,0.0,0.0,0.0,0.0,0.0,0.0,0.0,0.0,0.0,0.0,0.0,0.0,0.0,0.0,0.0,0.0,0.0,0.0,0.0,0.0,0.0,0.0,0.0,0.0,0.0,0.0,0.0,0.0,0.0,0.0,0.0,0.0,0.0,0.0,0.0,0.0,0.0,0.0,0.0,0.0,0.0,0.0,0.0,0.0,0.0,0.0,0.0,0.0,0.0,0.0,0.0,0.0,2.834,3.0783,3.4424,3.4857,3.4871,3.4871,3.4899,3.2894,2.8172,2.7879,0.0,0.0,0.0,0.0,0.0,0.0,0.0,0.0,0.0,0.0,0.0,0.0,0.0,0.0,0.0,0.0,0.0,0.0,0.0,0.0,0.0,0.0,0.0,0.0,0.0,0.0,0.0,0.0,0.0,0.0,0.0,0.0,0.0,0.0,0.0,0.0,0.0,0.0,0.0,0.0,0.0,0.0,0.0,0.0,0.0,0.0,0.0,0.0,0.0,0.0,0.0,0.0,0.0,0.0,0.0,0.0,0.0,0.0,0.0,0.0,0.0,0.0,0.0,0.0,0.0,0.0,0.0,0.0,0.0,0.0,0.0,0.0,0.0,0.0,0.0,0.0,0.0,0.0,0.0,0.0,0.0,0.0,0.0,0.0,0.0,0.0,0.0,0.0,0.0,0.0,0.0,0.0,0.0,0.0,0.0,0.0,0.0,0.0,0.0,0.0,0.0,0.0,3.121,3.3855,3.5622,3.5807,3.5807,3.5807,3.5807,3.3954,2.9567,0.0,0.0,0.0,0.0,0.0,0.0,0.0,0.0,0.0,0.0,0.0,0.0,0.0,0.0,0.0,0.0,0.0,0.0,0.0,0.0,0.0,0.0,0.0,0.0,0.0,0.0,0.0,0.0,0.0,0.0,0.0,0.0,0.0,0.0,0.0,0.0,0.0,0.0,0.0,0.0,0.0,0.0,0.0,0.0,0.0,0.0,0.0,0.0,0.0,0.0,0.0,0.0,0.0,0.0,0.0,0.0,0.0,0.0,0.0,0.0,0.0,0.0,0.0,0.0,0.0,0.0,0.0,0.0,0.0,0.0,0.0,0.0,0.0,0.0,0.0,0.0,0.0,0.0,0.0,0.0,0.0,0.0,0.0,0.0,0.0,0.0,0.0,0.0,0.0,0.0,0.0,0.0,0.0,0.0,0.0,0.0,0.0,0.0,0.0,0.0,0.0,0.0,2.8881,3.2841,3.588,3.6604,3.667,3.667,3.667,3.667,3.4706,3.0106,0.0,0.0,0.0,0.0,0.0,0.0,0.0,0.0,0.0,0.0,0.0,0.0,0.0,0.0,0.0,0.0,0.0,0.0,0.0,0.0,0.0,0.0,0.0,0.0,0.0,0.0,0.0,0.0,0.0,0.0,0.0,0.0,0.0,0.0,0.0,0.0,0.0,0.0,0.0,0.0,0.0,0.0,0.0,0.0,0.0,0.0,0.0,0.0,0.0,0.0,0.0,0.0,0.0,0.0,0.0,0.0,0.0,0.0,0.0,0.0,0.0,0.0,0.0,0.0,0.0,0.0,0.0,0.0,0.0,0.0,0.0,0.0,0.0,0.0,0.0,0.0,0.0,0.0,0.0,0.0,0.0,0.0,0.0,0.0,0.0,0.0,0.0,0.0,0.0,0.0,0.0,0.0,0.0,0.0,0.0,0.0,0.0,0.0,0.0,0.0,0.0,0.0,2.8178,3.2532,3.6131,3.7374,3.7511,3.7511,3.7511,3.7511,3.5105,0.0,0.0,0.0,0.0,0.0,0.0,0.0,0.0,0.0,0.0,0.0,0.0,0.0,0.0,0.0,0.0,0.0,0.0,0.0,0.0,0.0,0.0,0.0,0.0,0.0,0.0,0.0,0.0,0.0,0.0,0.0,0.0,0.0,0.0,0.0,0.0,0.0,0.0,0.0,0.0,0.0,0.0,0.0,0.0,0.0,0.0,0.0,0.0,0.0,0.0,0.0,0.0,0.0,0.0,0.0,0.0,0.0,0.0,0.0,0.0,0.0,0.0,0.0,0.0,0.0,0.0,0.0,0.0,0.0,0.0,0.0,0.0,0.0,0.0,0.0,0.0,0.0,0.0,0.0,0.0,0.0,0.0,0.0,0.0,0.0,0.0,0.0,0.0,0.0,0.0,0.0,0.0,0.0,0.0,0.0,0.0,0.0,0.0,0.0,0.0,0.0,0.0,0.0,2.9794,3.4471,3.7924,3.8307,3.834,3.834,3.834,3.834,3.6156,3.1017,0.0,0.0,0.0,0.0,0.0,0.0,0.0,0.0,0.0,0.0,0.0,0.0,0.0,0.0,0.0,0.0,0.0,0.0,0.0,0.0,0.0,0.0,0.0,0.0,0.0,0.0,0.0,0.0,0.0,0.0,0.0,0.0,0.0,0.0,0.0,0.0,0.0,0.0,0.0,0.0,0.0,0.0,0.0,0.0,0.0,0.0,0.0,0.0,0.0,0.0,0.0,0.0,0.0,0.0,0.0,0.0,0.0,0.0,0.0,0.0,0.0,0.0,0.0,0.0,0.0,0.0,0.0,0.0,0.0,0.0,0.0,0.0,0.0,0.0,0.0,0.0,0.0,0.0,0.0,0.0,0.0,0.0,0.0,0.0,0.0,0.0,0.0,0.0,0.0,0.0,0.0,0.0,0.0,0.0,0.0,0.0,0.0,0.0,0.0,0.0,0.0,0.0,3.0647,3.5366,3.8707,3.8707,3.8707,3.8707,3.8707,3.8707,3.7019,3.3091,0.0,0.0,0.0,0.0,0.0,0.0,0.0,0.0,0.0,0.0,0.0,0.0,0.0,0.0,0.0,0.0,0.0,0.0,0.0,0.0,0.0,0.0,0.0,0.0,0.0,0.0,0.0,0.0,0.0,0.0,0.0,0.0,0.0,0.0,0.0,0.0,0.0,0.0,0.0,0.0,0.0,0.0,0.0,0.0,0.0,0.0,0.0,0.0,0.0,0.0,0.0,0.0,0.0,0.0,0.0,0.0,0.0,0.0,0.0,0.0,0.0,0.0,0.0,0.0,0.0,0.0,0.0,0.0,0.0,0.0,0.0,0.0,0.0,0.0,0.0,0.0,0.0,0.0,0.0,0.0,0.0,0.0,0.0,0.0,0.0,0.0,0.0,0.0,0.0,0.0,0.0,0.0,0.0,0.0,0.0,0.0,0.0,0.0,0.0,0.0,0.0,0.0,3.1088,3.5688,3.8927,3.8927,3.8927,3.8927,3.8927,3.8927,3.783,3.5279,0.0,0.0,0.0,0.0,0.0,0.0,0.0,0.0,0.0,0.0,0.0,0.0,0.0,0.0,0.0,0.0,0.0,0.0,0.0,0.0,0.0,0.0,0.0,0.0,0.0,0.0,0.0,0.0,0.0,0.0,0.0,0.0,0.0,0.0,0.0,0.0,0.0,0.0,0.0,0.0,0.0,0.0,0.0,0.0,0.0,0.0,0.0,0.0,0.0,0.0,0.0,0.0,0.0,0.0,0.0,0.0,0.0,0.0,0.0,0.0,2.3467,2.1949,0.0,0.0,0.0,0.0,0.0,0.0,0.0,0.0,0.0,0.0,0.0,0.0,0.0,0.0,0.0,0.0,0.0,0.0,0.0,0.0,0.0,0.0,0.0,0.0,0.0,0.0,0.0,0.0,0.0,0.0,0.0,0.0,0.0,0.0,0.0,0.0,0.0,0.0,0.0,0.0,3.2737,3.7384,4.0581,4.0581,4.0581,4.0581,4.0581,4.0581,3.9294,3.6229,3.5532,0.0,0.0,0.0,0.0,0.0,0.0,0.0,0.0,0.0,0.0,0.0,0.0,0.0,0.0,0.0,0.0,0.0,0.0,0.0,0.0,0.0,0.0,0.0,0.0,0.0,0.0,0.0,0.0,0.0,0.0,0.0,0.0,0.0,0.0,0.0,0.0,0.0,0.0,0.0,0.0,0.0,0.0,0.0,0.0,0.0,0.0,0.0,0.0,0.0,0.0,0.0,0.0,0.0,0.0,0.0,0.0,0.0,0.0,0.0,2.4462,2.358,0.0,0.0,0.0,0.0,0.0,0.0,0.0,0.0,0.0,0.0,0.0,0.0,0.0,0.0,0.0,0.0,0.0,0.0,0.0,0.0,0.0,0.0,0.0,0.0,0.0,0.0,0.0,0.0,0.0,0.0,0.0,0.0,0.0,0.0,0.0,0.0,0.0,0.0,0.0,0.0,3.3468,3.7992,4.1095,4.1095,4.1095,4.1095,4.1095,4.1095,4.038,3.8707,3.7514,0.0,0.0,0.0,0.0,0.0,0.0,0.0,0.0,0.0,0.0,0.0,0.0,0.0,0.0,0.0,0.0,0.0,0.0,0.0,0.0,0.0,0.0,0.0,0.0,0.0,0.0,0.0,0.0,0.0,0.0,0.0,0.0,0.0,0.0,0.0,0.0,0.0,0.0,0.0,0.0,0.0,0.0,0.0,0.0,0.0,0.0,0.0,0.0,0.0,0.0,0.0,0.0,0.0,2.6198,2.6303,2.6303,2.6303,2.6303,2.6288,2.6048,2.5959,2.5869,2.4747,0.0,0.0,0.0,0.0,0.0,0.0,0.0,0.0,0.0,0.0,0.0,0.0,0.0,0.0,0.0,0.0,0.0,0.0,0.0,0.0,0.0,0.0,2.7655,2.9668,2.9448,2.9058,3.0127,0.0,0.0,0.0,0.0,0.0,0.0,0.0,0.0,0.0,0.0,0.0,3.3941,3.8414,4.1517,4.1517,4.1517,4.1517,4.1517,4.1517,4.1462,4.1315,3.9441,3.8264,0.0,0.0,0.0,0.0,0.0,0.0,0.0,0.0,0.0,0.0,0.0,0.0,0.0,0.0,0.0,0.0,0.0,0.0,0.0,0.0,0.0,0.0,0.0,0.0,0.0,0.0,0.0,0.0,0.0,0.0,0.0,0.0,2.3939,2.5196,0.0,0.0,0.0,0.0,0.0,0.0,0.0,0.0,0.0,0.0,0.0,0.0,0.0,2.539,2.548,2.6692,2.7345,2.7345,2.8528,2.9082,2.9082,2.9082,2.9082,2.9022,2.7839,0.0,2.733,2.7151,0.0,0.0,0.0,0.0,0.0,0.0,0.0,0.0,0.0,0.0,0.0,0.0,0.0,0.0,0.0,0.0,0.0,0.0,0.0,0.0,0.0,0.0,3.3558,3.4501,3.3656,3.3237,3.5323,3.0922,2.7571,3.1041,2.9953,2.8541,0.0,0.0,0.0,0.0,0.0,0.0,3.4797,3.9717,4.3167,4.3167,4.3167,4.3167,4.3167,4.3167,4.2892,4.2194,4.1846,4.0636,3.8355,4.0306,0.0,0.0,0.0,0.0,0.0,0.0,0.0,0.0,0.0,0.0,0.0,0.0,0.0,0.0,0.0,0.0,0.0,0.0,0.0,0.0,0.0,0.0,0.0,0.0,0.0,0.0,0.0,0.0,0.0,2.4462,2.563,2.6626,2.6063,2.5217,0.0,0.0,0.0,0.0,0.0,0.0,0.0,0.0,0.0,2.6716,2.8158,2.891,2.891,3.0238,3.0924,3.0911,3.1495,3.1779,3.1779,3.1779,3.1779,3.1749,3.115,3.0924,3.0745,2.8528,2.76,2.753,0.0,0.0,0.0,0.0,2.6373,2.7538,2.7003,2.859,3.0787,3.0381,0.0,0.0,0.0,0.0,0.0,0.0,0.0,3.0074,3.1664,3.3592,3.5436,3.6597,3.6417,3.6197,3.7195,3.4066,3.1681,3.3744,3.1952,3.0108,3.0128,3.0886,0.0,0.0,0.0,3.7374,3.7708,4.1111,4.3515,4.3515,4.3515,4.3515,4.3515,4.3515,4.3349,4.3002,4.2965,4.264,4.1858,4.2442,4.1361,0.0,0.0,0.0,0.0,0.0,0.0,0.0,0.0,0.0,0.0,0.0,0.0,0.0,0.0,0.0,0.0,0.0,0.0,0.0,0.0,0.0,0.0,0.0,0.0,0.0,0.0,0.0,0.0,2.5615,2.6707,2.775,2.726,2.6542,0.0,0.0,0.0,0.0,0.0,0.0,2.7086,2.8053,2.8768,2.9097,3.1001,3.2004,3.2004,3.3006,3.3499,3.3499,3.3499,3.3499,3.3499,3.3499,3.3499,3.3499,3.3499,3.3499,3.326,3.0325,2.9112,2.9147,2.9498,2.9027,2.8247,2.9113,3.0007,3.0701,3.0032,3.1536,3.3647,3.3085,3.251,3.2036,3.2022,0.0,0.0,0.0,0.0,3.2408,3.4066,3.5334,3.6479,3.7635,3.8041,3.8176,3.8176,3.6552,3.5396,3.6469,3.4548,3.2767,3.2756,3.3953,0.0,3.3049,3.6614,3.9495,3.9575,4.1864,4.3515,4.3515,4.3515,4.3515,4.3515,4.3515,4.3531,4.3612,4.3629,4.3958,4.4695,4.4121,4.3151,4.1835,0.0,0.0,0.0,0.0,0.0,0.0,0.0,0.0,0.0,0.0,0.0,0.0,0.0,0.0,0.0,0.0,0.0,0.0,0.0,0.0,0.0,0.0,0.0,0.0,0.0,0.0,0.0,0.0,0.0,2.8323,2.9564,0.0,0.0,0.0,0.0,2.8442,2.8981,2.9924,3.1137,3.1271,3.1884,3.3155,3.332,3.3395,3.3395,3.3469,3.3499,3.3499,3.3499,3.3499,3.3499,3.3499,3.3499,3.3499,3.3499,3.3499,3.3484,3.329,3.32,3.3156,3.2687,3.2442,3.2305,3.1606,3.274,3.4585,3.4297,3.5684,3.7618,3.7584,3.6096,3.3947,3.1867,3.1173,0.0,0.0,3.2679,3.4353,3.4455,3.6129,3.7804,3.7889,3.8447,3.8937,3.8937,3.7736,3.7268,3.9209,3.8178,3.7325,3.8385,0.0,3.8499,3.5325,3.7723,3.9591,3.8872,4.1534,4.3515,4.3515,4.3515,4.3515,4.3515,4.3515,4.3629,4.3955,4.3971,4.4318,4.5033,4.5036,4.5098,4.5336,4.2112,0.0,0.0,0.0,0.0,0.0,0.0,0.0,0.0,0.0,0.0,0.0,0.0,0.0,0.0,0.0,0.0,0.0,0.0,0.0,0.0,0.0,0.0,0.0,0.0,0.0,0.0,0.0,0.0,3.0225,3.0868,0.0,3.0509,3.0868,3.0957,3.0494,3.1495,3.2302,3.2766,3.32,3.3649,3.4144,3.4562,3.4786,3.4786,3.4786,3.4786,3.4786,3.4786,3.4786,3.4786,3.4786,3.4786,3.4786,3.4786,3.5057,3.5493,3.5493,3.5018,3.4309,3.4537,3.4899,3.5354,3.5554,3.6128,3.6807,3.6702,3.7229,3.7905,3.7905,3.7364,3.6535,3.5757,3.552,3.5605,3.6079,3.6789,3.7499,3.798,3.8725,3.9334,3.9334,3.9537,3.9789,4.0151,3.98,3.9881,4.1381,3.9408,3.7712,3.8367,4.0273,4.0885,3.8514,4.0469,4.2119,4.1827,4.2782,4.3515,4.3515,4.3515,4.3515,4.3515,4.3515,4.3646,4.3986,4.4001,4.4327,4.5074,4.5096,4.5253,4.5586,4.4402,4.1651,0.0,0.0,0.0,0.0,0.0,0.0,0.0,0.0,0.0,0.0,0.0,0.0,0.0,0.0,0.0,0.0,0.0,0.0,0.0,0.0,0.0,0.0,0.0,0.0,0.0,2.8312,3.012,3.166,3.2034,3.2168,3.2168,3.2392,3.2497,3.2497,3.3544,3.4173,3.4173,3.4592,3.4848,3.4848,3.5265,3.5504,3.5504,3.5729,3.5833,3.5833,3.6043,3.6148,3.6148,3.6148,3.5908,3.5519,3.5991,3.6225,3.632,3.681,3.6639,3.6162,3.6619,3.7079,3.7604,3.8378,3.8633,3.8633,3.8633,3.8633,3.8633,3.8633,3.8633,3.8633,3.8633,3.8633,3.8734,3.9225,3.9385,3.9486,3.9977,4.0229,4.0368,4.0368,4.0538,4.0767,4.1133,4.0336,4.0135,4.2027,4.0715,3.9113,3.8488,4.0023,4.054,3.8203,3.9203,4.023,4.023,4.1185,4.1882,4.1882,4.2837,4.3515,4.3515,4.2488,4.2502,4.3911,4.3085,4.3308,4.5017,4.4093,4.3656,4.3874,4.2758,4.0546,3.718,0.0,0.0,0.0,0.0,0.0,0.0,0.0,0.0,0.0,0.0,0.0,0.0,0.0,0.0,0.0,0.0,0.0,0.0,0.0,0.0,0.0,0.0,0.0,2.8607,3.0315,3.1795,3.2497,3.3155,3.3559,3.3559,3.4159,3.4533,3.4533,3.513,3.5519,3.5534,3.5489,3.5489,3.5504,3.5504,3.5504,3.5504,3.6178,3.6507,3.6522,3.712,3.7404,3.7404,3.7404,3.6731,3.5692,3.7026,3.694,3.5881,3.7322,3.8355,3.9001,3.8924,3.8908,3.9016,3.9808,4.0096,4.0096,4.0045,4.0062,4.0096,4.0096,4.0096,4.0096,4.0096,4.0096,4.0096,4.0096,4.0096,4.0096,4.0121,4.0521,4.0903,4.0926,4.138,4.181,4.1814,3.9378,3.8102,4.123,4.2322,4.1886,3.9292,3.8839,3.7771,3.4578,3.41,0.0,3.41,3.689,3.8854,3.8854,4.1552,4.3404,4.3496,4.0543,4.0231,4.3796,4.14,4.1453,4.4963,4.2255,4.0669,4.0669,3.7373,3.7257,4.0496,0.0,0.0,0.0,0.0,0.0,0.0,0.0,0.0,0.0,0.0,0.0,0.0,0.0,0.0,0.0,0.0,0.0,0.0,0.0,0.0,0.0,3.0313,3.1599,3.0808,3.157,3.2662,3.3799,3.4532,3.4951,3.4951,3.5115,3.522,3.522,3.54,3.5714,3.6193,3.5295,3.4996,3.5489,3.5504,3.5504,3.5504,3.6611,3.715,3.715,3.733,3.7404,3.7404,3.7404,3.7552,3.7844,3.824,3.8886,3.9699,4.0083,4.069,4.1208,3.9553,3.9262,3.9808,4.002,4.0096,3.996,3.887,3.9191,4.0096,4.0096,4.0096,4.0096,4.0096,4.0096,4.0096,4.0096,4.0096,4.0179,4.0577,4.078,4.1018,4.1446,4.1686,4.1916,4.2362,4.1758,4.1515,4.2795,4.316,4.2904,4.1796,4.1918,4.1864,4.0965,4.0818,4.0818,4.0818,4.1607,4.2176,4.2176,4.0873,4.0965,4.3313,4.0543,4.0333,4.4199,4.3686,4.3916,4.54,4.4656,4.4209,4.4209,4.0862,3.9592,0.0,0.0,0.0,0.0,0.0,0.0,0.0,0.0,0.0,0.0,0.0,0.0,0.0,0.0,0.0,0.0,0.0,0.0,0.0,0.0,0.0,0.0,3.2063,3.3425,3.32,3.3499,3.4053,3.4816,3.5265,3.5609,3.5893,3.5923,3.6028,3.6282,3.6312,3.6477,3.6851,3.6133,3.5639,3.5504,3.6028,3.6043,3.5504,3.7045,3.7823,3.7823,3.8108,3.8257,3.8257,3.8257,3.8189,3.82,3.9182,3.986,4.0299,4.1254,4.1919,4.2175,0.0,0.0,0.0,0.0,4.0096,3.9977,3.9106,3.9377,4.0096,4.0096,4.0096,4.0096,4.0096,3.9453,3.8725,3.8725,3.8031,3.7577,3.8836,3.9539,4.021,4.1517,4.2165,4.2619,4.2958,4.1978,4.1521,4.317,4.2396,0.0,4.2869,4.2189,4.102,3.9643,3.9439,3.9439,3.9439,4.0634,4.1479,4.1479,4.102,4.1523,4.3545,4.075,0.0,0.0,0.0,4.298,4.3442,4.3459,0.0,0.0,0.0,3.9104,4.0496,3.8546,0.0,0.0,3.7507,3.6064,0.0,0.0,0.0,0.0,0.0,0.0,0.0,0.0,0.0,0.0,0.0,0.0,0.0,0.0,0.0,0.0,3.3306,3.4173,3.5429,3.5609,3.5609,3.5609,3.5609,3.5863,3.6537,3.6596,3.6821,3.736,3.7404,3.7434,3.7524,3.7389,0.0,0.0,0.0,3.6866,3.5729,3.7569,3.8497,3.8512,3.9217,3.9553,3.9538,3.9646,3.9088,3.8159,4.0277,4.055,3.969,4.1732,4.2557,4.2523,4.2354,4.1897,4.1221,4.0392,4.0214,4.0316,4.0062,0.0,0.0,4.013,4.0096,4.0096,4.0096,3.8773,3.7267,3.7267,3.5851,3.4827,3.6904,3.8217,3.9496,4.1502,4.2772,4.3515,4.3515,4.1258,4.0084,4.2964,4.1185,4.0157,4.3002,4.113,3.8248,3.533,3.489,3.489,3.489,3.7441,3.9239,3.9239,4.146,0.0,4.3933,4.1041,4.0757,4.4424,4.2235,4.0884,4.1066,4.1073,3.9681,3.6692,3.6635,3.8104,4.1073,4.1073,4.2632,4.546,3.945,3.8299,0.0,0.0,0.0,0.0,0.0,0.0,0.0,0.0,0.0,0.0,0.0,0.0,0.0,0.0,0.0,3.4002,3.4743,3.5385,3.6178,3.6297,3.6297,3.6297,3.6297,3.6552,3.7165,3.724,3.7285,3.7404,3.7404,3.7644,3.8167,3.7225,3.6776,3.703,3.7285,3.7285,3.7045,3.8497,3.923,3.9215,4.0054,0.0,4.0466,4.1196,4.1757,4.2178,4.2647,4.3092,4.3513,4.3979,4.4175,4.4039,4.2804,4.2202,4.1914,4.0595,4.0849,4.161,3.9817,3.9986,4.0882,4.0299,4.0096,4.0096,4.0096,4.0109,0.0,4.0118,4.0135,4.0405,4.1317,4.1719,4.2097,4.296,4.3339,4.3515,4.3515,4.3002,4.2745,4.3386,4.3001,4.278,4.3404,4.2965,4.2376,4.1717,4.1623,4.1623,4.1623,4.2176,4.2561,4.2561,4.0818,4.0809,4.3747,4.1041,4.086,4.4756,4.4729,4.4568,4.4613,4.4613,4.4306,4.3671,4.3651,4.3978,4.4613,4.4613,4.496,4.5575,4.4267,4.4072,0.0,0.0,0.0,0.0,0.0,0.0,0.0,0.0,0.0,0.0,0.0,3.0466,0.0,0.0,3.2676,3.4759,3.5041,3.5459,3.6761,3.6941,3.6941,3.6941,3.6941,3.7195,3.7838,3.7898,3.8048,3.8392,3.8407,3.8556,3.8886,3.8616,3.8272,3.7913,3.8871,3.908,3.8422,3.9738,4.0639,4.1102,4.1553,4.201,4.2471,4.2905,4.3347,4.3781,4.4206,4.4652,4.5059,4.512,4.4925,4.453,4.3768,4.32,4.2726,4.161,4.166,4.2134,4.1018,4.1119,4.1627,4.0882,4.0646,4.0578,4.0214,3.9686,3.9267,3.9267,3.8863,3.8783,4.0207,4.0814,4.1343,4.2759,4.3303,4.3515,4.3515,4.3515,4.3515,4.3515,4.3515,4.3515,4.3515,4.3515,4.3515,4.3515,4.3515,4.3515,4.3515,4.3515,4.3515,4.3515,4.2047,4.1973,4.4116,4.3132,4.3253,4.5236,4.5504,4.5594,4.5594,4.5594,4.5594,4.5594,4.5594,4.5594,4.5594,4.5594,4.5594,4.5594,4.5594,4.5673,0.0,0.0,0.0,0.0,0.0,0.0,0.0,0.0,3.0791,3.1031,3.1285,3.1867,3.3081,3.2841,3.3231,3.5535,3.5439,3.5639,3.736,3.7599,3.7644,3.7778,3.7674,3.7853,3.8527,3.8706,3.9005,3.9574,3.9723,3.9798,3.9798,4.0307,4.0098,3.9005,4.0531,4.0876,3.9813,4.0846,4.1849,4.2807,4.2969,4.3548,4.4444,4.4625,4.4724,4.4756,4.5463,4.5744,4.5773,4.5875,4.5551,4.5021,4.4886,4.4418,4.3747,4.3014,4.277,4.2709,4.2557,4.2506,4.2388,4.1644,4.1407,4.1305,4.0722,3.9643,3.8628,3.8628,3.772,3.7146,3.8993,3.9788,4.0578,4.2412,4.3196,4.3515,4.3515,4.3515,4.3515,4.3515,4.3515,4.3515,4.3515,4.3515,4.3515,4.3515,4.3515,4.3515,4.3515,4.3515,4.3515,4.3515,4.3515,4.3791,4.4527,4.5203,4.5594,4.5594,4.5594,4.5594,4.5594,4.5594,4.5594,4.5594,4.5594,4.5594,4.5594,4.5594,4.5594,4.5594,4.5594,4.5648,2.9116,2.7664,2.7215,2.8412,3.0073,3.1376,0.0,0.0,3.4517,3.3395,3.4113,3.5189,3.5984,3.6034,3.626,3.7199,3.72,3.736,3.8167,3.8287,3.8512,3.9125,3.8661,3.8542,3.923,3.9828,4.0217,4.0292,4.0831,4.116,4.116,4.1235,4.1205,4.1093,4.1265,4.1347,4.116,4.1347,4.1849,4.2807,4.3582,4.4461,4.5383,4.6179,4.6514,4.6514,4.6621,4.665,4.665,4.6672,4.6616,4.6481,4.5838,4.5517,4.5365,4.4604,4.4344,4.4242,4.3538,4.3274,4.3139,4.2422,4.2168,4.2151,4.2066,4.2185,4.2321,4.2321,4.2431,4.2606,4.2863,4.2989,4.3079,4.3355,4.3444,4.3515,4.3515,4.3515,4.3515,4.3515,4.3515,4.3515,4.3515,4.3515,4.3515,4.3515,4.3515,4.3515,4.3515,4.3515,4.3515,4.3515,4.3515,4.3791,4.4527,4.5203,4.5594,4.5594,4.5594,4.5594,4.5594,4.5594,4.5594,4.5594,4.5594,4.5594,4.5594,4.5594,4.5594,4.5594,4.5594,4.5603,3.0956,3.0462,0.0,0.0,3.2946,3.3813,3.3813,3.4711,3.534,3.4786,3.5415,3.619,3.647,3.6215,3.64,0.0,3.7387,3.736,3.8796,3.899,3.923,3.9903,3.9446,3.9024,3.8831,4.0612,4.1474,4.0679,4.2116,4.304,4.304,4.3379,4.3597,4.3597,4.3987,4.419,4.419,4.419,4.4678,4.5619,4.5957,4.6618,4.7544,4.7902,4.8088,4.8088,4.8088,4.7834,4.7445,4.7445,4.7192,4.6752,4.6447,4.6075,4.5618,4.4886,4.4615,4.4564,4.4215,4.4096,4.3961,4.32,4.3189,4.3452,4.3022,4.3489,4.4062,4.3614,4.3827,4.4085,4.3608,4.3515,4.3515,4.3515,4.3515,4.3515,4.3515,4.3515,4.3515,4.3515,4.3515,4.3515,4.3515,4.3515,4.3515,4.3515,4.3515,4.3515,4.3515,4.3515,4.3563,4.3772,4.4004,4.435,4.4849,4.5332,4.5594,4.5594,4.5594,4.5594,4.5594,4.5594,4.5594,4.5594,4.5594,4.5594,4.5594,4.5594,4.5594,4.5594,4.5594,4.5594,3.1599,0.0,0.0,3.3815,3.4726,3.5265,3.5459,3.5504,3.5549,3.5744,3.6148,3.6537,3.6716,3.6492,3.6761,3.8167,3.7778,3.7793,3.9179,3.9574,3.9796,4.0139,3.9984,3.9383,3.8296,4.1001,4.2528,4.1697,4.3559,4.4755,4.4755,4.5202,4.5491,4.5491,4.5952,4.6208,4.6208,4.6208,4.6678,4.7589,4.7589,4.808,4.9001,4.9001,4.9001,4.9001,4.9001,4.8714,4.8193,4.8193,4.7902,4.7378,4.7175,4.6786,4.6227,4.5466,4.4953,4.4615,4.4615,4.4615,4.4541,4.4096,4.4327,4.4634,4.4251,4.4738,4.5278,4.4698,4.4761,4.4856,4.403,4.3828,4.3773,4.3551,4.3515,4.3515,4.3515,4.3515,4.3515,4.3515,4.3515,4.3515,4.3515,4.3515,4.3515,4.3515,4.3515,4.3515,4.3515,4.3515,4.3629,4.3971,4.4346,4.4751,4.5074,4.541,4.5594,4.5594,4.5594,4.5594,4.5594,4.5594,4.5594,4.5594,4.5594,4.5594,4.5594,4.5594,4.5594,4.5594,4.5594,4.5594,3.0208,0.0,3.0325,3.2886,3.4023,3.4713,3.5355,3.5504,3.5684,3.6327,3.6477,3.6671,3.727,3.7883,3.8317,3.8377,3.8916,3.9313,3.9373,3.9963,4.0164,3.9696,4.0082,3.9647,0.0,4.0877,4.3176,4.3666,4.5215,4.6144,4.6144,4.6176,4.6176,4.6176,4.6208,4.6208,4.6208,4.6208,4.6678,4.7589,4.7589,4.808,4.9001,4.9001,4.9001,4.9001,4.9001,4.8984,4.8968,4.8968,4.8951,4.8866,4.8156,4.7838,4.772,4.7005,4.5821,4.4615,4.4615,4.4615,4.4692,4.525,4.5451,4.5588,4.6139,4.6235,4.6155,4.6137,4.6016,4.5681,4.4874,4.4672,4.447,4.3681,4.3515,4.3515,4.3515,4.3515,4.3515,4.3515,4.3515,4.3515,4.3515,4.3515,4.3515,4.3515,4.3515,4.3515,4.3515,4.3515,4.3629,4.3971,4.4346,4.4751,4.5074,4.541,4.5594,4.5594,4.5594,4.5594,4.5594,4.5594,4.5594,4.5594,4.5594,4.5594,4.5594,4.5594,4.5594,4.5594,4.5594,4.5594,3.0268,0.0,3.1943,3.3709,3.4666,3.534,3.5998,3.6148,3.6327,3.6971,3.6417,3.5893,3.6103,3.5953,3.6088,3.6985,3.6956,3.7794,4.0607,3.9566,3.972,4.295,4.2314,0.0,0.0,0.0,0.0,4.2789,4.6045,4.8047,4.8047,4.8047,4.8047,4.8047,4.8047,4.8047,4.8047,4.8047,4.8225,4.8545,4.8545,4.8688,4.9001,4.9001,4.9001,4.9001,4.9001,4.9001,4.9001,4.9001,4.9001,4.8984,4.8731,4.8342,4.7855,4.7631,4.6904,4.5974,4.55,4.5278,4.5232,4.5433,4.6063,4.6796,4.6999,4.731,4.7484,4.6955,4.6742,4.6507,4.5718,4.5498,4.5296,4.4488,4.4305,4.4158,4.3608,4.3515,4.3515,4.3515,4.3515,4.3515,4.3515,4.3515,4.358,4.3804,4.3646,4.3515,4.3515,4.3693,4.3989,4.4364,4.472,4.5074,4.541,4.555,4.5594,4.5594,4.5594,4.5594,4.5594,4.5594,4.5594,4.5594,4.5594,4.5594,4.5594,4.5594,4.5594,4.5594,4.5594,4.5594,3.0866,3.1854,3.2886,3.4457,3.5355,3.5968,3.6387,3.6656,3.7,3.7629,3.7105,3.6402,3.5938,3.5669,3.5744,3.6372,3.6507,3.7778,4.1306,4.0647,4.1086,4.4526,4.3732,4.3519,0.0,0.0,0.0,4.3393,4.6374,4.8206,4.8206,4.8206,4.846,4.8984,4.9001,4.9001,4.9001,4.9001,4.9001,4.9001,4.9001,4.9001,4.9001,4.9001,4.8714,4.824,4.8765,4.8697,4.8257,4.8781,4.9001,4.9001,4.9001,4.8714,4.8308,4.8308,4.798,4.7351,4.6128,4.5774,4.5884,4.5844,4.6542,4.7428,4.7674,4.7977,4.8196,4.7663,4.7516,4.7333,4.6544,4.6342,4.614,4.5333,4.4911,4.4562,4.4048,4.3699,4.3515,4.3515,4.3515,4.3515,4.3515,4.3597,4.374,4.3971,4.3943,4.3884,4.3884,4.4076,4.4359,4.4732,4.4966,4.5232,4.5568,4.5594,4.5594,4.5594,4.5594,4.5594,4.5594,4.5594,4.5594,4.5594,4.5594,4.5594,4.5594,4.5594,4.5594,4.5594,4.5594,4.5594,3.1749,3.2512,3.314,3.507,3.6028,3.6507,3.6567,3.7045,3.7614,3.8182,3.8212,3.7734,3.6417,3.6641,3.6851,3.6469,3.7447,3.9072,4.1519,4.2918,4.388,0.0,0.0,0.0,0.0,0.0,0.0,4.5479,4.6354,4.6904,4.6904,4.6904,4.7547,4.8968,4.9001,4.9001,4.9001,4.9001,4.9001,4.9001,4.9001,4.9001,4.9001,4.9001,4.824,4.6989,4.8392,4.8206,4.7005,4.8426,4.9001,4.9001,4.9001,4.9001,4.9001,4.9032,4.9,4.865,4.6635,4.6244,4.6691,4.6564,4.6945,4.7551,4.8132,4.8306,4.8306,4.8306,4.8306,4.8122,4.7351,4.7168,4.6947,4.6159,4.5388,4.4801,4.4782,4.4121,4.3552,4.3552,4.3533,4.3515,4.3513,4.3788,4.3998,4.4043,4.4373,4.4606,4.4593,4.4606,4.4751,4.5063,4.5126,4.5253,4.5577,4.5594,4.5594,4.5594,4.5594,4.5594,4.5594,4.5594,4.5594,4.5594,4.5594,4.5594,4.5594,4.5594,4.5594,4.5594,4.5594,4.5594,3.1106,3.2841,3.4981,3.5983,3.6357,3.6731,3.7689,3.8018,3.7913,3.7135,3.5774,3.4188,3.2362,3.1779,0.0,3.4846,3.5521,0.0,4.2231,4.2335,0.0,4.5844,0.0,4.6525,4.7494,4.7897,0.0,0.0,4.768,4.8443,4.8443,4.8443,4.8612,4.8984,4.9001,4.9001,4.9001,4.9001,4.9001,4.9001,4.9001,4.9001,4.9001,4.9001,4.8798,4.846,4.8849,4.8798,4.8477,4.8849,4.9001,4.9001,4.9001,4.9001,4.9063,4.9563,4.9729,4.9628,4.9081,4.8558,4.8077,4.8057,4.8043,4.8094,4.8249,4.8306,4.8306,4.8306,4.8306,4.8251,4.8048,4.7975,4.7791,4.6984,4.6636,4.6324,4.5718,4.4966,4.4397,4.4397,4.3901,4.358,4.3836,4.394,4.419,4.4726,4.4919,4.4884,4.4618,4.4825,4.5019,4.5085,4.5322,4.5504,4.5586,4.5594,4.5594,4.5594,4.5594,4.5594,4.5594,4.5594,4.5594,4.5594,4.5594,4.5594,4.5594,4.5594,4.5594,4.5594,4.5594,4.5594,3.2736,3.4083,3.5669,3.6327,3.6686,3.6941,3.709,3.7345,3.7105,3.5504,3.4277,3.2886,3.0866,3.0951,3.2081,0.0,0.0,0.0,4.2663,4.2908,4.3647,0.0,4.6786,0.0,4.8866,4.9001,4.8663,0.0,4.7936,4.8037,4.8037,4.8037,4.8325,4.8984,4.9001,4.9001,4.9001,4.9001,4.9001,4.9001,4.9001,4.9001,4.9001,4.9001,4.8646,4.8071,4.8714,4.8629,4.8088,4.8731,4.9001,4.9001,4.9001,4.9001,4.9077,4.9734,5.0213,5.0511,5.0819,5.0559,4.994,4.8916,4.8707,4.8802,4.8416,4.8306,4.8306,4.8306,4.8306,4.8306,4.8306,4.8306,4.8196,4.7718,4.7351,4.6984,4.6526,4.5792,4.5131,4.4782,4.4443,4.4179,4.4026,4.4276,4.4625,4.5041,4.5222,4.5253,4.5055,4.5192,4.5322,4.5322,4.5495,4.5594,4.5594,4.5594,4.5594,4.5594,4.5594,4.5594,4.5594,4.5594,4.5594,4.5594,4.5594,4.5594,4.5594,4.5594,4.5594,4.5594,4.5594,4.5594,3.4861,3.531,3.5669,3.6327,3.6941,3.7135,3.6118,3.6133,3.5818,3.3888,0.0,3.2497,3.096,3.2089,3.3674,3.5015,0.0,3.9656,4.2495,4.3723,4.4859,4.6355,4.6667,4.7378,4.8866,4.8832,4.8798,4.8984,4.78,4.709,4.709,4.709,4.7682,4.8968,4.9001,4.9001,4.9001,4.9001,4.9001,4.9001,4.9001,4.9001,4.9001,4.9001,4.8308,4.7158,4.8443,4.8274,4.7192,4.8477,4.9001,4.9001,4.9001,4.9046,4.9212,4.9907,5.0608,5.1317,5.2018,5.2207,5.1823,4.9731,4.93,4.9463,4.8691,4.8398,4.8306,4.8306,4.8306,4.8306,4.8306,4.8306,4.8306,4.8306,4.7755,4.7259,4.7259,4.6636,4.5828,4.5021,4.5033,4.5003,4.4356,4.4726,4.5126,4.5169,4.5419,4.5594,4.5594,4.5594,4.5594,4.5594,4.5594,4.5594,4.5594,4.5594,4.5594,4.5594,4.5594,4.5594,4.5594,4.5594,4.5594,4.5594,4.5594,4.5594,4.5594,4.5594,4.5594,4.5594,4.5594,4.5594,3.3425,3.4233,3.5669,3.6327,3.6941,3.7494,3.7823,3.6746,0.0,0.0,3.1779,3.0531,3.1407,3.1723,3.3093,3.6895,3.7769,3.8586,4.0407,4.2879,4.4665,0.0,4.6041,4.7378,4.8866,4.7902,0.0,0.0,4.8765,4.8612,4.8612,4.8612,4.8748,4.9001,4.9001,4.9001,4.9001,4.9001,4.9001,4.9001,4.9001,4.9001,4.9001,4.9001,4.8866,4.8629,4.8883,4.8849,4.8646,4.89,4.9001,4.9001,4.9001,4.9329,4.989,5.0635,5.1343,5.2042,5.2747,5.3011,5.2818,5.1744,5.0595,4.9574,4.9427,4.8875,4.8306,4.8306,4.8306,4.8306,4.8306,4.8306,4.8306,4.8306,4.8196,4.8104,4.8104,4.7461,4.6636,4.5847,4.544,4.5263,4.5439,4.5261,4.5201,4.5476,4.5568,4.5594,4.5594,4.5594,4.5594,4.5594,4.5594,4.5594,4.5594,4.5594,4.5594,4.5594,4.5594,4.5594,4.5594,4.5594,4.5594,4.5594,4.5594,4.5594,4.5594,4.5594,4.5594,4.5594,4.5594,4.5594,3.3484,3.4233,3.5669,3.6327,3.6716,3.6618,3.5498,0.0,0.0,0.0,2.9809,2.9244,3.0353,3.1031,0.0,3.6884,3.8025,0.0,0.0,0.0,0.0,0.0,0.0,4.7073,0.0,4.7208,4.709,4.78,4.7851,4.8189,4.8968,4.9001,4.9001,4.9001,4.9001,4.9001,4.9001,4.9001,4.9001,4.9001,4.9001,4.9001,4.9001,4.9001,4.9001,4.9001,4.9001,4.8781,4.8477,4.8849,4.8974,4.9003,4.9367,4.9965,5.0662,5.1368,5.1832,5.2224,5.2937,5.3185,5.3151,5.2747,5.1536,5.0141,4.9739,4.8985,4.8306,4.8306,4.8306,4.8306,4.8306,4.8306,4.8306,4.8306,4.8306,4.8306,4.8306,4.8012,4.7555,4.6959,4.6805,4.6765,4.6746,4.6694,4.6724,4.6876,4.6894,4.6894,4.6894,4.6894,4.6567,4.5691,4.5594,4.5594,4.5594,4.5594,4.5594,4.5594,4.5594,4.5594,4.5594,4.5594,4.5594,4.5594,4.5594,4.5594,4.5594,4.5594,4.5594,4.5594,4.5594,4.5594,3.4143,3.4696,3.5624,3.6148,3.6372,3.5847,3.3307,3.2527,0.0,0.0,2.861,2.873,3.0058,3.1008,3.2876,0.0,3.7769,3.9169,0.0,0.0,0.0,0.0,0.0,0.0,4.7242,4.6989,0.0,4.7242,4.7259,4.7784,4.8934,4.9001,4.9001,4.9001,4.9001,4.9001,4.9001,4.9001,4.9001,4.9001,4.9001,4.9001,4.9001,4.9001,4.9001,4.9001,4.9152,4.8787,4.8158,4.9052,4.9304,4.9189,4.9945,5.0689,5.1368,5.1904,5.2201,5.2422,5.2999,5.3185,5.3185,5.3185,5.2234,5.0912,5.0106,4.926,4.8545,4.8361,4.8306,4.8306,4.8306,4.8306,4.8306,4.8306,4.8306,4.8306,4.8306,4.8306,4.8237,4.7994,4.8093,4.8143,4.7903,4.7997,4.8105,4.8105,4.8105,4.8105,4.8105,4.8105,4.7605,4.6278,4.6152,4.6152,4.6152,4.6152,4.6056,4.5893,4.5883,4.5787,4.5614,4.5594,4.5594,4.5594,4.5594,4.5594,4.5594,4.5594,4.5594,4.5594,4.5594,4.5594,3.5026,3.5415,3.5519,3.5579,3.6043,3.6072,3.4484,0.0,0.0,3.1137,2.9578,2.9383,3.2607,3.2676,3.3671,0.0,0.0,3.6348,0.0,0.0,0.0,0.0,0.0,0.0,4.8663,4.7581,4.7361,4.8697,4.8798,4.8866,4.9001,4.9001,4.9001,4.9001,4.9001,4.9001,4.9001,4.9001,4.9001,4.9001,4.9001,4.9001,4.9001,4.9001,4.9001,4.9032,4.9634,4.9475,4.883,5.0293,5.047,4.9896,5.0681,5.1419,5.2018,5.2089,5.2513,5.3103,5.3185,5.3185,5.3185,5.3185,5.2619,5.1738,5.093,5.0105,4.9335,4.8526,4.8306,4.8306,4.8306,4.8306,4.8306,4.8306,4.8306,4.8306,4.8306,4.8306,4.8402,4.8719,4.8468,4.8299,4.8629,4.836,4.8105,4.8105,4.8105,4.8105,4.8105,4.8105,4.8048,4.7894,4.7875,4.7875,4.7875,4.7875,4.7567,4.6836,4.6778,4.6432,4.5633,4.5594,4.5594,4.5594,4.5594,4.5594,4.5594,4.5594,4.5594,4.5594,4.5594,4.5594,3.305,3.4261,3.5619,3.6054,3.6364,3.5845,3.3029,0.0,3.2273,2.9686,2.8943,2.945,3.1738,3.1506,3.2149,0.0,0.0,0.0,0.0,0.0,0.0,0.0,0.0,0.0,0.0,0.0,4.7039,4.7631,4.7682,4.8054,4.8951,4.9001,4.9001,4.9001,4.9001,4.9001,4.9001,4.9001,4.9001,4.9001,4.9001,4.9001,4.9001,4.9419,4.9593,4.9652,5.0352,4.996,4.8924,5.0469,5.0613,4.9955,5.1208,5.2131,5.2769,5.2769,5.2937,5.3185,5.3185,5.3185,5.3185,5.3185,5.2986,5.2564,5.1775,5.062,4.9537,4.9169,4.8691,4.8306,4.8306,4.8306,4.8306,4.8306,4.8306,4.8306,4.8306,4.8495,4.8779,4.9187,4.9311,4.9461,4.9882,4.9787,4.9663,4.9663,4.9663,4.9663,4.9663,4.9663,4.9663,4.9663,4.8721,4.8105,4.8105,4.8105,4.7971,4.7644,4.7625,4.7471,4.7124,4.7105,4.7105,4.7105,4.7105,4.7105,4.7105,4.7105,4.7105,4.7105,4.7105,4.7105,3.2084,3.4061,3.6258,3.6523,3.6255,3.5147,0.0,0.0,3.1594,2.8743,2.8602,2.945,3.092,3.0598,3.1072,0.0,0.0,3.5842,3.9681,0.0,0.0,0.0,0.0,4.7868,0.0,4.7445,4.7445,4.7445,4.7445,4.7902,4.8951,4.9001,4.9001,4.9001,4.9001,4.9001,4.9001,4.9001,4.9001,4.9001,4.9001,4.8989,4.8946,4.9677,4.9979,5.0021,5.098,5.0628,4.953,5.1099,5.122,5.0562,5.1919,5.2747,5.3185,5.3185,5.3185,5.3185,5.3185,5.3185,5.3185,5.3185,5.3185,5.3075,5.2527,5.1389,5.0216,4.9739,4.8967,4.8306,4.8306,4.8306,4.8306,4.8306,4.8306,4.8326,4.8458,4.871,4.9043,4.9575,4.9911,5.0237,5.0624,5.0712,5.0712,5.0712,5.0712,5.0712,5.0712,5.0712,5.0712,5.0712,4.9606,4.8875,4.8875,4.8875,4.8759,4.8509,4.849,4.8375,4.8105,4.8105,4.8105,4.8105,4.8105,4.8105,4.8105,4.8105,4.8105,4.8105,4.8105,4.8105,3.2985,3.5472,3.7573,3.6798,3.5485,3.4052,0.0,3.1133,2.9835,2.9132,2.8993,2.945,3.092,3.0598,3.1072,3.4015,0.0,0.0,3.7618,0.0,0.0,0.0,0.0,4.6599,4.8781,4.8984,4.8984,4.8984,4.8984,4.8984,4.9001,4.9001,4.9001,4.9001,4.9001,4.9001,4.9001,4.9001,4.9001,4.9001,4.9001,4.8937,4.884,4.963,4.9961,4.9981,5.1442,5.162,5.0981,5.2546,5.269,5.2068,5.2855,5.3185,5.3185,5.3185,5.3185,5.3185,5.3185,5.3185,5.3185,5.3185,5.3185,5.3185,5.3185,5.2619,5.1628,5.0051,4.8967,4.8306,4.8306,4.8306,4.8306,4.8306,4.8306,4.8402,4.8813,4.8897,4.9139,4.9936,5.0092,5.0237,5.0624,5.0712,5.0712,5.0712,5.0712,5.0712,5.0712,5.0712,5.0712,5.0712,5.0693,5.0673,5.0673,5.0673,5.0308,4.9433,4.9394,4.899,4.8144,4.8105,4.8105,4.8105,4.8105,4.8105,4.8105,4.8105,4.8105,4.8105,4.8105,4.8105,2.961,3.1045,3.253,3.2775,3.249,3.1629,2.9673,2.9663,2.9571,2.7789,2.7824,2.8805,3.0818,3.0598,3.1072,3.4015,3.4489,0.0,0.0,0.0,0.0,4.5466,4.7039,4.824,0.0,0.0,4.7902,4.8934,4.8071,4.7936,4.8951,4.9001,4.9001,4.9001,4.9001,4.9001,4.9001,4.9001,4.9226,4.9664,4.9664,4.9652,4.9591,5.0842,5.1115,5.0671,5.2186,5.2397,5.1725,5.2773,5.2729,5.2068,5.2894,5.3185,5.3185,5.3185,5.3185,5.3185,5.3185,5.3185,5.3185,5.3185,5.3185,5.3185,5.3185,5.2637,5.1667,5.0051,4.8967,4.8306,4.8306,4.8306,4.8306,4.8306,4.8513,4.8744,4.8863,4.9322,4.98,5.0056,5.0325,5.0554,5.0673,5.0712,5.0712,5.0712,5.0712,5.0712,5.0712,5.0712,5.0712,5.0712,5.0712,5.0712,5.0712,5.0712,5.0577,5.0308,5.0289,5.0164,4.9894,4.9875,4.9875,4.9875,4.9875,4.9875,4.9875,4.9875,4.9875,4.9875,4.9875,4.9875,0.0,2.8941,3.0492,3.0653,3.0481,0.0,0.0,2.8332,2.8145,2.73,2.7942,2.9092,3.0531,3.1089,3.1765,3.3051,3.4675,3.6468,0.0,0.0,0.0,4.528,0.0,0.0,0.0,4.8173,4.8003,4.8934,4.8156,4.8037,4.8951,4.9001,4.9001,4.9001,4.9001,4.9001,4.9001,4.9256,4.9593,5.0004,5.0297,5.0365,5.0303,5.1545,5.1813,5.1387,5.2651,5.2931,0.0,5.3004,5.2913,5.2509,5.3004,5.3185,5.3185,5.3185,5.3185,5.3185,5.3185,5.3185,5.3185,5.3185,5.3185,5.3185,5.3185,5.2637,5.172,5.0437,4.9444,4.871,4.8398,4.8306,4.8344,4.8495,4.8728,4.8978,4.9295,4.976,5.0147,5.0302,5.0534,5.0712,5.0712,5.0712,5.0712,5.0712,5.0712,5.0712,5.0712,5.0712,5.0712,5.0712,5.0712,5.0712,5.0712,5.0712,5.0712,5.0712,5.0712,5.0712,5.0712,5.0712,5.0712,5.0712,5.0712,5.0712,5.0712,5.0712,5.0712,5.0712,5.0712,5.0712,0.0,2.8472,0.0,0.0,0.0,0.0,2.8604,2.6962,0.0,2.7621,2.9092,3.0156,3.0359,3.2239,3.322,3.1681,3.5064,3.7178,0.0,3.8633,0.0,0.0,4.5551,0.0,4.8714,4.8934,4.9001,4.9001,4.9001,4.9001,4.9001,4.9001,4.9032,4.9077,4.9077,4.9077,4.9077,4.9751,5.0048,5.0,5.0797,5.1037,5.0846,5.1767,5.21,5.2032,5.2858,5.3185,5.3185,5.3185,5.3185,5.3185,5.3185,5.3185,5.3185,5.3185,5.3185,5.3185,5.3185,5.3185,5.3185,5.3185,5.3227,5.3248,5.3206,5.2637,5.183,5.1041,5.0215,4.9408,4.8546,4.8345,4.8439,4.8864,4.8961,4.9202,4.9936,5.0116,5.0249,5.0624,5.0712,5.0712,5.0712,5.0712,5.0712,5.0712,5.0712,5.0712,5.0712,5.0712,5.0712,5.0712,5.0712,5.0712,5.0712,5.0712,5.0712,5.0712,5.0712,5.0712,5.0712,5.0712,5.0712,5.0712,5.0712,5.0712,5.0712,5.0712,5.0712,5.0712,5.0712,5.0712,2.3249,0.0,2.5188,2.501,2.4838,2.4728,0.0,2.4289,2.4983,2.877,0.0,3.0801,3.3051,3.5318,3.6163,3.4049,3.6079,3.7922,3.7939,0.0,0.0,4.4293,4.6769,4.8173,4.7378,4.8342,4.9001,4.9001,4.9001,4.9001,4.9001,4.9001,4.9243,4.9751,4.9763,4.9763,4.9763,5.0472,5.0484,4.9782,5.1191,5.1158,4.9884,5.1987,5.2602,5.2032,5.2858,5.3185,5.3185,5.3185,5.3185,5.3185,5.3185,5.3185,5.3185,5.3185,5.3185,5.3185,5.3185,5.3185,5.3185,5.3185,5.3402,5.3604,5.3295,5.2637,5.183,5.1041,5.0215,4.9468,4.8897,4.8761,4.8846,4.9265,4.9589,4.9866,5.0056,5.0347,5.0594,5.0673,5.0712,5.0712,5.0712,5.0712,5.0712,5.0712,5.0712,5.0712,5.0712,5.0712,5.0712,5.0712,5.0712,5.0712,5.0712,5.0712,5.0712,5.0712,5.0712,5.0712,5.0712,5.0712,5.0712,5.0712,5.0712,5.0712,5.0712,5.0712,5.0712,5.0712,5.0712,5.0712,2.2296,2.2835,2.363,2.4661,2.4423,2.4171,2.5186,0.0,0.0,0.0,0.0,0.0,0.0,3.5013,3.5537,3.4641,3.5825,0.0,0.0,0.0,4.4181,4.4564,4.602,4.6921,4.6802,4.8139,4.9001,4.9001,4.9001,4.9001,4.9001,4.9286,4.9622,4.9976,5.0635,5.0805,5.05,5.1215,5.0928,4.9704,5.1683,5.1715,5.0178,5.2252,5.2968,5.2527,5.2234,5.2527,5.313,5.2417,5.2546,5.3185,5.3185,5.3185,5.3185,5.3185,5.3185,5.3185,5.3185,5.3185,5.3227,5.3422,5.3624,5.3796,5.3796,5.3498,5.2865,5.1434,5.0861,5.0479,4.9442,4.9171,4.928,4.9692,4.9936,5.0159,5.0336,5.0544,5.0712,5.0712,5.0712,5.0712,5.0712,5.0712,5.0712,5.0712,5.0712,5.0712,5.0712,5.0712,5.0712,5.0712,5.0712,5.0712,5.0712,5.0712,5.0712,5.0712,5.0712,5.0712,5.0712,5.0712,5.0712,5.0712,5.0712,5.0712,5.0712,5.0712,5.0712,5.0712,5.0712,5.0712,2.2296,2.2919,2.4069,2.6167,2.5506,2.4948,2.7266,0.0,0.0,0.0,0.0,0.0,0.0,3.4658,0.0,0.0,0.0,0.0,4.1576,4.3081,4.3961,4.4547,4.5004,4.5681,4.6684,4.8139,4.9001,4.9001,4.9107,4.9152,4.9152,4.9809,5.0213,5.0307,5.1476,5.188,5.1436,5.1994,5.1452,4.9896,5.213,5.2362,5.0857,5.2472,5.3185,5.3112,5.1775,5.194,5.3075,5.1738,5.1977,5.3185,5.3185,5.3185,5.3185,5.3185,5.3185,5.3206,5.3272,5.3295,5.3359,5.3777,5.3941,5.4047,5.4387,5.4597,5.4273,5.2261,5.1834,5.165,5.0161,4.9684,4.9706,5.0092,5.0183,5.0283,5.0624,5.0712,5.0712,5.0712,5.0712,5.0712,5.0712,5.0712,5.0712,5.0712,5.0712,5.0712,5.0712,5.0712,5.0712,5.0712,5.0712,5.0712,5.0712,5.0712,5.0712,5.0712,5.0712,5.0712,5.0712,5.0712,5.0712,5.0712,5.0712,5.0712,5.0712,5.0712,5.0712,5.0712,5.0712,5.0712,2.2296,2.3291,2.4711,2.6302,2.5118,2.4306,2.7148,0.0,0.0,0.0,0.0,0.0,0.0,4.0307,4.1044,0.0,0.0,3.9859,0.0,0.0,4.5162,4.4666,4.6786,4.7919,4.6887,4.8139,4.9001,4.9001,4.9521,4.985,4.985,5.0544,5.1189,5.1765,5.1976,5.2358,5.2872,5.2977,5.2215,5.0662,5.2394,5.2362,5.0857,5.2472,5.3185,5.3206,5.2949,5.2986,5.3167,5.2928,5.2965,5.3185,5.3185,5.3185,5.3185,5.3185,5.3185,5.3251,5.3585,5.3702,5.3777,5.4238,5.4625,5.4848,5.4579,5.4979,5.5212,5.3821,5.2731,5.1857,5.1191,5.0514,5.0104,5.0504,5.0604,5.0624,5.0683,5.0712,5.0712,5.0712,5.0712,5.0712,5.0712,5.0712,5.0712,5.0712,5.0712,5.0712,5.0712,5.0712,5.0712,5.0712,5.0712,5.0712,5.0712,5.0712,5.0712,5.0712,5.0712,5.0712,5.0712,5.0712,5.0712,5.0712,5.0712,5.0712,5.0712,5.0712,5.0712,5.0712,5.0712,5.0712,2.2296,2.3088,2.4745,2.8247,2.6843,2.5896,3.0883,0.0,0.0,0.0,0.0,0.0,0.0,0.0,3.8193,3.711,0.0,4.3555,4.3098,4.4908,4.616,4.5821,4.6989,4.7691,4.7375,4.866,4.971,5.009,5.0435,5.0581,5.0581,5.1266,5.1783,5.2089,5.249,5.2853,5.3185,5.3185,5.2399,5.082,5.2435,5.2362,5.0857,5.2472,5.3185,5.3148,5.2289,5.2417,5.3133,5.227,5.2435,5.3185,5.3185,5.3185,5.3185,5.3185,5.3185,5.3251,5.3663,5.3796,5.3905,5.4591,5.4952,5.5121,5.5147,5.5411,5.5585,5.4998,5.3764,5.2494,5.1805,5.1034,5.0472,5.0663,5.0712,5.0712,5.0712,5.0712,5.0712,5.0712,5.0712,5.0712,5.0712,5.0712,5.0712,5.0712,5.0712,5.0712,5.0712,5.0712,5.0712,5.0712,5.0712,5.0712,5.0712,5.0712,5.0712,5.0712,5.0712,5.0712,5.0712,5.0712,5.0712,5.0712,5.0712,5.0712,5.0712,5.0712,5.0712,5.0712,5.0712,5.0712,2.2296,2.2835,2.4492,2.9008,0.0,2.6979,3.4213,3.0243,0.0,0.0,0.0,0.0,0.0,3.6502,0.0,3.9214,4.3437,4.6077,4.5433,4.6462,4.7352,4.7525,4.7554,4.7837,4.8501,4.9572,5.05,5.106,5.1241,5.1343,5.1343,5.1994,5.2358,5.2358,5.2915,5.3185,5.3185,5.3185,5.2582,5.1389,5.2619,5.2543,5.1408,5.2656,5.3185,5.3133,5.1903,5.2068,5.3093,5.1885,5.2105,5.3185,5.3185,5.3185,5.3206,5.3295,5.3339,5.3422,5.3923,5.4099,5.4236,5.4988,5.5237,5.5294,5.5599,5.5703,5.5703,5.5703,5.4645,5.3299,5.2423,5.1452,5.0712,5.0712,5.0712,5.0712,5.0712,5.0712,5.0712,5.0712,5.0712,5.0712,5.0712,5.0712,5.0712,5.0712,5.0712,5.0712,5.0712,5.0712,5.0712,5.0712,5.0712,5.0712,5.0712,5.0712,5.0712,5.0712,5.0712,5.0712,5.0712,5.0712,5.0712,5.0712,5.0712,5.0712,5.0712,5.0712,5.0712,5.0712,5.0712,5.0712,2.2296,2.2835,2.3985,2.642,2.527,0.0,3.4714,3.1447,0.0,3.7212,0.0,0.0,0.0,3.9665,3.9326,4.1605,4.3535,4.5399,4.7217,4.825,4.9073,4.9694,4.9763,5.0056,5.0796,5.0981,5.1034,5.1086,5.1685,5.2042,5.2042,5.2725,5.3124,5.3124,5.3164,5.3185,5.3185,5.3185,5.313,5.302,5.313,5.313,5.302,5.3148,5.3185,5.3185,5.3096,5.3075,5.3185,5.3096,5.3093,5.3185,5.3185,5.3185,5.3248,5.3605,5.3758,5.3888,5.4712,5.5007,5.5075,5.5512,5.5651,5.5662,5.5684,5.5703,5.5703,5.5703,5.5068,5.4203,5.3337,5.1914,5.0712,5.0712,5.0712,5.0712,5.0712,5.0712,5.0712,5.0712,5.0712,5.0712,5.0712,5.0712,5.0712,5.0712,5.0712,5.0712,5.0712,5.0712,5.0712,5.0712,5.0712,5.0712,5.0712,5.0712,5.0712,5.0712,5.0712,5.0712,5.0712,5.0712,5.0712,5.0712,5.0712,5.0712,5.0712,5.0712,5.0712,5.0712,5.0712,5.0712,2.255,2.2968,2.4374,2.8467,2.6776,0.0,0.0,3.2645,3.1698,3.9445,3.8244,0.0,0.0,0.0,4.1864,4.278,4.5359,4.7675,4.896,4.9798,5.0407,5.0635,5.0689,5.0955,5.1643,5.1716,5.1922,5.2353,5.264,5.2769,5.2769,5.3042,5.3185,5.3185,5.3185,5.3185,5.3185,5.3185,5.3185,5.3185,5.3185,5.3185,5.3185,5.3185,5.3185,5.3185,5.3185,5.3185,5.3185,5.3185,5.3185,5.3227,5.3484,5.3565,5.3643,5.4085,5.4238,5.4322,5.489,5.5088,5.5173,5.5577,5.5703,5.5703,5.5703,5.5703,5.5703,5.5703,5.5126,5.4299,5.3433,5.2337,5.1318,5.0827,5.0712,5.0712,5.0712,5.0712,5.0712,5.0712,5.0712,5.0712,5.0712,5.0712,5.0712,5.0712,5.0712,5.0712,5.0712,5.0712,5.0712,5.0712,5.0712,5.0712,5.0712,5.0712,5.0712,5.0712,5.0712,5.0712,5.0712,5.0712,5.0712,5.0712,5.0712,5.0712,5.0712,5.0712,5.0712,5.0712,5.0712,5.0712,2.3115,2.3381,2.4785,0.0,0.0,0.0,3.4757,3.3956,3.3452,4.0148,3.9634,3.7969,3.7971,0.0,0.0,0.0,4.6295,4.8582,5.0076,5.0761,5.1164,5.1393,5.1419,5.1685,5.2381,5.2445,5.2662,5.3164,5.3185,5.3185,5.3185,5.3185,5.3185,5.3185,5.3185,5.3185,5.3185,5.3185,5.3185,5.3185,5.3185,5.3185,5.3185,5.3185,5.3185,5.3185,5.3185,5.3185,5.3185,5.3185,5.3254,5.3422,5.3683,5.3887,5.4083,5.4532,5.4686,5.4764,5.516,5.5294,5.5331,5.5599,5.5703,5.5703,5.5703,5.5703,5.5703,5.5703,5.5299,5.4684,5.3837,5.276,5.1692,5.0894,5.0712,5.0712,5.0712,5.0712,5.0712,5.0712,5.0712,5.0712,5.0712,5.0712,5.0712,5.0712,5.0712,5.0712,5.0712,5.0712,5.0712,5.0712,5.0712,5.0712,5.0712,5.0712,5.0712,5.0712,5.0712,5.0712,5.0712,5.0712,5.0712,5.0712,5.0712,5.0712,5.0712,5.0712,5.0712,5.0712,5.0712,5.0712,2.4019,2.4173,2.5093,0.0,0.0,0.0,3.6559,3.5342,3.3802,3.8893,4.2916,4.4993,4.339,4.3231,0.0,4.5098,4.6014,4.7565,5.0523,5.1037,5.1368,5.2024,5.2112,5.2399,5.3124,5.3185,5.3185,5.3185,5.3185,5.3185,5.3185,5.3185,5.3185,5.3185,5.3185,5.3185,5.3185,5.3185,5.3185,5.3185,5.3185,5.3185,5.3185,5.3185,5.3185,5.3185,5.3185,5.3185,5.3185,5.3206,5.3424,5.3796,5.3814,5.4101,5.4547,5.4966,5.5121,5.516,5.5566,5.5703,5.5703,5.5703,5.5703,5.5703,5.5703,5.5703,5.5703,5.5703,5.5703,5.5511,5.4703,5.3222,5.1712,5.0894,5.0712,5.0712,5.0712,5.0712,5.0712,5.0712,5.0712,5.0712,5.0712,5.0712,5.0712,5.0712,5.0712,5.0712,5.0712,5.0712,5.0712,5.0712,5.0712,5.0712,5.0712,5.0712,5.0712,5.0712,5.0712,5.0712,5.0712,5.0712,5.0712,5.0712,5.0712,5.0712,5.0712,5.0712,5.0712,5.0712,5.0712,5.0712,2.655,2.6177,0.0,2.8229,0.0,0.0,0.0,3.5413,0.0,0.0,4.4117,4.4421,4.1988,4.4946,4.7373,4.6329,4.8538,5.0881,5.2324,5.2557,5.2658,5.2853,5.2875,5.2959,5.3185,5.3185,5.3185,5.3185,5.3185,5.3185,5.3185,5.3185,5.3185,5.3185,5.3185,5.3185,5.3185,5.3185,5.3185,5.3185,5.3185,5.3185,5.3185,5.3185,5.3185,5.3185,5.3185,5.3185,5.3227,5.3524,5.3683,5.3851,5.4462,5.4804,5.4979,5.5356,5.5512,5.5535,5.5662,5.5703,5.5703,5.5703,5.5703,5.5703,5.5703,5.5703,5.5703,5.5703,5.5703,5.5511,5.4703,5.4126,5.3356,5.1895,5.1106,5.0712,5.0712,5.0712,5.0712,5.0712,5.0712,5.0712,5.0712,5.0712,5.0712,5.0712,5.0712,5.0712,5.0712,5.0712,5.0712,5.0712,5.0712,5.0712,5.0712,5.0712,5.0712,5.0712,5.0712,5.0712,5.0712,5.0712,5.0712,5.0712,5.0712,5.0712,5.0712,5.0712,5.0712,5.0712,5.0712,5.0712,2.8545,2.8402,0.0,3.2156,3.2729,3.3139,3.5954,0.0,0.0,0.0,4.5731,4.5526,4.4103,4.6773,4.8997,4.8318,5.033,5.227,5.3096,5.3185,5.3185,5.3185,5.3185,5.3185,5.3185,5.3185,5.3185,5.3185,5.3185,5.3185,5.3185,5.3185,5.3185,5.3185,5.3185,5.3185,5.3185,5.3185,5.3185,5.3185,5.3185,5.3185,5.3185,5.3185,5.3185,5.3206,5.338,5.3442,5.3464,5.3888,5.4168,5.4366,5.489,5.5199,5.5375,5.5599,5.5703,5.5703,5.5703,5.5703,5.5703,5.5703,5.5703,5.5703,5.5703,5.5703,5.5703,5.5703,5.5703,5.5588,5.5107,5.4741,5.4068,5.2308,5.1529,5.1087,5.077,5.0712,5.0712,5.0712,5.0712,5.0712,5.0712,5.0712,5.0712,5.0712,5.0712,5.0712,5.0712,5.0712,5.0712,5.0712,5.0712,5.0712,5.0712,5.0712,5.0712,5.0712,5.0712,5.0712,5.0712,5.0712,5.0712,5.0712,5.0712,5.0712,5.0712,5.101,5.1183,5.1183,5.1529,5.1683,3.0204,3.0675,3.2562,3.7394,3.6279,0.0,4.0471,4.1298,4.2232,4.6569,0.0,4.749,4.8264,4.8621,4.9252,5.0684,5.1573,5.2362,5.3093,5.3185,5.3185,5.3185,5.3185,5.3185,5.3185,5.3185,5.3185,5.3185,5.3185,5.3185,5.3185,5.3185,5.3185,5.3185,5.3185,5.3185,5.3185,5.3185,5.3185,5.3185,5.3185,5.3185,5.3185,5.3185,5.3227,5.3293,5.3682,5.3851,5.3887,5.4371,5.476,5.5088,5.5147,5.5387,5.5703,5.5703,5.5703,5.5703,5.5703,5.5703,5.5703,5.5703,5.5703,5.5703,5.5703,5.5703,5.5703,5.5703,5.5703,5.5703,5.5703,5.5164,5.4184,5.2519,5.2019,5.1692,5.0971,5.075,5.0712,5.0712,5.0712,5.0712,5.0712,5.0712,5.0712,5.0712,5.0712,5.0712,5.0712,5.0712,5.0712,5.0712,5.0712,5.0712,5.0712,5.0712,5.0712,5.0712,5.077,5.0808,5.0808,5.075,5.0731,5.0808,5.0808,5.0846,5.0943,5.1664,5.2019,5.2038,5.2837,5.3203,3.2279,3.2159,0.0,3.281,3.4445,3.7533,4.4269,4.526,4.5389,4.7638,4.7089,4.6853,4.8948,4.9878,5.0623,5.1589,5.2417,5.3004,5.3167,5.3185,5.3185,5.3185,5.3185,5.3185,5.3185,5.3185,5.3185,5.3185,5.3185,5.3185,5.3185,5.3185,5.3185,5.3185,5.3185,5.3185,5.3185,5.3185,5.3185,5.3185,5.3185,5.3185,5.3185,5.3185,5.338,5.3701,5.4153,5.4338,5.4371,5.479,5.5021,5.5134,5.5435,5.561,5.5703,5.5703,5.5703,5.5703,5.5703,5.5703,5.5703,5.5703,5.5703,5.5703,5.5703,5.5703,5.5703,5.5703,5.5703,5.5703,5.5703,5.5568,5.5184,5.4184,5.2895,5.1846,5.1673,5.1144,5.0712,5.0712,5.0712,5.0712,5.0712,5.0712,5.0712,5.0712,5.0712,5.0712,5.0712,5.0712,5.0712,5.0712,5.0712,5.0712,5.0712,5.0712,5.0712,5.0712,5.1298,5.1635,5.1635,5.1029,5.0991,5.1625,5.1635,5.1991,5.2664,5.2837,5.2933,5.2933,5.3106,5.3203,3.1623,0.0,0.0,3.6505,0.0,4.1882,4.5663,4.6801,4.7297,4.8141,4.7627,4.7572,4.928,5.0251,5.1059,5.1867,5.2674,5.3185,5.3185,5.3185,5.3185,5.3185,5.3185,5.3185,5.3185,5.3185,5.3185,5.3185,5.3185,5.3185,5.3185,5.3185,5.3185,5.3185,5.3185,5.3185,5.3185,5.3185,5.3295,5.3504,5.3504,5.3585,5.3796,5.3584,5.372,5.4153,5.4609,5.4794,5.4823,5.5212,5.5387,5.5411,5.5629,5.5703,5.5703,5.5703,5.5703,5.5703,5.5703,5.5703,5.5703,5.5703,5.5703,5.5703,5.5703,5.5703,5.5703,5.5703,5.5703,5.5703,5.5703,5.5703,5.5588,5.5164,5.4087,5.2933,5.2077,5.1568,5.1164,5.077,5.0712,5.0712,5.0712,5.0748,5.0822,5.0879,5.0894,5.0863,5.0797,5.0859,5.0844,5.0712,5.0757,5.0929,5.125,5.1279,5.1452,5.1875,5.2299,5.2519,5.2519,5.2125,5.2087,5.25,5.2519,5.276,5.3203,5.3626,5.3818,5.3837,5.4222,5.4395,2.9989,0.0,3.6325,4.1901,4.3975,0.0,4.6067,4.7021,4.781,4.8214,4.8306,4.8618,4.9609,5.0343,5.1114,5.205,5.2766,5.3185,5.3185,5.3185,5.3185,5.3185,5.3185,5.3185,5.3185,5.3185,5.3185,5.3185,5.3185,5.3185,5.3185,5.3185,5.3185,5.3185,5.3185,5.3185,5.3185,5.3272,5.3464,5.3796,5.3869,5.417,5.4579,5.4202,5.4255,5.4628,5.5034,5.5199,5.5224,5.5566,5.5703,5.5703,5.5703,5.5703,5.5703,5.5703,5.5703,5.5703,5.5703,5.5703,5.5703,5.5703,5.5703,5.5703,5.5703,5.5703,5.5703,5.5703,5.5703,5.5703,5.5703,5.5703,5.5703,5.5703,5.5206,5.4303,5.2713,5.2231,5.1885,5.1087,5.0844,5.0775,5.0775,5.0848,5.0966,5.1074,5.1089,5.1053,5.0959,5.1156,5.1216,5.0992,5.1219,5.159,5.2143,5.2183,5.2491,5.3224,5.3398,5.3465,5.3465,5.3569,5.3626,5.3626,5.351,5.3491,5.3626,5.4357,5.4703,5.4722,5.5395,5.5703,2.9152,0.0,3.6197,0.0,4.1056,4.113,0.0,0.0,4.5755,0.0,4.8306,4.8783,5.0343,5.0729,5.1298,5.2803,5.3133,5.3185,5.3185,5.3185,5.3185,5.3185,5.3185,5.3185,5.3185,5.3185,5.3185,5.3185,5.3185,5.3185,5.3185,5.3185,5.3185,5.3185,5.3185,5.3185,5.3185,5.3545,5.3758,5.3795,5.4204,5.4625,5.5021,5.4947,5.496,5.5034,5.5454,5.561,5.561,5.5673,5.5703,5.5703,5.5703,5.5703,5.5703,5.5703,5.5703,5.5703,5.5703,5.5703,5.5703,5.5703,5.5703,5.5703,5.5703,5.5703,5.5703,5.5703,5.5703,5.5703,5.5703,5.5703,5.5703,5.5703,5.5711,5.5436,5.437,5.3568,5.2801,5.207,5.1444,5.1056,5.1056,5.1053,5.1069,5.1108,5.1089,5.1084,5.1088,5.1706,5.2134,5.2078,5.278,5.3272,5.3372,5.3366,5.3425,5.3541,5.4151,5.4497,5.4497,5.5066,5.5376,5.5376,5.4684,5.4664,5.5376,5.5472,5.553,5.553,5.5645,5.5703,3.0711,3.232,3.4816,0.0,4.1497,4.0396,4.6838,4.6415,4.537,4.781,4.8306,4.8673,4.9884,5.049,5.1187,5.2344,5.2913,5.3185,5.3185,5.3185,5.3185,5.3185,5.3185,5.3185,5.3185,5.3185,5.3185,5.3185,5.3185,5.3185,5.3185,5.3185,5.3185,5.3185,5.3185,5.3316,5.3545,5.372,5.4047,5.4525,5.496,5.5269,5.5435,5.5435,5.5435,5.5454,5.561,5.5703,5.5703,5.5703,5.5703,5.5703,5.5703,5.5703,5.5703,5.5703,5.5703,5.5703,5.5703,5.5703,5.5703,5.5703,5.5703,5.5703,5.5703,5.5703,5.5703,5.5703,5.5703,5.5726,5.5789,5.5807,5.5843,5.5951,5.6029,5.5967,5.554,5.4769,5.3906,5.3093,5.2697,5.2524,5.2609,5.2616,5.2633,5.2711,5.2718,5.2704,5.2623,5.2988,5.3197,5.3049,5.3444,5.3884,5.4285,5.4334,5.4548,5.5034,5.5357,5.5534,5.5534,5.5725,5.5807,5.5807,5.5401,5.5338,5.5703,5.5703,5.5703,5.5703,5.5703,5.5703,0.0,0.0,3.2871,4.1589,4.0579,3.9038,0.0,0.0,4.4471,0.0,4.7884,4.8508,4.9132,4.9939,5.0765,5.1555,5.238,5.2913,5.2913,5.3057,5.3185,5.3185,5.3185,5.3185,5.3185,5.3185,5.3185,5.3185,5.3185,5.3185,5.3185,5.3295,5.3359,5.3359,5.3462,5.3682,5.3977,5.4082,5.451,5.5269,5.5566,5.5703,5.5703,5.5703,5.5703,5.5703,5.5703,5.5703,5.5703,5.5703,5.5703,5.5703,5.5703,5.5703,5.5703,5.5703,5.5703,5.5703,5.5703,5.5703,5.5703,5.5703,5.5703,5.5703,5.5703,5.5717,5.5749,5.5749,5.5779,5.5854,5.5944,5.5981,5.6017,5.6164,5.6237,5.6232,5.6202,5.5541,5.4766,5.4108,5.3822,5.3725,5.3836,5.3842,5.3871,5.3984,5.4004,5.3963,5.3865,5.4136,5.425,5.405,5.4326,5.4723,5.5287,5.5338,5.5611,5.627,5.626,5.6242,5.6242,5.6078,5.5981,5.5981,5.5825,5.5738,5.5703,5.5703,5.5703,5.5703,5.5703,5.5703,0.0,2.9189,0.0,3.6464,3.5987,0.0,0.0,0.0,4.1957,4.4379,4.6709,4.8324,4.8361,4.9077,4.9941,5.0729,5.1536,5.205,5.205,5.2729,5.3185,5.3185,5.3185,5.3185,5.3185,5.3185,5.3185,5.3185,5.3185,5.3185,5.3185,5.3565,5.3758,5.3758,5.4187,5.4455,5.4471,5.4833,5.5237,5.5662,5.5684,5.5703,5.5703,5.5703,5.5703,5.5703,5.5703,5.5703,5.5703,5.5703,5.5703,5.5703,5.5703,5.5703,5.5703,5.5703,5.5703,5.5703,5.5703,5.5703,5.5703,5.5703,5.5703,5.5703,5.5703,5.5789,5.588,5.588,5.6024,5.6169,5.6181,5.6181,5.6186,5.6191,5.6301,5.6345,5.6222,5.5619,5.5076,5.5037,5.4457,5.3984,5.3984,5.3984,5.3984,5.4004,5.4004,5.4004,5.3984,5.4726,5.5234,5.5214,5.5957,5.6465,5.6503,5.6503,5.6523,5.6581,5.6458,5.6383,5.6383,5.6251,5.6181,5.6181,5.5988,5.5834,5.5703,5.5703,5.5703,5.5703,5.5703,5.5703,0.0,0.0,0.0,3.4357,3.3678,3.2908,3.834,4.0361,4.1352,4.2196,4.5553,4.7829,4.6287,4.7957,4.9702,4.9996,5.0692,5.1224,5.1224,5.1481,5.1665,5.1665,5.1665,5.1665,5.1665,5.1665,5.1665,5.1665,5.0874,5.1083,5.2733,5.2167,5.2571,5.42,5.4404,5.4609,5.4876,5.5294,5.5566,5.5703,5.5703,5.5703,5.5703,5.5703,5.5703,5.5703,5.5703,5.5703,5.5703,5.5703,5.5703,5.5703,5.5703,5.5703,5.5703,5.5703,5.5703,5.5703,5.5703,5.5703,5.5703,5.5703,5.5769,5.5834,5.5834,5.5955,5.609,5.609,5.6133,5.6212,5.6309,5.6324,5.6342,5.6448,5.6489,5.6514,5.6462,5.6255,5.6067,5.6067,5.5858,5.5664,5.5664,5.5664,5.5664,5.5664,5.5664,5.5664,5.5664,5.5937,5.6133,5.6133,5.6406,5.6601,5.6601,5.6601,5.6601,5.6601,5.656,5.6535,5.6535,5.6391,5.6324,5.6324,5.6167,5.6015,5.5834,5.5834,5.5834,5.5834,5.5834,5.5902,2.6804,0.0,0.0,0.0,3.0779,3.0595,3.5202,3.856,4.0781,4.104,4.4929,4.781,4.6214,4.7682,4.915,4.915,4.9848,5.0398,5.0398,5.0637,5.0802,5.0802,5.0802,5.0802,5.0802,5.0906,5.0985,5.0985,5.0282,5.0578,5.2272,5.1706,5.231,5.442,5.451,5.4754,5.5306,5.5577,5.5703,5.5703,5.5703,5.5703,5.5703,5.5703,5.5703,5.5703,5.5703,5.5703,5.5703,5.5703,5.5703,5.5703,5.5703,5.5703,5.5703,5.5703,5.5703,5.5703,5.5703,5.5728,5.576,5.576,5.5868,5.6003,5.6003,5.6127,5.6275,5.6275,5.6305,5.6345,5.6432,5.6479,5.6488,5.6581,5.6601,5.6601,5.6601,5.6601,5.6601,5.6601,5.6601,5.6601,5.6601,5.6601,5.6601,5.6601,5.6601,5.6601,5.6601,5.6601,5.6601,5.6601,5.6601,5.6601,5.6601,5.6601,5.6601,5.6601,5.6601,5.6601,5.6601,5.6514,5.6479,5.6479,5.6331,5.6193,5.6071,5.6012,5.6003,5.6003,5.6003,5.6103,0.0,0.0,0.0,0.0,0.0,0.0,3.0754,0.0,3.9955,4.0783,4.48,4.8177,4.8196,4.8251,4.8306,4.8306,4.9003,4.9555,4.9555,5.0233,5.0729,5.0749,5.0749,5.0749,5.0769,5.1065,5.1245,5.1245,5.1576,5.1794,5.1888,5.2341,5.3178,5.4423,5.4453,5.4857,5.5665,5.5665,5.5684,5.5703,5.5703,5.5703,5.5703,5.5703,5.5703,5.5703,5.5703,5.5703,5.5703,5.5703,5.5703,5.5703,5.5703,5.5703,5.5703,5.5703,5.5695,5.5724,5.5724,5.5798,5.5912,5.5912,5.6045,5.6216,5.6216,5.6305,5.6414,5.6414,5.651,5.6601,5.6601,5.6601,5.6601,5.6601,5.6601,5.6601,5.6601,5.6601,5.6601,5.6601,5.6601,5.6601,5.6601,5.6601,5.6601,5.6601,5.6601,5.6601,5.6601,5.6601,5.6601,5.6601,5.6601,5.6601,5.6601,5.6601,5.6601,5.6601,5.6601,5.6601,5.6601,5.6601,5.6601,5.6601,5.6462,5.6414,5.6414,5.626,5.6216,5.6216,5.6202,5.6288,2.419,0.0,0.0,0.0,0.0,0.0,2.8503,0.0,3.5881,3.7331,4.146,4.5002,4.559,4.7131,4.8306,4.8306,4.8508,4.8655,4.8655,4.8857,4.9101,4.9378,4.9432,4.9536,4.9835,4.9944,5.0002,5.0002,4.9205,4.9518,5.1382,5.2456,5.3196,5.3549,5.3568,5.3972,5.4818,5.4818,5.5126,5.5703,5.5703,5.5703,5.5703,5.5703,5.5703,5.5703,5.5703,5.5703,5.5703,5.5703,5.5703,5.5703,5.5703,5.5703,5.5703,5.5703,5.575,5.5851,5.5851,5.5951,5.6128,5.6128,5.6227,5.6338,5.6338,5.6448,5.6539,5.6539,5.6561,5.6601,5.6601,5.6601,5.6601,5.6601,5.6601,5.6601,5.6601,5.6601,5.6601,5.6601,5.6601,5.6601,5.6601,5.6601,5.6601,5.6601,5.6601,5.6601,5.6601,5.6601,5.6601,5.6601,5.6601,5.6601,5.6601,5.6601,5.6601,5.6601,5.6601,5.6601,5.6601,5.6601,5.6601,5.6601,5.6561,5.6539,5.6539,5.6416,5.6338,5.6358,5.6432,5.6456,0.0,0.0,0.0,0.0,0.0,0.0,2.8117,3.2084,3.6007,0.0,4.2139,4.5333,4.48,4.5847,4.6838,4.7018,4.7053,4.7333,4.8178,4.8439,4.8639,4.8863,4.9043,4.9249,4.9475,4.9645,4.9746,4.9746,4.9189,4.9475,5.096,5.1755,5.2318,5.2654,5.2654,5.3087,5.3953,5.4318,5.4741,5.5203,5.553,5.5703,5.5703,5.5703,5.5703,5.5703,5.5703,5.5703,5.5703,5.5703,5.5703,5.5703,5.5703,5.5703,5.5705,5.576,5.5824,5.5912,5.5996,5.6139,5.6273,5.6273,5.6377,5.6484,5.6484,5.6537,5.6601,5.6601,5.6601,5.6601,5.6601,5.6601,5.6601,5.6601,5.6601,5.6601,5.6601,5.6601,5.6601,5.6601,5.6601,5.6601,5.6601,5.6601,5.6601,5.6601,5.6601,5.6601,5.6601,5.6601,5.6601,5.6601,5.6601,5.6601,5.6601,5.6601,5.6601,5.6601,5.6601,5.6601,5.6601,5.6601,5.6601,5.6601,5.6601,5.6601,5.6601,5.6515,5.6484,5.6486,5.6561,5.656,0.0,0.0,0.0,0.0,2.5405,0.0,2.8604,3.3057,3.7446,0.0,4.3767,4.6213,4.4429,4.4098,4.4232,4.459,4.4726,4.5536,4.7721,4.856,4.8868,4.8637,4.9172,4.9575,4.9636,4.9949,5.0171,5.0171,5.0493,5.0712,5.0712,5.0712,5.1029,5.1731,5.1769,5.2173,5.3049,5.3818,5.4318,5.4511,5.5222,5.5607,5.5703,5.5703,5.5703,5.5703,5.5703,5.5703,5.5714,5.5716,5.5716,5.5695,5.5726,5.5717,5.5748,5.5874,5.5951,5.5976,5.615,5.6313,5.6421,5.6421,5.649,5.6601,5.6601,5.6601,5.6601,5.6601,5.6601,5.6601,5.6601,5.6601,5.6601,5.6601,5.6601,5.6601,5.6601,5.6601,5.6601,5.6601,5.6601,5.6601,5.6601,5.6601,5.6601,5.6601,5.6601,5.6601,5.6601,5.6601,5.6601,5.6601,5.6601,5.6601,5.6601,5.6601,5.6601,5.6601,5.6601,5.6601,5.6601,5.6601,5.6601,5.6601,5.6601,5.6601,5.6601,5.6601,5.6601,5.6601,5.6601,5.6601,0.0,0.0,0.0,0.0,2.5401,0.0,2.7357,2.9004,3.1354,0.0,3.6545,3.7866,4.0032,4.0429,4.047,4.0531,4.1081,4.2612,4.5761,4.8037,4.8735,4.7018,4.8688,5.0104,5.0432,5.0544,5.0575,5.0575,5.0663,5.0712,5.0712,5.0712,5.077,5.0933,5.0933,5.1337,5.2154,5.2308,5.3106,5.4491,5.4664,5.5068,5.5703,5.5703,5.5703,5.5703,5.5703,5.5703,5.5705,5.5816,5.5798,5.5705,5.5816,5.5857,5.5883,5.6065,5.6203,5.6305,5.6342,5.6452,5.656,5.656,5.6581,5.6601,5.6601,5.6601,5.6601,5.6601,5.6601,5.6601,5.6601,5.6601,5.6601,5.6601,5.6601,5.6601,5.6601,5.6601,5.6601,5.6601,5.6601,5.6601,5.6601,5.6601,5.6601,5.6601,5.6601,5.6601,5.6601,5.6601,5.6601,5.6601,5.6601,5.6601,5.6601,5.6601,5.6601,5.6601,5.6601,5.6601,5.6601,5.6601,5.6601,5.6601,5.6601,5.6601,5.6601,5.6601,5.6601,5.6601,5.6601,5.6601,0.0,0.0,0.0,2.6314,2.6658,0.0,0.0,2.9878,3.1815,3.4534,3.6077,3.708,3.7469,3.7544,3.7615,3.7816,3.8558,3.9589,4.0999,4.5074,4.7979,4.8169,4.9507,5.0483,5.0673,5.0712,5.0712,5.0712,5.0712,5.0712,5.0712,5.0712,5.0712,5.0712,5.0712,5.0894,5.1298,5.1692,5.2327,5.3222,5.4087,5.4703,5.5126,5.5511,5.5703,5.5695,5.5769,5.5808,5.5807,5.5974,5.6015,5.5951,5.6017,5.6051,5.6071,5.6242,5.6335,5.6414,5.6483,5.6539,5.6601,5.6601,5.6601,5.6601,5.6601,5.6601,5.6601,5.6601,5.6601,5.6601,5.6601,5.6601,5.6601,5.6601,5.6601,5.6601,5.6601,5.6601,5.6601,5.6601,5.6601,5.6601,5.6601,5.6601,5.6601,5.6601,5.6601,5.6601,5.6601,5.6601,5.6601,5.6601,5.6601,5.6601,5.6601,5.6601,5.6601,5.6601,5.6601,5.6601,5.6601,5.6601,5.6601,5.6601,5.6601,5.6816,5.7246,5.7246,5.7012,5.6601,5.6601,5.6601,0.0,0.0,0.0,0.0,0.0,2.8428,0.0,0.0,0.0,3.4432,3.6266,3.7046,3.5052,3.4675,3.4727,3.4893,3.563,3.6154,3.5986,4.0584,4.4921,4.7471,4.8652,4.925,4.925,4.9692,5.0173,5.0654,5.0712,5.0712,5.0712,5.0712,5.0712,5.0712,5.0712,5.0712,5.0712,5.1337,5.175,5.1923,5.351,5.4337,5.453,5.5362,5.5748,5.5739,5.5891,5.5959,5.5974,5.6156,5.6232,5.6232,5.6232,5.6232,5.6246,5.6383,5.6448,5.6454,5.656,5.6601,5.6601,5.6601,5.6601,5.6601,5.6601,5.6601,5.6601,5.6601,5.6601,5.6601,5.6601,5.6601,5.6601,5.6601,5.6601,5.6601,5.6601,5.6601,5.6601,5.6601,5.6601,5.6601,5.6601,5.6601,5.6601,5.6601,5.6601,5.6601,5.6601,5.6601,5.6601,5.6601,5.6601,5.6601,5.6601,5.6601,5.6601,5.6601,5.6601,5.6601,5.6601,5.6758,5.6933,5.7109,5.7109,5.7441,5.8144,5.8144,5.7793,5.7109,5.7109,5.7109,0.0,0.0,0.0,0.0,2.8434,2.9006,2.9175,0.0,3.0816,3.0964,0.0,3.1334,3.1053,0.0,0.0,3.0028,3.0649,3.1706,3.3135,3.464,3.6522,3.9077,4.2088,4.3951,4.3951,4.6009,4.8279,5.0539,5.0712,5.0712,5.0712,5.0712,5.0712,5.0712,5.0712,5.0712,5.0712,5.0789,5.1183,5.1904,5.2876,5.376,5.4521,5.5458,5.5883,5.5891,5.6078,5.6169,5.6181,5.632,5.6377,5.6377,5.6377,5.6377,5.6386,5.6535,5.6581,5.6581,5.6582,5.6601,5.6601,5.6601,5.6601,5.6601,5.6601,5.6601,5.6601,5.6601,5.6601,5.6601,5.6601,5.6601,5.6601,5.6601,5.6601,5.6601,5.6601,5.6601,5.6601,5.6601,5.6601,5.6601,5.6601,5.6601,5.6601,5.6601,5.6601,5.6601,5.6601,5.6601,5.6601,5.6601,5.6601,5.6601,5.6601,5.6601,5.6601,5.6601,5.6601,5.6601,5.6601,5.7344,5.8125,5.8887,5.8906,5.8945,5.9043,5.9043,5.9004,5.8906,5.8906,5.8906,0.0,0.0,3.2314,3.2314,3.2564,3.2814,3.2814,3.1558,3.0404,3.0404,0.0,0.0,0.0,0.0,0.0,0.0,2.9833,3.0308,3.0044,3.1141,3.368,3.8219,4.0008,4.1854,4.4297,4.4643,4.5759,4.8298,4.8509,4.8509,4.8509,4.9894,5.0712,5.0712,5.0712,5.0712,5.0712,5.0712,5.0856,5.1221,5.2634,5.3507,5.3902,5.5394,5.6071,5.6084,5.6246,5.6317,5.6324,5.6458,5.6514,5.6514,5.6514,5.6514,5.6515,5.6581,5.6601,5.6601,5.6601,5.6601,5.6601,5.6601,5.6601,5.6601,5.6601,5.6601,5.6601,5.6601,5.6601,5.6601,5.6601,5.6601,5.6601,5.6601,5.6601,5.6601,5.6601,5.6601,5.6601,5.6601,5.6601,5.6601,5.6601,5.6601,5.6601,5.6601,5.6601,5.6601,5.6601,5.6601,5.6601,5.6601,5.6601,5.6601,5.6601,5.6601,5.6816,5.7324,5.7832,5.8105,5.8105,5.8457,5.8828,5.9199,5.9199,5.9433,5.9902,5.9902,6.0156,6.0625,5.9648,5.9199,3.5816,3.6538,3.6654,3.5731,3.55,3.525,3.4327,3.2173,3.0404,3.0404,3.0404,0.0,0.0,0.0,0.0,0.0,0.0,2.9115,2.7428,2.8231,3.0865,3.5918,3.7738,3.97,4.2566,4.2989,4.3778,4.5385,4.6365,4.6904,4.6904,4.9317,5.0712,5.0712,5.0712,5.0712,5.0712,5.0712,5.0721,5.0776,5.2558,5.3412,5.352,5.5394,5.6246,5.6251,5.6408,5.6456,5.6458,5.656,5.6601,5.6601,5.6601,5.6601,5.6601,5.6601,5.6601,5.6601,5.6601,5.6601,5.6601,5.6601,5.6601,5.6601,5.6601,5.6601,5.6601,5.6601,5.6601,5.6601,5.6601,5.6601,5.6601,5.6601,5.6601,5.6601,5.6601,5.6601,5.6601,5.6601,5.6601,5.6601,5.6601,5.6601,5.6601,5.6601,5.6601,5.6601,5.6601,5.6601,5.6601,5.6601,5.6816,5.6953,5.6953,5.7187,5.7578,5.8223,5.8848,5.9297,5.9512,5.9531,5.9648,5.9883,5.9883,6.0176,6.0762,6.0762,6.1074,6.168,6.0449,5.9883,4.0796,4.0471,3.9554,3.6308,3.55,3.4635,3.1327,3.0481,3.0404,3.0404,3.0404,3.0404,3.0404,0.0,0.0,0.0,0.0,0.0,0.0,2.5423,2.6442,2.9107,3.3776,3.6519,3.5885,4.0239,4.2777,4.2019,4.5019,4.6904,4.6904,4.9317,5.0712,5.0712,5.0712,5.0712,5.0712,5.0712,5.0775,5.092,5.26,5.3475,5.3662,5.5548,5.6386,5.6391,5.6537,5.6582,5.6582,5.6601,5.6601,5.6601,5.6601,5.6601,5.6601,5.6601,5.6601,5.6601,5.6601,5.6601,5.6601,5.6601,5.6601,5.6601,5.6601,5.6601,5.6601,5.6601,5.6601,5.6601,5.6601,5.6601,5.6601,5.6601,5.6601,5.6601,5.6601,5.6601,5.6601,5.6601,5.6601,5.6601,5.6601,5.6601,5.6601,5.6601,5.6601,5.6601,5.6601,5.6601,5.6601,5.6601,5.7344,5.7851,5.7851,5.8633,5.9121,5.916,5.918,5.9551,6.0332,6.0351,6.0762,6.1601,6.1621,6.1621,6.166,6.166,6.168,6.1699,6.164,6.1621,4.4331,4.4794,4.447,4.3327,4.0912,3.8507,3.7353,3.3622,3.0404,3.0404,3.0404,3.0404,3.0404,0.0,0.0,0.0,0.0,0.0,0.0,2.5654,2.5615,2.6481,2.9583,3.2449,3.4449,3.568,3.7161,3.9142,4.0893,4.1873,4.1873,4.5874,4.8182,4.8182,4.9817,5.0749,5.0827,5.0827,5.0908,5.1039,5.2816,5.3693,5.3803,5.5682,5.6536,5.6537,5.6581,5.6601,5.6601,5.6601,5.6601,5.6601,5.6601,5.6601,5.6601,5.6601,5.6601,5.6601,5.6601,5.6601,5.6601,5.6601,5.6601,5.6601,5.6601,5.6601,5.6601,5.6601,5.6601,5.6601,5.6601,5.6601,5.6601,5.6601,5.6601,5.6601,5.6601,5.6601,5.6601,5.6601,5.6601,5.6601,5.6601,5.6601,5.6601,5.6601,5.6601,5.6816,5.7383,5.7461,5.7676,5.8262,5.8574,5.8769,5.8769,5.9512,5.998,5.998,6.0547,6.0976,6.125,6.1269,6.1406,6.1699,6.1699,6.1699,6.1699,6.1699,6.1699,6.1699,6.1699,6.1699,4.8583,4.9136,4.8856,4.7644,4.5028,4.245,4.1239,3.7353,3.3987,3.3987,3.3987,3.3718,3.2808,0.0,0.0,0.0,0.0,0.0,0.0,2.5846,2.5308,2.5308,2.8102,3.0646,3.2224,3.3256,3.4603,3.6507,3.8007,3.8969,3.9284,4.4168,4.6965,4.6965,4.9489,5.0886,5.0966,5.0966,5.1031,5.1156,5.2941,5.3813,5.3927,5.5779,5.6601,5.6601,5.6601,5.6601,5.6601,5.6601,5.6601,5.6601,5.6601,5.6601,5.6601,5.6601,5.6601,5.6601,5.6601,5.6601,5.6601,5.6601,5.6601,5.6601,5.6601,5.6601,5.6543,5.6211,5.6367,5.6523,5.6211,5.6367,5.6601,5.6601,5.6601,5.6601,5.6601,5.6601,5.6601,5.6601,5.6601,5.6699,5.7012,5.7051,5.7051,5.7051,5.7051,5.7383,5.8242,5.8359,5.8574,5.914,5.9453,5.9746,6.0058,6.0566,6.0859,6.0859,6.1387,6.1699,6.1699,6.1699,6.1426,6.082,6.1406,6.1406,6.0801,6.1406,6.1699,6.1699,6.1699,6.1699]}]]